GFSCGP_prec_cloud_003.txt.gz
Cloud_Cover
0 0 0 0 0 0 0 0 0 0 0 0 0 0 0 0 5 5 5 26 35 6 21 8 26 28 24 49 5 65 97 88 98 34 84 88 94 58 18 9 7 5 3 0
0 0 0 0 0 0 0 0 0 0 0 0 0 0 0 1 4 5 5 24 40 17 5 26 65 50 5 31 73 80 40 33 7 14 99 100 100 100 100 96 53 52 21 3
0 0 0 0 0 0 0 0 0 0 0 0 0 1 0 1 4 5 16 5 5 5 5 17 17 5 30 7 5 7 40 25 95 97 93 88 100 100 100 100 100 94 91 74
3 0 0 0 0 1 0 0 0 0 0 2 89 97 6 89 100 97 94 34 51 6 5 5 5 5 5 5 5 5 5 11 15 60 68 34 37 100 100 100 100 100 99 100
5 0 0 5 5 5 5 5 3 0 5 12 92 93 32 24 72 67 98 66 20 53 31 44 76 52 52 72 68 65 56 88 32 59 95 97 100 100 100 100 100 100 100 100
5 5 2 5 2 5 5 26 68 5 5 5 6 85 50 17 5 99 90 93 100 100 100 100 100 90 100 100 81 99 100 100 71 88 82 100 100 100 100 100 100 100 100 100
4 0 5 5 5 5 31 51 4 4 6 40 5 7 37 77 70 95 100 100 100 100 100 100 93 100 100 100 100 100 100 100 100 100 100 100 100 100 100 100 100 100 100 100
0 2 0 5 5 5 6 47 96 100 100 100 15 3 2 4 5 5 66 100 100 100 100 100 100 100 100 100 100 100 100 100 54 100 100 97 100 99 100 100 100 100 100 100
5 5 0 5 5 2 5 14 95 97 100 95 98 100 100 16 5 5 16 98 100 100 100 100 100 100 100 56 100 100 69 96 55 100 100 90 87 100 100 73 100 100 99 97
5 5 2 5 5 1 2 4 22 80 99 100 100 100 100 10 96 97 92 100 100 100 98 98 100 100 100 100 90 90 95 100 100 100 100 100 100 100 100 100 100 100 100 100
64 17 5 7 30 5 5 11 29 17 37 99 100 100 100 89 76 98 100 100 100 91 75 57 88 100 100 99 100 100 96 100 100 100 100 100 100 100 100 100 100 100 100 92
6 5 8 5 5 51 69 12 5 65 33 38 90 100 5 94 54 100 100 100 100 100 99 87 94 73 100 100 100 100 100 100 100 100 100 100 100 100 100 100 100 100 96 92
82 45 10 6 36 24 80 79 88 96 93 24 99 34 100 35 75 100 100 100 100 99 91 76 89 100 100 100 100 100 100 100 100 100 100 100 100 100 100 100 100 100 100 74
100 95 39 100 14 22 12 100 93 5 62 6 20 15 99 5 96 100 100 100 91 89 76 73 100 100 100 100 100 100 100 100 100 100 100 100 100 100 100 100 100 100 100 59
95 100 34 100 20 49 10 100 100 32 5 48 4 37 6 69 100 100 100 100 12 41 95 98 100 100 100 100 100 100 100 100 100 100 99 96 100 100 100 100 100 100 100 89
100 100 99 87 9 46 71 59 95 36 5 6 6 45 100 100 100 100 76 10 29 100 70 100 99 100 100 100 100 90 99 100 100 100 100 100 100 100 100 100 100 100 49 5
100 100 100 100 47 59 61 97 100 89 25 78 97 80 90 99 100 100 84 55 93 36 100 85 99 100 100 100 100 97 100 100 100 100 100 100 100 100 100 100 100 100 29 5
99 100 100 100 100 86 68 7 14 31 100 7 19 73 60 24 59 100 96 71 97 96 49 97 96 100 100 100 100 100 100 100 100 100 100 100 100 100 100 100 100 32 5 1
6 97 100 100 69 58 61 86 89 5 5 8 22 72 100 89 13 98 100 100 100 79 100 91 100 100 100 100 100 100 100 100 100 98 100 100 100 100 100 100 56 5 0 2
100 100 100 100 100 100 99 98 45 5 14 87 67 76 95 100 100 100 100 100 98 99 99 98 97 99 100 100 80 100 96 100 100 100 100 100 100 100 100 75 6 0 5 5
89 97 100 100 100 100 100 88 5 32 63 55 100 100 100 100 100 100 100 96 99 100 100 98 100 100 96 76 98 95 100 100 100 100 100 100 100 99 65 3 0 0 5 5
100 100 100 100 100 85 97 85 100 100 24 85 100 100 100 100 100 100 100 100 100 100 100 100 100 100 100 100 100 96 100 93 100 100 100 100 100 47 4 0 0 5 25 79
89 97 100 100 60 78 93 100 98 47 89 75 100 100 99 96 100 93 76 100 100 100 100 99 100 100 100 100 100 94 100 100 100 100 100 95 54 5 0 0 5 5 61 100
97 100 96 95 79 69 85 47 89 100 100 86 96 100 100 99 100 100 100 100 100 100 100 100 100 100 100 100 100 100 100 100 100 100 82 16 5 1 0 5 5 26 100 100
100 100 100 80 52 85 36 100 100 100 100 100 100 100 100 100 100 100 100 100 85 100 100 100 100 100 100 96 100 100 100 100 100 95 22 5 5 5 5 10 67 82 100 100
100 100 100 100 100 100 100 100 100 100 100 100 100 100 100 100 96 86 86 73 100 100 100 100 100 100 100 100 100 100 100 100 100 58 55 44 5 5 38 69 76 99 98 24

GFSCGP_prec_cloud_006.txt.gz
Cloud_Cover
0 0 0 0 0 0 0 0 0 0 0 0 0 0 0 0 1 5 5 5 5 5 5 5 5 5 5 5 5 5 12 36 61 33 38 5 5 5 12 26 5 5 20 99
0 0 0 0 0 0 0 0 0 0 0 0 0 0 0 2 5 5 48 29 5 14 35 34 30 100 97 86 100 61 44 87 100 100 100 100 100 100 63 26 10 58 5 38
0 0 0 0 0 0 0 0 0 0 0 0 0 3 5 2 2 5 20 43 91 100 100 100 100 82 100 100 100 100 100 100 98 100 100 63 75 100 100 100 87 5 5 5
0 0 0 0 0 0 0 0 0 0 1 5 1 0 0 0 0 2 50 30 88 15 35 12 100 100 100 100 100 100 100 100 100 50 100 100 100 99 100 100 100 37 37 50
0 0 0 0 0 0 0 0 0 0 0 0 0 1 0 5 0 5 6 50 100 100 100 100 100 100 100 100 100 100 100 100 100 91 84 100 100 100 100 100 100 100 100 100
0 0 0 0 2 1 0 5 5 5 4 15 0 1 0 15 18 5 6 94 100 100 100 100 100 100 100 100 91 88 24 100 100 76 100 100 100 100 100 100 100 100 100 100
3 0 0 5 5 5 5 2 5 5 43 64 80 9 3 1 3 5 8 99 100 100 100 100 100 100 100 97 85 18 17 100 100 100 100 100 100 100 100 100 100 100 100 100
5 5 2 5 5 5 5 5 9 99 100 100 100 77 93 41 89 6 9 59 100 100 100 100 70 100 100 100 97 9 5 7 46 100 100 100 100 100 100 100 100 100 100 100
5 5 14 2 6 21 5 32 5 5 44 58 99 98 100 92 88 96 52 26 99 100 64 9 84 83 78 48 56 60 84 53 100 100 100 100 100 100 100 100 100 100 100 100
73 9 5 7 3 10 5 5 5 29 45 62 10 57 100 21 81 86 86 100 16 18 16 93 43 31 24 6 5 5 33 100 100 100 100 100 100 100 100 100 100 100 100 100
71 58 10 7 40 15 5 2 50 100 98 99 78 100 9 8 6 28 55 45 10 61 32 80 96 95 5 5 5 55 80 100 100 100 100 100 100 100 100 100 99 100 100 100
63 20 5 4 1 5 7 11 80 100 75 93 58 97 3 34 99 88 100 96 100 100 88 95 45 16 100 7 85 91 35 100 100 100 100 100 100 100 100 100 100 100 100 100
95 64 34 17 5 28 50 6 3 5 72 92 100 20 5 8 8 98 100 66 100 92 100 100 70 28 100 83 94 86 86 96 100 100 99 100 100 100 100 87 95 100 100 100
69 82 19 19 8 87 98 5 5 2 5 6 51 3 28 18 40 89 100 32 57 73 100 100 66 42 10 72 87 100 94 94 100 100 100 98 100 100 100 89 89 100 100 100
7 68 12 6 6 46 26 5 6 5 27 44 42 5 5 68 100 98 98 83 51 100 100 100 85 20 75 86 97 100 94 99 87 91 86 86 93 42 98 100 98 100 100 100
100 58 79 100 66 89 78 14 71 8 5 100 87 43 100 98 100 83 36 41 10 63 65 64 48 100 97 100 100 100 77 88 96 78 85 98 100 100 100 100 100 100 100 100
70 98 100 100 100 100 85 57 100 100 100 92 39 12 5 16 18 5 60 91 6 97 33 92 79 95 77 76 84 100 100 94 100 100 100 100 100 100 100 100 100 100 100 100
75 100 100 100 100 99 67 74 64 7 13 5 52 5 73 9 6 9 91 8 8 50 86 18 73 77 100 100 100 100 90 100 100 100 100 100 100 100 100 100 100 100 100 100
95 75 100 100 50 48 82 97 69 51 5 37 91 52 100 82 6 40 86 72 100 96 99 94 82 51 16 71 50 100 100 100 100 100 100 100 100 100 100 100 100 100 95 6
48 78 78 100 96 97 100 10 7 78 52 100 100 91 100 86 100 100 78 85 74 80 100 100 100 100 100 100 100 100 60 77 92 100 100 100 100 100 100 100 100 76 4 0
84 99 99 100 100 100 53 55 88 100 100 90 94 100 100 99 100 100 100 100 100 100 100 100 100 100 100 100 99 96 96 89 97 63 97 100 100 100 100 100 40 5 1 0
92 100 74 100 99 74 99 100 100 99 100 100 100 100 100 100 100 100 100 100 98 98 100 100 97 72 100 97 94 100 100 93 91 100 97 100 100 100 100 27 7 0 2 8
94 100 60 30 30 5 7 100 100 100 99 50 100 94 100 100 88 76 94 100 100 100 100 96 100 100 100 100 100 100 100 100 98 100 100 100 100 79 39 5 0 5 5 5
100 100 99 62 92 64 98 86 92 99 93 98 100 86 36 100 90 93 37 76 87 82 76 100 100 100 100 96 99 100 100 100 100 100 100 100 88 62 22 2 5 5 10 8
100 100 73 42 5 10 18 24 100 100 100 100 97 10 69 100 100 97 84 46 38 100 89 93 99 100 100 94 100 84 100 100 100 100 97 57 54 5 4 5 40 78 85 54
100 98 100 18 19 80 4 5 77 87 100 88 72 98 84 100 97 43 6 10 100 92 100 99 100 100 100 100 80 99 100 100 100 93 10 6 5 5 30 10 5 22 5 82

GFSCGP_prec_cloud_009.txt.gz
Cloud_Cover
0 0 0 0 0 0 0 0 0 0 0 0 0 0 0 0 0 0 0 37 100 100 100 100 100 100 100 100 100 22 5 56 92 90 100 53 72 98 5 5 87 100 94 15
0 0 0 0 0 0 0 0 0 0 0 0 0 0 0 0 0 5 5 4 2 36 86 86 8 46 16 5 5 5 6 5 5 9 38 50 24 57 100 100 98 5 28 69
0 0 0 0 0 0 0 0 0 0 0 0 0 0 0 0 0 0 0 1 48 100 49 100 44 5 31 94 90 64 5 5 5 5 28 18 5 68 100 100 14 37 99 84
0 0 0 0 0 0 0 0 0 0 0 1 4 0 0 1 0 1 17 7 78 100 100 100 100 100 40 65 60 49 21 5 6 5 5 5 5 6 36 100 99 100 100 100
0 0 0 0 0 0 0 0 0 0 0 5 0 0 0 0 1 2 85 7 41 100 99 100 100 100 99 26 100 96 89 100 94 68 5 5 5 38 100 100 100 100 99 100
0 0 0 0 0 0 0 0 0 0 1 0 3 32 23 0 3 4 31 54 5 5 6 88 100 100 100 100 100 100 100 98 98 96 92 66 84 100 100 100 98 83 80 96
0 0 0 1 0 0 0 2 0 0 3 85 5 66 88 1 30 97 92 27 5 5 7 33 57 99 100 100 100 67 100 100 58 6 19 25 84 95 100 100 100 100 100 100
2 5 0 0 0 0 0 0 4 3 9 100 43 92 100 4 65 8 54 44 5 5 5 19 48 85 85 14 6 15 74 68 59 5 5 5 5 5 45 100 100 100 100 100
0 5 5 1 5 1 5 1 1 5 2 5 69 95 100 4 5 95 25 38 80 6 73 96 100 99 97 5 5 82 64 32 5 5 5 42 74 99 94 98 100 100 100 100
4 5 22 7 5 5 5 5 3 19 32 59 5 38 3 5 0 68 97 83 29 76 60 35 41 23 20 36 6 78 91 5 5 12 96 100 100 100 100 100 99 100 100 100
5 5 5 5 5 11 25 12 91 99 100 100 100 93 37 39 5 5 74 98 57 46 83 59 50 95 71 68 100 56 60 29 5 100 100 100 100 100 100 100 100 100 100 100
5 16 46 5 5 5 5 15 9 63 54 25 94 100 100 5 5 5 94 25 76 94 97 88 87 83 88 78 88 81 98 100 100 100 100 100 100 100 100 100 100 100 100 100
5 5 66 5 5 24 50 14 5 5 5 7 56 13 6 5 5 90 98 34 100 100 100 100 100 100 79 16 35 100 100 100 100 100 95 100 100 100 100 100 100 100 100 100
5 5 14 64 64 62 100 89 5 5 27 33 89 22 16 7 98 89 27 92 61 71 94 100 100 94 94 100 100 91 100 100 100 77 92 96 100 100 99 98 57 93 98 92
50 70 52 41 35 79 100 94 89 93 99 11 16 8 30 68 99 100 100 92 70 100 100 100 100 100 100 99 100 100 100 100 88 96 100 63 54 9 7 69 82 98 98 72
99 100 68 100 100 51 98 100 96 5 5 7 9 74 100 86 100 66 91 100 100 100 100 99 68 10 13 69 61 97 98 30 56 100 100 100 100 95 100 100 100 100 100 84
6 17 52 74 66 73 99 100 100 100 100 75 57 47 70 38 76 53 43 98 88 73 52 81 52 68 43 60 94 13 51 91 33 100 100 100 100 100 100 100 100 100 100 100
8 27 70 93 100 100 8 2 2 5 5 36 5 5 26 21 32 100 100 97 91 12 5 5 8 39 64 45 9 24 12 96 100 100 98 100 100 100 100 100 100 100 100 100
5 93 84 88 100 48 10 4 5 28 82 24 62 5 100 88 31 8 12 92 89 99 5 10 5 14 8 58 50 31 60 80 69 13 75 59 74 100 100 100 100 100 100 100
100 66 58 100 91 87 84 5 6 8 84 86 100 82 36 100 100 43 100 73 37 72 82 30 5 5 29 100 32 100 100 88 59 100 100 100 83 91 100 100 100 86 82 88
93 99 100 100 82 91 16 64 5 5 35 30 98 100 89 100 98 99 100 53 22 71 100 96 30 93 97 61 87 100 81 66 100 100 97 100 99 99 100 99 30 42 59 5
16 76 89 77 96 63 18 12 18 7 9 96 6 75 95 94 93 100 100 82 38 52 70 100 29 29 89 76 98 100 94 89 99 100 95 100 100 100 100 92 51 8 4 5
90 100 65 29 5 5 44 92 5 94 97 33 85 100 100 100 100 100 100 99 19 95 13 5 8 74 100 100 100 100 100 100 100 100 100 100 100 100 100 31 5 5 5 5
100 100 64 31 6 5 8 8 40 10 31 79 100 100 100 100 100 100 100 99 100 97 76 57 94 57 72 94 99 100 100 100 100 100 100 100 100 100 34 5 5 5 49 96
100 100 83 54 29 9 5 5 47 45 97 100 94 69 50 100 100 100 99 100 100 100 51 68 46 94 97 96 97 72 100 100 100 100 100 100 100 10 5 5 5 5 10 39
100 100 100 57 5 74 6 94 100 100 100 100 99 100 100 90 100 100 100 99 95 98 100 100 100 100 100 100 81 84 98 100 100 100 97 74 8 5 5 5 5 5 24 89

GFSCGP_prec_cloud_012.txt.gz
Cloud_Cover
0 0 0 0 0 0 0 0 0 0 0 0 0 0 0 0 0 0 4 0 0 81 100 100 100 100 60 5 5 5 5 5 5 5 5 5 5 5 5 5 5 5 5 5
0 0 0 0 0 0 0 0 0 0 0 0 0 0 0 0 0 0 0 0 0 18 44 0 2 72 16 5 6 5 5 5 6 52 8 42 69 27 8 5 5 29 18 5
0 0 0 0 0 0 0 0 0 0 0 0 0 0 0 0 0 0 0 0 0 0 4 2 0 0 2 4 16 14 15 5 12 55 29 8 16 18 9 5 5 16 32 14
0 0 0 0 0 0 0 0 0 0 0 0 0 0 0 0 1 4 95 59 12 5 5 43 64 5 5 9 55 19 76 83 58 11 6 5 5 5 5 5 5 5 5 5
0 0 0 0 0 0 0 0 0 0 0 0 0 0 1 0 0 0 1 77 27 6 11 83 12 5 5 5 5 7 68 85 100 100 100 100 76 84 28 32 5 5 5 5
0 0 0 0 0 0 0 0 0 0 0 0 0 0 5 5 2 6 6 5 64 99 28 6 5 22 19 8 85 83 100 100 100 100 100 100 100 100 81 10 5 5 5 22
0 0 0 0 0 0 0 0 0 0 3 0 3 0 0 4 17 14 30 98 100 49 82 39 7 6 68 100 93 97 100 100 100 84 90 89 45 18 6 5 5 8 76 91
0 0 0 0 0 0 0 0 0 0 5 3 0 0 0 0 0 5 7 65 90 29 8 42 9 5 5 38 31 82 100 74 81 98 100 84 6 5 5 5 9 5 15 93
0 0 0 0 0 1 5 5 4 1 5 5 5 7 20 2 3 96 100 67 56 56 5 84 96 7 96 58 89 100 75 21 85 25 5 5 56 100 100 98 69 86 94 100
0 0 0 0 0 1 5 5 5 5 5 55 24 100 94 5 4 42 78 88 100 66 92 54 69 46 8 27 39 34 44 26 45 5 5 6 16 80 72 15 41 48 97 100
0 0 4 5 5 5 13 6 16 47 64 95 86 100 0 3 5 57 11 5 5 5 76 40 93 84 53 37 39 98 71 44 54 90 100 98 25 6 5 5 40 31 92 100
5 5 5 5 5 5 62 99 37 89 86 82 84 100 39 3 72 11 5 5 24 84 50 28 5 12 98 100 99 58 62 100 60 61 6 1 5 5 5 5 82 93 89 95
5 5 5 5 5 5 43 14 5 10 10 98 89 12 0 6 13 5 5 7 60 80 42 82 100 100 100 85 90 72 16 9 5 5 5 5 5 16 7 66 94 100 100 100
5 5 63 88 5 5 84 24 8 5 18 21 22 8 5 7 5 44 88 73 83 97 100 100 31 49 99 36 5 4 6 4 6 5 8 18 5 88 49 71 86 96 92 100
5 5 5 7 6 5 82 5 5 5 6 43 5 5 39 44 26 54 81 70 100 100 81 33 68 67 96 11 5 5 4 41 92 5 24 87 88 99 100 100 90 97 98 100
75 99 7 98 5 5 42 5 6 6 21 9 82 100 89 100 97 100 94 99 21 100 100 100 99 44 8 72 36 29 6 11 5 51 100 100 100 100 100 100 100 100 100 100
3 5 52 76 32 22 100 90 94 84 98 56 69 41 7 14 67 100 95 69 18 28 60 68 8 5 5 5 5 5 5 13 9 100 100 100 100 100 100 100 100 100 100 100
39 52 65 68 100 86 99 5 5 5 5 5 5 5 7 20 86 98 71 99 50 41 25 5 30 32 25 21 8 5 100 48 5 32 21 10 5 85 100 100 100 100 100 100
5 84 93 54 91 49 98 5 6 37 6 35 60 5 5 5 5 17 99 99 100 100 96 94 100 100 100 90 82 58 87 98 90 100 27 48 94 82 100 100 100 100 100 100
100 91 64 91 89 98 5 4 5 5 8 5 1 5 5 12 71 71 100 100 100 100 100 100 99 87 100 100 36 100 100 100 91 13 63 79 97 97 74 68 90 100 100 86
100 95 64 97 74 7 5 5 20 48 46 24 5 25 19 84 100 96 100 89 99 100 100 100 100 95 100 30 100 93 96 100 91 83 98 100 100 100 100 100 100 100 62 38
29 88 62 73 98 68 43 100 100 80 56 75 5 67 100 100 99 100 100 98 65 65 50 38 34 12 43 100 100 100 100 100 97 100 100 100 100 100 100 100 100 75 58 25
96 100 94 6 8 6 100 96 33 78 75 5 21 43 55 100 100 78 74 41 86 99 87 96 83 97 99 65 66 66 100 96 85 91 100 100 100 100 100 100 100 66 9 5
100 100 100 89 53 5 63 92 78 72 43 100 100 100 100 100 100 100 100 100 100 100 100 94 97 100 98 99 98 100 100 100 90 93 96 100 100 100 100 92 27 5 5 5
100 100 100 56 39 11 30 90 97 100 100 100 100 100 96 80 49 100 99 100 98 97 53 100 86 93 100 100 97 99 100 100 100 100 100 100 98 74 28 5 5 5 5 44
100 96 90 49 89 99 42 100 100 100 100 100 100 100 100 100 100 100 99 88 99 100 98 98 99 100 99 99 100 100 100 100 89 95 88 84 24 5 5 5 5 5 5 5

GFSCGP_prec_cloud_015.txt.gz
Cloud_Cover
0 0 0 0 0 0 0 0 0 0 0 0 0 0 0 0 0 0 0 0 0 0 1 5 5 0 0 0 0 0 0 5 5 5 5 5 5 72 71 30 78 37 26 5
0 0 0 0 0 0 0 0 0 0 0 0 0 0 0 0 0 0 0 0 0 0 0 0 1 1 3 0 4 0 0 2 5 5 5 4 5 5 5 4 8 46 58 58
0 0 0 0 0 0 0 0 0 0 0 0 0 0 0 0 0 0 0 0 2 4 4 2 5 4 1 0 2 3 5 3 4 5 5 20 5 0 0 4 2 3 2 5
0 0 0 0 0 0 0 0 0 0 0 0 0 0 5 0 0 1 0 0 0 0 0 15 5 5 5 5 5 61 95 100 100 100 100 100 100 100 100 100 100 92 53 76
0 0 0 0 0 0 0 0 0 0 0 0 0 0 0 4 0 2 9 32 42 57 86 84 6 6 30 82 100 100 98 100 100 100 100 98 99 100 100 99 92 16 18 5
0 0 0 0 0 0 0 0 0 0 0 0 0 0 0 0 46 100 99 97 100 100 25 20 18 100 100 100 100 82 25 23 6 28 40 45 5 24 7 5 5 16 8 4
0 0 0 0 0 0 0 0 2 0 3 0 5 0 0 0 5 95 98 43 86 95 73 76 66 39 86 86 36 5 5 5 5 5 6 44 26 10 12 0 4 4 0 0
0 0 0 0 0 0 0 0 3 0 5 7 5 5 5 4 3 6 92 67 5 5 66 62 5 42 8 5 5 5 5 16 16 12 12 20 14 13 5 5 0 0 0 0
0 0 0 0 0 0 0 0 0 0 5 13 96 60 5 0 3 3 0 2 5 5 5 5 5 5 5 5 5 4 5 5 5 1 2 27 60 25 4 0 0 0 0 0
0 0 0 0 0 0 0 0 0 5 22 98 86 100 76 1 3 24 92 26 56 9 13 8 42 5 5 5 5 5 5 6 25 12 20 5 5 0 0 0 0 0 4 5
0 0 0 0 4 5 5 3 5 5 8 23 58 75 5 29 5 13 5 11 10 5 3 5 5 5 5 11 51 51 5 9 70 73 5 5 2 4 0 2 4 5 5 5
0 0 2 5 5 32 12 5 5 76 50 8 19 26 5 2 5 3 5 5 0 3 5 5 5 40 84 56 98 87 97 100 100 55 5 10 42 3 0 5 5 69 94 98
0 0 4 5 5 5 4 0 4 5 5 99 85 31 0 5 18 28 6 6 33 52 84 67 96 100 97 98 99 97 98 100 83 8 5 5 4 5 24 61 89 100 100 100
0 0 0 3 0 2 3 0 2 5 84 59 32 88 5 10 36 12 5 71 98 94 98 100 100 67 11 21 33 54 100 76 78 96 75 89 98 86 100 100 100 89 100 100
5 4 5 6 5 14 7 5 5 5 5 97 9 5 5 6 15 67 76 87 94 95 33 7 31 60 79 6 10 90 73 12 48 100 100 100 100 100 100 98 100 100 100 100
5 5 5 5 5 5 6 5 5 5 5 5 22 44 73 81 19 89 100 100 78 71 88 84 100 78 38 9 82 54 80 99 8 73 79 100 100 100 100 100 100 100 100 100
1 5 56 27 40 33 97 47 5 28 37 42 77 12 5 6 21 5 5 5 5 10 65 95 100 100 100 100 100 100 100 98 7 65 19 13 81 61 100 100 100 100 100 100
40 38 82 41 95 98 100 36 96 62 95 5 5 5 5 5 5 5 5 5 49 99 100 100 94 54 100 100 60 97 100 76 68 80 94 100 98 100 100 100 100 100 100 100
5 45 86 95 94 99 96 5 5 5 96 5 5 38 28 5 5 5 52 95 100 74 43 100 77 100 100 87 50 63 94 99 100 100 96 89 57 79 100 100 100 100 100 100
25 7 29 85 97 98 9 5 5 5 5 8 29 57 84 66 32 36 62 88 100 99 91 89 98 24 70 77 30 93 75 77 100 98 100 100 88 100 100 100 100 100 100 100
100 100 100 98 100 46 8 5 5 24 74 86 89 100 76 99 96 100 95 90 100 100 100 100 88 53 5 49 100 99 100 100 99 84 99 100 92 76 90 94 100 100 100 94
100 91 96 99 100 48 23 59 79 78 99 98 86 13 81 100 69 90 100 99 96 97 84 23 45 36 69 100 99 99 50 81 89 100 90 68 76 85 80 100 100 74 24 33
97 100 47 92 66 96 100 100 86 98 96 7 90 99 100 100 83 100 100 99 100 100 8 66 99 100 100 95 100 100 100 99 100 96 88 91 68 61 98 59 5 5 5 6
100 100 89 96 74 100 66 61 100 99 100 99 100 98 100 100 100 100 100 100 35 92 76 71 95 68 22 98 100 100 94 100 100 100 100 100 100 89 17 5 5 5 5 27
100 100 91 100 66 38 82 100 100 100 100 100 99 100 100 100 100 100 100 88 37 100 93 73 60 9 60 56 53 46 66 91 90 100 97 49 5 5 5 5 5 5 5 60
100 99 88 99 69 100 100 100 100 100 100 100 100 100 100 100 100 100 100 100 81 99 100 98 5 5 5 5 5 5 12 72 58 10 5 6 11 12 12 6 5 69 22 5

GFSCGP_prec_cloud_018.txt.gz
Cloud_Cover
0 0 0 0 0 0 0 0 0 0 0 0 0 0 0 0 0 0 0 0 0 0 0 0 0 0 0 0 0 0 3 5 5 5 11 12 5 5 5 2 0 0 0 4
0 0 0 0 0 0 0 0 0 0 0 0 0 0 0 0 0 0 0 0 0 0 1 1 0 0 0 0 2 2 5 58 63 62 72 5 5 5 14 63 45 16 2 3
0 0 0 0 0 0 0 0 0 0 0 0 0 0 0 0 0 0 5 18 5 5 1 1 4 0 0 4 5 5 5 26 82 21 68 83 99 65 6 5 30 98 31 8
0 0 0 0 0 0 0 0 0 0 0 0 0 0 0 0 0 0 0 8 70 80 5 0 2 3 3 3 5 5 6 80 91 87 10 5 5 5 5 5 5 5 4 0
0 0 0 0 0 0 0 0 0 0 0 0 0 0 0 0 0 5 14 12 58 10 5 3 6 9 5 6 31 89 100 81 5 5 36 44 5 5 4 0 0 0 0 0
0 0 0 0 0 0 0 0 0 0 0 0 0 0 3 0 5 70 75 18 5 5 5 11 79 76 31 33 88 17 7 5 36 57 38 66 5 5 0 2 0 0 0 0
1 0 0 0 0 0 0 0 1 0 4 4 0 1 0 0 0 4 5 1 2 5 54 30 5 96 93 70 90 86 88 89 100 100 100 100 93 5 5 5 5 5 2 0
0 0 0 0 0 0 0 0 4 0 5 3 0 4 0 0 0 2 2 5 5 5 3 5 9 10 73 100 100 94 96 100 100 93 77 53 5 16 55 69 26 5 5 5
0 0 0 0 0 0 0 0 0 0 3 4 4 4 0 0 0 0 0 4 5 0 0 5 5 31 100 100 100 100 100 100 100 43 12 33 86 100 100 100 80 49 5 19
0 0 0 0 0 0 0 0 0 1 4 5 2 5 0 1 2 2 4 1 2 5 20 20 19 9 5 33 82 100 100 54 5 5 10 21 75 92 100 100 71 96 100 99
0 0 0 0 0 0 0 3 5 2 4 25 60 38 2 5 19 17 60 27 16 52 18 47 17 5 5 5 37 5 37 33 49 64 13 50 14 5 5 5 5 7 51 80
0 0 0 0 0 0 0 5 5 3 5 5 56 47 5 5 36 28 70 50 56 70 62 19 5 5 15 5 5 5 10 6 79 65 5 75 100 82 5 65 100 100 96 84
0 0 3 0 0 0 5 4 5 5 10 53 88 93 46 99 100 88 69 44 20 8 26 20 73 88 36 5 6 54 56 70 17 53 97 79 24 36 73 59 99 99 75 89
0 0 0 0 0 5 5 10 46 70 94 100 100 100 21 14 26 36 26 50 44 85 53 5 22 19 71 100 99 100 99 66 58 92 87 82 60 96 100 100 100 100 100 100
0 0 4 4 5 14 46 5 5 18 6 92 31 11 55 30 37 45 46 52 23 19 89 100 79 99 97 97 100 100 100 28 6 64 98 99 98 96 100 100 84 100 100 100
1 5 5 5 5 5 91 5 5 5 5 5 6 5 5 5 15 9 5 78 100 100 99 51 100 94 55 82 70 77 54 48 5 66 74 96 50 93 5 62 100 100 100 100
5 5 13 48 10 31 19 5 5 5 6 5 5 5 5 5 5 38 100 97 52 21 65 98 44 41 95 100 100 97 100 99 6 73 59 100 90 100 100 95 94 63 88 100
74 11 83 87 18 93 100 6 5 5 17 5 5 5 5 14 72 87 16 49 77 83 67 49 75 54 55 63 99 100 97 17 8 55 96 100 100 100 99 97 99 100 100 100
5 63 70 100 94 24 94 54 5 5 79 5 5 12 46 78 37 86 98 65 100 78 86 95 100 100 94 53 70 89 94 98 94 69 11 59 71 82 100 100 100 100 100 100
30 7 51 95 100 100 98 5 5 5 5 37 70 99 100 47 95 64 100 100 100 75 74 100 100 98 62 17 37 74 89 41 61 65 78 62 37 30 31 41 64 81 86 76
100 100 100 100 100 56 22 7 93 100 100 100 88 99 100 99 100 100 100 100 100 87 100 98 100 100 63 43 98 100 56 100 92 82 99 81 88 99 87 76 32 10 44 31
8 82 46 69 100 64 6 97 81 100 67 68 19 99 74 100 100 100 100 100 100 100 99 100 100 99 98 99 74 74 89 100 96 89 100 100 99 38 6 5 5 5 5 5
38 97 90 75 18 48 49 66 99 100 84 99 100 98 100 100 100 100 99 100 100 100 100 82 44 100 100 94 85 3 5 10 44 83 92 65 6 5 5 5 5 5 5 31
87 100 63 96 100 100 100 100 95 43 94 100 100 100 100 100 100 100 100 80 100 99 44 100 100 100 100 47 4 1 5 5 5 8 5 5 5 5 5 5 5 5 15 67
100 100 94 62 79 52 100 76 78 100 100 100 100 100 100 100 100 100 98 90 97 100 100 100 100 59 5 5 5 5 5 5 5 5 5 5 5 5 5 28 14 5 5 68
100 96 85 61 86 100 95 100 100 100 100 100 100 100 100 100 85 85 92 100 100 100 100 100 100 100 5 5 5 5 5 5 5 5 5 7 9 17 58 33 5 15 9 5

GFSCGP_prec_cloud_021.txt.gz
Cloud_Cover
0 0 0 0 0 0 0 0 0 0 0 0 0 0 0 0 0 0 0 0 0 0 0 0 0 0 0 0 0 0 5 5 5 5 5 5 5 5 5 4 1 5 5 5
0 0 0 0 0 0 0 0 0 0 0 0 0 0 0 0 0 0 0 0 0 0 0 0 0 0 0 1 5 5 5 5 5 5 5 5 5 5 5 5 5 5 5 5
0 0 0 0 0 0 0 0 0 0 0 0 0 0 0 0 0 0 0 0 0 0 0 0 0 0 0 0 4 5 5 5 5 5 5 5 5 5 16 5 9 5 5 2
0 0 0 0 0 0 0 0 0 0 0 0 0 0 0 0 0 0 0 0 0 0 0 3 2 0 0 5 5 22 12 24 77 50 17 12 8 45 5 5 5 3 5 5
0 0 0 0 0 0 0 0 0 0 0 0 0 0 0 0 0 5 5 5 5 5 5 5 5 5 5 5 7 56 94 48 52 5 5 6 8 5 15 8 5 5 5 5
1 3 0 0 0 0 0 0 0 0 0 0 0 0 0 0 4 5 5 5 5 7 5 5 5 5 18 63 96 89 72 18 18 14 13 5 49 100 43 31 47 5 43 26
0 0 0 0 0 0 0 0 0 0 0 0 0 0 0 0 1 0 1 1 5 5 33 98 44 77 57 80 81 82 72 94 100 98 100 100 96 75 28 56 27 7 5 5
0 0 0 0 0 0 0 0 0 0 5 0 4 2 0 0 0 0 4 5 5 5 5 11 5 7 17 11 24 21 100 78 85 97 100 56 79 100 100 100 100 5 5 5
0 0 0 0 0 0 0 0 0 0 4 3 0 0 0 0 0 0 0 1 4 5 5 5 5 5 6 33 99 100 63 45 27 5 46 58 61 19 28 5 99 99 39 5
0 0 0 0 0 0 0 0 0 0 1 3 2 2 0 2 5 5 5 5 5 5 29 54 80 64 92 100 62 25 5 5 5 5 10 5 5 6 60 81 82 53 71 30
0 0 0 0 0 0 0 3 4 3 5 6 66 62 3 5 5 5 5 5 5 5 72 100 88 53 33 26 22 5 5 5 61 80 24 8 15 9 5 25 18 100 87 94
0 0 0 0 0 0 0 5 5 5 5 5 25 44 33 5 12 5 5 25 72 99 100 86 24 5 5 5 7 86 77 97 100 5 100 100 96 74 5 68 100 100 92 100
0 0 0 0 0 0 0 0 5 5 9 59 72 53 8 16 94 96 100 100 100 87 36 19 9 14 8 80 79 37 95 100 98 100 100 100 98 36 28 21 39 100 97 100
0 0 0 0 0 5 1 4 5 5 54 18 17 95 12 98 57 74 95 60 7 34 31 26 66 55 70 100 100 100 100 100 100 100 92 99 41 38 51 100 100 91 74 100
5 4 3 5 5 5 5 4 5 5 5 17 7 55 47 91 94 79 9 30 64 96 89 56 100 100 100 100 98 100 100 100 100 100 100 28 99 77 47 46 81 96 100 27
1 4 5 5 5 5 5 0 5 4 4 5 5 6 5 5 6 5 5 38 92 93 100 100 97 99 94 19 100 100 100 100 100 81 24 54 100 100 100 100 66 81 94 75
5 5 29 89 27 5 29 2 5 5 5 5 5 5 5 5 12 66 93 64 34 98 100 97 97 78 97 100 100 100 100 100 94 74 30 38 34 56 50 46 87 61 23 5
94 57 84 92 20 7 99 0 4 5 5 22 14 63 33 5 26 87 17 81 58 100 100 95 87 100 100 100 100 96 31 17 5 5 5 8 5 31 5 5 5 5 5 5
5 93 80 92 94 7 25 5 4 5 52 99 98 99 76 78 40 100 100 99 100 100 100 98 100 100 100 97 25 26 100 96 64 22 28 5 60 100 96 99 99 32 5 5
12 6 18 96 100 79 5 5 5 5 5 28 100 35 98 100 100 62 100 100 100 100 100 100 100 100 100 100 77 5 5 13 90 100 100 70 93 100 100 60 2 5 5 5
100 99 100 100 100 27 5 13 53 94 100 100 100 100 100 92 85 100 100 100 100 100 100 97 100 100 81 100 100 55 60 22 6 17 62 40 26 38 5 3 5 5 5 5
28 15 91 98 99 57 9 91 100 99 100 83 100 100 96 90 100 100 100 100 100 93 96 87 97 100 100 100 99 99 73 5 5 3 5 5 5 4 2 5 5 5 5 60
97 27 85 98 35 20 98 100 52 86 59 81 98 100 100 100 100 99 85 100 100 99 100 100 100 100 100 100 100 91 5 5 5 5 5 5 5 5 5 5 5 58 83 99
100 66 73 96 96 13 35 47 47 75 100 100 100 100 100 74 99 86 100 100 100 100 100 100 100 100 100 100 100 95 90 6 5 5 5 5 5 5 11 65 82 98 100 99
83 69 87 27 67 72 100 100 100 100 100 100 100 100 99 100 100 97 94 100 100 100 100 100 100 100 98 20 41 100 100 50 5 25 5 5 5 5 33 21 37 93 99 90
100 70 64 86 74 99 100 100 100 100 100 100 100 93 100 51 27 35 44 100 100 100 100 100 100 38 5 8 96 100 100 69 40 93 5 5 5 5 6 30 87 20 6 5

GFSCGP_prec_cloud_024.txt.gz
Cloud_Cover
0 0 0 0 0 0 0 0 0 0 0 0 0 0 0 0 0 0 0 0 0 0 0 0 0 0 0 0 0 0 4 0 5 5 5 5 5 5 5 5 5 2 0 5
0 0 0 0 0 0 0 0 0 0 0 0 0 0 0 0 0 0 0 0 0 0 0 0 0 0 0 0 0 0 3 5 5 38 11 5 5 5 5 5 6 7 6 24
0 0 0 0 0 0 0 0 0 0 0 0 0 0 0 0 0 0 0 0 0 0 0 0 0 4 0 0 2 5 5 5 70 33 5 5 8 8 14 62 57 8 57 72
0 0 0 0 0 0 0 0 0 0 0 0 0 0 0 0 0 0 0 4 2 0 5 2 0 0 3 5 5 6 9 5 5 5 5 63 86 73 11 8 11 98 96 42
0 0 0 0 0 0 0 0 0 0 0 0 0 0 0 0 0 0 5 5 0 5 5 5 5 5 9 6 46 69 98 76 100 100 60 38 76 100 96 84 41 77 50 33
0 0 0 0 0 0 0 0 0 0 0 0 0 0 4 0 0 5 5 0 0 5 5 5 5 60 54 32 50 100 100 99 100 100 94 68 24 5 5 5 5 15 13 5
0 0 0 0 0 0 0 0 0 0 1 1 0 0 0 0 0 4 1 2 2 5 5 5 5 5 5 55 41 65 78 60 20 46 28 5 5 9 45 20 5 14 92 100
0 0 0 0 0 0 0 0 0 0 0 0 0 0 2 0 0 5 5 0 2 5 5 5 5 5 22 13 5 13 8 5 48 53 7 13 9 10 12 65 98 100 100 100
0 0 0 0 0 0 0 3 0 0 0 0 0 0 0 3 5 5 5 5 0 5 5 5 9 58 8 9 72 5 5 5 8 19 6 5 29 97 99 100 100 100 46 65
0 0 0 0 0 0 0 0 4 2 44 0 0 2 0 3 0 5 5 5 5 4 5 5 5 11 36 15 5 5 5 27 35 10 9 42 56 33 96 100 98 59 73 73
0 0 0 0 0 0 4 4 1 1 2 5 4 1 0 2 3 5 1 0 6 55 19 20 72 33 64 82 46 5 26 41 60 94 85 23 62 83 100 98 91 92 99 100
0 0 0 0 0 0 0 0 0 5 6 5 5 30 5 5 5 5 0 5 39 44 20 57 85 92 80 8 23 64 68 44 33 36 65 83 100 100 73 99 58 46 100 100
0 2 5 5 3 1 0 0 0 5 1 5 58 23 92 8 6 5 6 40 16 72 100 72 37 13 76 73 56 50 44 100 100 100 100 100 100 90 100 99 98 97 90 92
0 0 0 0 3 1 0 0 5 5 5 18 18 36 5 5 5 24 100 97 89 75 74 52 73 92 97 97 97 96 97 100 98 100 100 100 100 100 100 100 100 100 100 100
4 4 4 4 5 5 5 3 1 5 4 68 5 5 5 5 53 69 45 71 61 55 57 68 93 100 11 73 100 100 100 100 100 100 100 100 100 94 100 100 100 100 100 100
0 5 7 5 5 5 5 2 5 5 5 5 5 6 20 5 46 67 42 50 45 26 85 76 55 55 100 100 100 99 62 99 100 100 31 100 54 56 66 98 93 44 5 5
1 2 6 64 7 11 11 5 5 5 5 5 5 17 5 9 54 61 56 63 99 100 100 100 100 100 100 81 100 100 100 100 91 78 82 100 94 83 70 29 70 24 37 5
32 44 72 78 70 79 4 3 5 5 5 5 5 9 18 5 29 97 76 99 98 100 100 100 100 100 100 100 100 100 67 80 99 41 98 100 99 91 95 14 86 47 5 5
5 54 97 97 48 60 4 5 6 5 51 5 5 5 5 58 100 100 68 100 98 100 100 100 100 100 100 100 68 95 98 10 82 98 100 100 100 74 13 65 5 5 5 5
20 13 35 98 48 65 5 5 31 48 89 84 50 52 90 100 100 100 100 100 100 100 100 100 100 100 91 100 92 28 67 87 99 79 80 13 9 61 20 5 5 5 5 9
91 100 99 100 98 17 25 12 12 59 71 66 70 92 96 100 100 100 100 100 100 97 100 100 94 70 95 92 87 39 10 47 87 62 7 5 73 20 5 5 5 5 68 98
32 83 83 81 100 78 57 100 92 98 89 98 90 100 100 100 100 100 100 100 100 100 100 98 96 97 98 20 5 5 21 99 71 34 5 5 13 5 5 5 5 78 100 100
15 6 30 12 7 98 98 17 80 72 59 70 100 100 100 100 100 100 100 100 100 98 100 100 100 47 5 75 89 85 94 96 12 18 50 45 5 18 81 86 90 100 100 100
56 10 21 18 93 97 98 26 23 68 90 100 100 100 96 98 100 94 8 78 100 100 100 76 4 5 5 80 98 100 100 100 96 98 100 49 19 96 92 85 97 99 100 100
62 89 76 70 20 70 100 77 88 100 100 100 100 85 100 100 73 5 5 68 58 58 5 5 5 5 7 97 100 100 100 100 98 100 100 44 99 99 91 97 96 93 100 86
100 97 100 95 99 100 100 99 100 100 100 100 86 100 100 82 15 5 46 92 96 99 100 98 6 5 5 59 76 94 95 92 100 100 100 99 100 100 100 100 100 100 51 13

GFSCGP_prec_cloud_027.txt.gz
Cloud_Cover
0 1 4 0 0 0 0 0 0 0 0 0 0 0 0 0 0 0 0 0 0 0 0 0 0 0 0 0 0 0 0 3 5 5 5 38 77 63 5 5 5 5 5 5
0 0 0 0 0 0 0 0 0 0 0 0 0 0 0 0 0 0 0 0 0 0 0 0 0 0 0 0 0 0 5 5 5 8 96 100 100 81 71 35 15 68 7 62
0 0 0 0 0 0 0 0 0 0 0 0 0 0 0 0 0 0 0 0 0 0 0 0 0 0 0 0 0 1 5 5 85 100 79 51 99 94 90 92 82 89 100 78
0 0 0 0 0 0 0 0 0 0 0 11 0 26 3 0 0 0 0 0 0 0 0 0 0 4 5 2 4 5 5 5 5 5 5 75 88 46 9 78 93 72 5 21
0 0 0 0 0 0 0 0 0 0 0 0 0 0 7 0 0 0 0 0 0 0 0 0 1 5 5 5 5 5 5 5 5 5 19 40 29 55 12 53 53 69 56 18
0 0 0 0 0 0 0 0 0 0 0 0 2 0 68 20 4 1 0 0 0 0 0 3 5 2 5 5 5 16 42 25 72 94 88 100 91 72 71 31 35 48 82 96
0 0 0 0 0 0 0 0 4 24 33 37 4 0 32 0 0 0 1 5 0 0 0 2 4 5 5 32 96 100 100 100 81 96 96 100 60 54 45 72 100 100 36 6
0 4 0 0 0 0 0 0 3 4 3 16 0 0 9 0 0 0 0 0 0 0 0 0 5 25 52 81 100 100 84 9 5 22 94 49 98 97 77 21 23 76 59 20
0 0 0 0 0 0 5 4 0 0 1 0 0 3 0 0 0 0 0 0 0 1 5 5 21 100 84 56 50 43 12 13 59 7 31 38 98 100 100 98 75 41 67 91
0 2 0 0 0 0 0 0 3 21 44 1 20 36 95 5 0 5 4 3 3 5 5 47 97 47 39 22 5 12 19 42 99 100 81 98 76 28 71 87 6 6 98 100
0 0 1 5 1 0 4 5 2 1 2 5 4 16 2 7 10 33 21 5 5 5 22 96 52 48 90 100 89 100 59 24 21 45 16 10 43 92 30 8 90 100 100 100
0 0 0 0 1 4 0 0 0 5 5 23 4 70 0 0 2 5 0 5 9 61 66 61 100 100 100 100 66 29 8 8 26 42 89 100 99 20 84 100 100 88 54 70
0 0 0 0 0 1 0 3 4 1 5 5 5 4 47 12 25 44 88 98 74 91 99 100 100 100 100 98 88 49 91 100 100 100 100 100 100 100 88 42 44 77 81 82
5 5 5 5 4 0 0 0 5 5 5 20 7 94 100 100 100 97 98 96 61 59 95 100 100 100 54 72 100 100 100 100 100 100 96 40 11 46 97 62 11 100 95 97
0 0 0 0 2 1 0 4 5 5 20 96 17 99 100 100 98 88 78 69 70 100 100 72 37 94 100 100 92 100 99 94 77 58 14 35 62 100 53 55 21 57 59 92
2 4 0 0 0 0 0 0 5 5 5 100 94 100 97 90 88 95 86 100 100 100 100 95 100 97 100 100 98 100 99 41 97 94 5 40 83 100 92 73 84 100 99 100
0 1 3 21 7 5 10 0 1 5 95 100 100 100 86 92 75 80 68 77 54 95 99 100 99 100 100 100 100 100 100 90 6 5 49 71 100 97 100 100 100 100 95 8
5 2 46 68 72 50 5 17 33 82 78 81 89 98 92 97 100 20 27 6 48 97 49 83 96 100 100 100 100 100 98 16 5 11 72 100 99 100 89 100 100 90 5 5
4 58 56 78 5 5 5 24 5 7 5 27 39 76 92 100 100 79 69 68 73 38 83 95 100 99 100 100 67 8 5 5 5 48 100 83 100 100 100 100 55 5 6 21
5 54 14 97 58 52 5 75 29 56 100 91 90 89 62 98 49 100 100 95 70 87 98 100 96 59 83 99 79 66 74 84 100 100 100 100 100 100 100 75 5 12 63 100
85 98 100 100 98 13 6 5 5 49 82 62 35 49 85 84 100 98 100 80 100 96 74 73 92 75 89 99 100 100 100 100 100 100 100 96 100 100 92 70 18 94 100 85
32 61 78 77 97 68 10 48 90 79 39 53 100 62 100 98 83 92 100 100 78 74 93 97 21 5 11 100 100 100 100 100 100 100 100 100 100 100 99 63 98 100 100 100
20 7 49 75 21 100 100 100 85 99 95 21 53 48 77 91 72 90 70 84 85 62 65 72 76 88 99 76 8 100 100 88 81 99 68 100 100 100 100 86 100 100 99 99
55 59 75 77 47 100 100 100 61 62 99 57 100 98 64 11 79 72 24 11 36 73 94 55 10 5 10 86 100 100 100 39 97 99 91 100 100 100 100 100 100 100 100 100
100 90 33 76 85 63 32 66 99 100 91 57 94 99 78 99 88 13 5 23 68 6 2 5 6 85 100 98 100 100 100 99 100 80 99 100 100 100 100 100 100 99 100 78
100 50 27 73 90 99 100 100 100 100 34 77 98 97 31 5 5 36 99 64 11 4 5 17 23 30 59 100 98 62 58 100 74 90 100 100 100 100 100 100 99 100 58 18

GFSCGP_prec_cloud_030.txt.gz
Cloud_Cover
2 5 96 82 0 0 0 0 0 0 0 0 0 0 0 0 0 0 0 0 0 0 0 1 1 0 0 0 0 0 0 0 0 0 5 5 5 50 62 34 63 9 86 11
5 19 1 0 0 0 0 0 1 0 0 0 0 1 0 0 0 0 0 0 0 0 0 0 0 0 0 0 0 0 5 5 5 14 52 82 95 81 50 90 47 82 5 5
3 2 0 0 0 0 0 0 0 0 0 0 0 2 0 0 0 0 0 0 0 0 0 0 0 0 0 0 3 5 5 5 14 5 5 3 5 7 72 80 100 83 58 38
0 0 0 0 0 0 0 0 0 0 0 1 3 1 13 0 0 0 0 0 0 0 0 0 0 0 0 3 5 5 1 5 5 5 4 5 5 5 12 61 48 5 23 96
0 0 0 0 0 0 0 0 0 0 0 0 0 1 82 3 4 0 0 0 0 0 0 0 0 0 0 0 0 3 5 6 5 5 8 48 100 87 32 69 100 100 100 100
0 0 0 0 0 0 0 0 0 0 0 0 0 4 100 100 93 9 0 0 0 0 0 0 0 0 0 1 5 5 5 5 6 5 29 54 100 100 100 100 100 100 100 90
0 0 0 0 0 0 0 0 6 42 92 50 92 40 79 6 96 15 0 0 0 0 0 0 0 0 1 9 8 7 8 6 21 78 100 100 100 100 100 100 96 83 70 94
6 6 0 0 0 0 0 0 4 4 0 10 12 6 6 1 36 95 3 0 0 0 0 0 2 5 5 5 5 18 25 99 100 100 100 100 100 83 58 55 97 100 100 100
0 0 0 0 0 0 6 5 0 0 0 0 0 6 20 57 90 5 0 0 19 5 3 4 34 57 57 10 5 11 100 100 56 52 99 97 100 100 100 100 100 100 60 5
0 2 0 0 5 3 0 3 4 85 12 5 5 54 88 61 5 5 57 45 90 6 6 55 19 5 5 5 5 87 100 100 100 100 100 100 100 100 100 91 46 5 5 5
0 0 0 0 0 0 1 2 2 3 3 3 6 91 13 36 99 92 100 97 40 5 5 6 12 23 44 86 100 100 100 100 100 100 86 32 6 9 9 16 38 5 5 1
0 0 0 0 0 0 0 0 2 3 2 0 36 86 4 2 5 5 6 7 9 20 92 5 30 90 100 100 93 100 76 58 7 17 5 57 25 43 57 11 68 48 24 97
0 0 0 0 1 0 0 0 0 0 2 0 34 3 63 100 73 100 92 88 45 84 100 74 80 86 67 84 86 39 5 41 84 72 98 67 27 100 100 81 6 3 5 65
0 3 5 5 4 3 4 5 5 4 5 16 7 28 48 56 100 100 84 85 94 94 29 36 19 27 49 98 100 7 44 94 96 92 93 100 48 59 9 5 5 5 5 5
0 0 0 0 0 0 0 0 0 0 4 75 33 96 100 94 65 83 84 12 9 23 22 31 49 78 87 97 99 88 96 93 67 94 70 41 5 5 3 21 23 44 5 23
0 0 0 0 0 0 0 0 0 3 5 70 99 18 5 80 98 9 5 5 5 5 5 5 5 5 33 99 86 91 100 100 64 5 66 54 100 59 5 21 41 9 78 75
0 0 0 0 2 5 0 5 4 5 62 80 82 92 98 58 5 5 29 20 15 33 90 58 9 43 98 100 100 89 8 35 6 5 62 96 55 49 19 5 58 92 75 100
3 0 46 17 40 5 0 5 5 5 9 54 52 91 100 65 60 89 90 100 77 18 41 51 63 46 100 94 55 61 100 60 5 4 19 18 26 5 3 39 100 99 85 23
5 3 34 75 5 5 0 17 6 5 4 40 82 54 9 5 9 11 5 5 5 33 22 88 100 85 14 39 95 89 75 72 96 13 100 100 100 52 5 6 100 100 88 47
5 20 4 35 39 4 0 7 26 5 5 11 58 57 7 28 72 68 98 95 73 100 100 99 31 86 84 100 100 100 94 98 98 32 100 61 100 100 100 16 77 100 100 70
34 93 85 95 96 13 0 5 5 5 21 11 17 14 5 11 72 30 13 5 64 75 37 54 8 5 5 5 5 5 3 46 6 22 100 98 87 100 100 13 85 100 100 100
12 48 83 80 91 30 10 32 83 56 32 53 83 77 59 5 6 5 5 5 8 5 5 5 5 5 26 5 5 17 56 18 23 4 6 100 100 100 93 95 99 100 100 100
5 7 7 7 5 5 99 85 51 20 87 100 94 94 97 100 38 8 84 70 78 59 5 5 56 68 8 3 96 100 16 33 5 4 11 100 100 100 99 100 97 100 100 100
87 61 4 5 5 10 87 54 72 78 100 82 99 97 22 5 22 54 22 35 5 5 6 84 20 2 4 30 16 5 18 5 2 5 90 87 46 97 81 100 99 99 100 41
100 86 24 20 5 61 55 34 8 88 100 96 78 85 19 7 56 100 98 25 5 5 34 18 5 5 5 10 5 5 41 5 5 19 85 26 68 94 65 95 72 100 27 5
100 100 100 7 11 5 26 22 94 100 100 86 56 14 35 88 98 85 70 8 27 8 6 5 5 5 3 18 5 20 5 5 50 98 88 33 91 86 54 11 42 66 54 5

GFSCGP_prec_cloud_033.txt.gz
Cloud_Cover
0 0 0 0 2 77 5 3 0 0 0 0 0 0 0 0 0 0 0 0 0 0 0 3 5 5 5 65 10 1 0 0 0 0 3 5 5 5 6 38 66 100 26 57
4 0 0 5 0 0 3 0 0 0 0 0 0 0 0 0 0 0 0 0 0 0 0 0 0 2 5 27 40 1 5 5 5 5 5 5 5 5 5 20 89 77 40 5
5 1 0 0 0 0 0 0 0 0 0 0 0 0 0 0 0 0 0 0 0 0 0 0 0 0 0 0 4 5 5 5 5 5 5 5 3 0 4 5 5 5 5 5
0 0 0 0 0 0 0 0 0 0 0 0 0 0 2 0 0 0 0 0 0 0 0 0 0 0 4 5 5 1 0 0 5 3 0 0 3 5 33 26 33 46 28 5
0 0 0 0 0 0 0 0 0 0 0 0 0 0 0 8 5 0 0 0 2 0 0 0 0 0 0 0 0 0 4 2 5 5 5 39 79 95 100 98 68 84 100 100
0 0 0 0 0 0 0 0 0 0 1 0 1 0 5 74 0 5 16 5 57 5 0 0 0 0 0 0 0 1 0 0 2 1 4 89 99 100 100 100 100 100 100 100
0 0 0 0 0 0 0 0 0 2 5 4 24 75 98 100 95 4 1 4 5 5 1 0 0 0 0 0 1 3 5 57 97 95 99 59 19 12 6 22 18 98 99 100
2 0 0 0 0 0 0 0 0 0 0 0 2 64 35 65 54 98 92 91 90 5 4 1 0 0 0 0 0 1 32 100 83 43 100 44 6 23 46 85 100 100 100 55
3 0 0 0 0 0 0 0 3 2 5 3 1 1 5 61 84 100 100 100 92 68 5 5 5 5 5 14 8 34 100 100 100 99 100 100 100 100 100 100 100 86 5 34
0 0 0 0 0 0 0 0 0 1 1 2 0 3 5 5 5 5 84 100 95 99 78 39 45 5 6 46 90 61 24 37 100 100 100 100 100 100 100 100 52 79 82 77
1 0 0 0 0 0 0 0 0 0 0 2 17 3 5 81 20 56 19 99 50 90 28 20 39 100 81 58 25 76 100 100 84 88 100 97 79 100 100 96 63 5 1 3
0 0 0 0 0 0 0 0 5 5 3 0 4 1 2 54 7 56 100 96 99 100 100 30 58 40 36 70 98 100 81 96 90 70 38 14 96 76 64 63 5 5 5 5
0 0 0 0 0 0 0 0 0 0 0 5 4 0 29 89 10 99 73 70 62 99 93 29 10 46 100 94 69 83 50 22 20 34 5 32 4 5 1 0 5 3 0 5
0 0 0 0 0 0 0 0 0 0 0 0 1 5 6 27 58 5 16 38 5 5 7 42 75 77 9 24 57 5 7 5 30 76 14 2 0 0 0 5 5 5 1 5
0 0 0 0 0 0 0 0 0 0 0 0 0 77 95 21 5 16 76 84 74 97 60 5 5 5 5 5 5 5 41 99 15 5 3 0 3 1 1 5 5 4 0 5
0 0 0 0 0 0 0 0 0 0 0 0 4 68 38 5 6 5 5 5 5 5 5 5 5 11 5 18 74 100 98 14 5 5 93 100 95 100 100 64 64 24 12 60
2 5 8 5 6 1 0 5 4 3 0 1 5 5 5 1 5 5 8 23 45 96 22 13 5 48 46 17 81 13 100 76 38 5 89 96 98 30 58 100 100 100 100 98
5 5 72 9 29 5 0 5 5 5 1 2 4 5 5 5 5 5 28 65 29 5 5 5 5 5 63 89 60 25 7 38 52 100 45 52 20 33 98 100 96 100 100 100
5 12 35 32 10 5 5 5 43 15 5 0 0 1 5 5 5 5 5 6 5 5 5 5 54 100 99 75 33 5 5 5 5 1 0 6 5 94 97 100 100 99 99 99
100 99 41 7 6 5 1 6 5 5 4 5 5 5 17 79 68 79 98 100 99 96 40 96 100 78 5 4 2 18 12 1 4 5 7 4 0 40 100 100 100 100 98 98
98 64 9 26 6 5 0 1 4 3 3 5 5 5 5 6 26 5 9 79 93 10 73 94 86 5 5 5 7 5 0 10 5 5 5 3 3 5 100 100 100 97 97 49
100 99 100 50 41 52 5 5 5 5 5 5 5 35 98 24 7 66 94 97 23 7 30 16 5 5 5 5 2 2 10 16 5 1 1 3 6 50 91 98 100 100 84 32
100 100 100 100 96 8 5 5 32 33 5 19 8 73 89 90 75 96 60 5 5 5 5 5 5 5 5 4 0 5 5 2 2 5 5 5 77 90 100 100 100 89 5 5
100 100 100 57 71 6 4 5 5 5 9 84 19 80 88 92 35 5 5 5 5 5 5 5 5 5 2 0 0 1 5 5 4 5 5 11 5 41 96 88 99 50 5 5
100 100 97 13 62 5 5 5 5 5 52 24 5 10 5 5 43 37 5 5 5 5 5 5 5 4 0 0 4 5 98 60 7 13 37 100 92 100 100 98 49 5 23 5
100 100 97 100 100 9 32 77 83 18 82 45 16 35 5 39 44 14 15 5 5 5 5 2 4 0 1 5 5 21 84 94 72 100 37 99 84 99 80 25 5 27 15 5

GFSCGP_prec_cloud_036.txt.gz
Cloud_Cover
5 4 5 7 98 30 29 5 5 19 45 2 0 4 36 1 0 0 0 0 0 0 0 0 0 0 5 4 5 50 100 56 66 29 0 0 5 2 5 5 18 58 99 100
2 0 0 5 3 78 5 5 0 0 0 0 0 0 0 0 0 0 0 0 0 0 0 0 0 9 3 3 24 44 0 0 4 5 5 5 5 18 62 89 85 77 84 98
4 1 4 0 1 4 4 0 0 0 0 0 0 0 0 0 0 0 0 0 2 18 5 4 4 0 0 0 1 0 0 0 1 5 5 22 98 17 31 17 5 5 5 4
5 5 4 1 2 0 0 0 0 0 0 0 0 0 0 0 0 0 0 0 76 100 90 61 44 65 3 0 0 0 13 60 6 5 5 6 5 82 52 42 31 5 5 4
3 0 0 0 0 0 0 0 0 0 0 0 0 0 0 0 0 0 0 3 100 100 95 98 100 99 0 1 3 3 0 0 0 0 4 8 15 94 100 100 100 100 100 94
0 0 0 0 0 0 0 0 0 0 0 0 0 0 0 0 0 8 5 54 92 63 97 42 58 5 5 5 2 2 0 1 2 5 5 65 100 100 100 100 100 100 92 93
0 0 0 0 0 0 0 0 0 0 2 3 2 3 5 9 28 5 75 6 39 65 78 94 83 99 92 96 32 5 5 5 47 43 64 26 21 88 93 34 16 5 5 12
0 0 0 0 0 0 0 0 0 0 0 0 0 0 0 5 54 5 75 88 80 99 100 100 100 67 6 4 5 30 92 100 100 100 93 57 92 98 59 79 99 100 100 100
0 0 0 0 0 0 0 0 0 0 0 0 0 0 4 16 42 99 94 95 95 89 100 80 78 23 45 67 55 62 78 100 100 100 100 92 34 86 100 100 100 100 92 20
0 0 0 0 0 0 0 0 0 0 0 0 0 1 5 6 72 70 40 5 22 52 77 100 87 100 58 32 23 12 22 46 85 62 61 100 62 62 66 71 47 4 0 1
0 0 0 0 0 0 0 0 0 0 0 0 4 0 3 5 6 28 65 100 100 88 73 91 93 52 100 71 37 44 93 34 21 98 76 25 36 7 5 1 0 0 0 4
0 0 0 0 0 0 0 0 0 0 0 0 0 1 0 5 36 27 52 99 90 100 78 89 99 91 22 5 6 27 5 34 11 5 5 5 5 1 0 0 0 0 1 5
0 0 0 0 0 0 0 0 0 0 0 0 2 0 3 5 5 5 5 76 78 62 80 98 100 96 98 64 34 12 5 5 5 5 2 3 4 5 0 4 1 0 4 5
5 1 0 0 0 0 0 0 0 0 0 0 0 0 0 2 4 4 3 5 5 5 51 84 81 90 86 98 14 40 47 17 5 4 31 5 5 5 5 10 6 47 80 98
0 0 0 0 0 5 5 0 0 0 0 0 0 0 0 0 4 5 5 5 5 35 45 88 97 100 100 100 100 100 34 16 95 98 26 25 5 40 61 7 55 81 100 100
5 2 2 0 0 4 0 0 0 0 0 0 0 0 0 5 5 5 5 5 87 94 96 78 72 100 100 89 11 14 93 100 100 74 64 81 74 27 6 6 91 31 82 100
7 22 6 5 6 5 5 5 0 0 0 0 0 0 0 0 4 5 5 5 5 5 5 47 80 60 35 5 20 100 100 87 99 75 17 1 0 1 3 5 5 30 100 100
13 45 57 47 14 5 6 24 5 5 5 5 2 0 0 5 5 5 5 5 5 5 7 15 17 16 7 89 68 51 18 5 5 5 1 0 0 4 78 46 56 27 100 100
86 99 99 95 8 33 57 43 8 5 15 5 5 5 2 5 5 5 5 12 77 88 18 41 14 10 22 5 7 14 5 30 23 1 0 3 5 5 2 56 85 16 100 100
76 38 35 90 5 35 98 99 9 5 62 54 82 5 5 5 24 5 5 52 82 8 6 5 5 5 5 5 5 6 5 5 0 0 1 5 5 3 15 98 45 45 98 100
87 98 100 100 93 100 11 5 5 25 66 94 8 5 5 56 30 5 16 40 57 38 5 5 5 5 5 5 5 4 0 0 0 0 5 5 5 5 92 99 83 93 100 100
100 100 100 98 97 18 29 8 6 50 100 99 39 96 5 5 5 5 24 51 9 5 5 5 5 5 5 5 0 0 0 0 2 5 5 5 5 5 11 21 86 98 100 100
100 100 100 100 100 100 100 60 46 15 100 97 100 75 98 100 11 5 5 5 5 5 5 5 5 5 4 0 0 0 0 4 5 86 37 5 27 5 81 86 90 100 100 100
100 100 100 36 78 100 17 15 39 100 59 92 99 100 100 67 5 5 5 5 5 5 12 5 5 4 0 3 0 0 1 12 92 80 100 43 95 99 96 100 100 100 58 21
100 49 10 5 18 5 5 5 10 44 88 100 100 86 74 16 5 5 5 5 5 15 5 5 5 3 5 4 2 4 5 60 100 100 100 100 100 94 100 100 83 5 32 5
100 79 6 39 85 5 15 37 98 99 100 100 99 94 60 5 5 5 5 13 47 8 5 5 5 5 2 2 5 5 30 94 100 100 100 100 100 100 100 100 100 100 78 5

GFSCGP_prec_cloud_039.txt.gz
Cloud_Cover
65 55 35 7 36 25 19 43 80 93 100 100 100 100 100 100 100 100 100 100 81 5 0 1 0 1 4 5 54 98 100 100 100 100 100 100 92 13 5 65 99 100 100 100
19 12 51 5 5 5 5 5 5 5 17 11 86 100 98 17 29 15 35 2 0 5 5 2 0 11 12 89 72 71 43 41 43 99 97 37 5 5 5 5 4 1 2 3
3 5 5 54 5 5 5 4 5 3 2 3 5 1 0 0 0 0 0 0 0 6 16 4 5 51 5 5 8 2 58 66 45 4 5 4 5 5 2 1 5 5 3 3
0 0 0 0 0 0 0 0 0 0 0 0 0 0 0 0 0 0 0 0 4 68 40 62 79 50 9 29 5 5 0 0 1 4 1 1 1 8 15 18 35 8 5 1
3 2 5 2 0 0 0 0 0 0 0 0 0 0 0 0 0 0 0 0 35 100 100 100 80 65 100 100 97 64 19 76 92 98 41 90 82 95 100 99 94 96 93 99
1 1 0 0 0 0 0 0 0 0 0 0 0 0 0 0 0 1 5 61 100 100 62 97 58 77 94 82 89 77 99 86 38 6 51 74 98 95 100 100 100 100 100 99
0 0 0 0 0 0 0 0 0 0 0 0 0 0 0 0 0 1 5 5 11 89 79 86 80 100 100 100 100 100 88 45 14 99 100 100 100 100 96 36 43 96 100 99
0 0 0 0 0 0 0 0 2 0 0 0 0 0 0 0 0 5 5 4 83 89 100 100 100 100 100 100 100 97 44 29 100 100 100 100 100 99 99 100 100 100 38 5
0 0 0 0 0 0 0 0 0 0 0 0 0 0 0 0 0 5 5 63 74 69 5 5 5 5 15 37 19 80 99 99 100 100 100 98 100 99 87 21 5 4 5 5
0 3 1 2 0 0 0 0 0 0 0 0 0 0 0 0 2 5 5 5 5 5 3 5 5 5 39 76 98 20 10 33 16 21 62 100 23 5 5 5 1 5 1 0
0 0 2 0 0 0 0 0 0 0 0 0 4 0 0 0 0 5 5 4 5 5 52 85 80 83 98 18 95 47 9 5 26 6 5 17 11 5 5 1 0 0 0 3
5 2 0 0 0 0 0 0 0 0 0 0 4 1 0 0 0 3 5 5 5 5 7 20 65 39 24 54 74 57 36 86 50 9 8 5 5 4 0 5 5 3 5 5
0 0 0 0 0 0 0 0 0 0 0 0 1 0 0 0 0 2 2 5 5 5 12 55 5 56 92 99 100 92 85 57 5 5 5 4 4 5 5 5 5 23 5 88
0 1 5 0 2 0 0 0 0 0 0 0 0 0 0 0 0 0 3 5 5 5 24 77 94 96 100 100 100 97 5 5 5 5 5 5 9 16 5 10 8 5 4 36
1 5 2 0 0 0 0 0 0 0 0 0 4 2 0 0 0 0 2 5 5 32 92 100 99 100 100 100 79 5 5 5 5 5 5 5 5 4 1 0 17 9 23 5
4 5 5 5 5 5 5 0 3 5 5 5 5 5 0 0 0 0 3 5 5 60 92 89 100 99 70 5 5 49 5 5 5 5 5 5 5 0 0 0 0 0 0 40
18 28 23 10 8 63 79 7 5 5 5 5 5 5 5 4 5 5 4 5 28 98 75 10 21 25 37 38 58 5 5 5 5 5 12 5 0 0 0 0 2 2 39 76
39 32 44 63 25 98 83 36 5 22 82 5 5 10 22 14 5 5 5 5 5 5 5 5 25 62 17 10 5 5 5 31 79 19 5 5 3 2 0 5 18 29 84 80
10 28 40 100 82 7 100 70 20 11 100 45 76 98 93 15 5 5 5 5 5 5 5 5 5 20 65 8 5 28 29 74 24 5 5 5 5 5 5 34 92 100 91 87
32 99 77 84 6 87 100 6 72 36 98 100 100 100 100 100 67 7 44 98 68 5 5 5 7 13 23 9 52 50 80 83 11 5 5 5 5 5 5 7 22 55 5 86
10 28 70 93 54 100 99 9 6 5 5 50 100 100 64 13 10 78 100 100 64 5 9 68 68 29 18 14 48 90 24 5 5 2 5 66 19 23 5 8 5 34 84 100
46 50 76 95 100 100 100 83 43 10 5 63 81 46 98 100 100 100 100 98 52 40 67 44 37 38 5 27 80 37 5 1 5 5 62 90 8 59 5 82 100 97 100 72
5 78 100 100 100 100 98 9 23 5 27 100 100 99 100 100 100 100 98 65 5 5 27 60 28 7 7 66 19 5 5 5 5 25 89 100 84 5 32 95 83 100 100 86
69 100 100 78 100 100 7 23 5 14 50 93 100 100 100 100 100 90 89 22 10 76 85 56 56 88 92 30 5 5 5 5 33 100 100 100 70 74 100 100 100 100 94 93
98 100 95 75 88 10 27 8 55 75 98 100 100 75 100 99 100 97 88 90 100 95 94 99 97 50 5 5 5 5 6 47 100 35 56 99 66 99 99 100 100 100 100 87
100 90 5 58 91 12 26 79 76 48 46 63 69 93 100 100 100 100 100 100 100 97 96 96 68 5 5 5 5 9 98 100 95 100 100 97 73 99 100 100 99 98 100 100

GFSCGP_prec_cloud_042.txt.gz
Cloud_Cover
100 92 100 100 42 58 100 100 100 100 100 100 100 100 100 100 100 90 75 95 97 100 92 59 11 29 5 3 5 99 100 100 100 99 66 98 57 68 42 51 6 0 0 0
95 90 46 85 41 6 9 66 100 100 100 100 100 100 100 100 73 66 80 5 12 60 5 6 5 5 5 38 56 80 61 90 88 45 6 5 5 4 4 0 0 0 0 0
30 24 6 5 10 10 37 66 93 77 82 100 88 73 88 49 54 76 35 5 5 4 5 20 5 5 5 27 16 37 91 100 47 5 2 0 0 0 1 0 0 1 2 5
17 22 16 11 12 16 13 9 5 5 25 5 6 14 15 11 4 1 0 0 0 0 0 5 5 5 41 5 9 7 89 76 5 5 5 4 5 5 0 4 4 5 37 43
2 0 4 4 0 0 0 0 0 3 0 0 0 0 0 0 0 0 0 0 0 0 5 5 6 5 30 81 47 76 72 51 64 41 87 19 99 5 6 40 5 5 5 13
0 1 3 5 5 4 0 0 0 0 0 0 0 0 0 0 0 0 0 5 5 5 5 6 78 49 61 92 100 100 100 100 100 79 100 100 100 73 22 5 5 5 5 6
5 6 5 1 0 2 0 0 0 0 0 0 0 0 0 0 0 0 0 1 5 5 36 96 35 23 100 95 99 96 80 100 100 100 87 100 90 11 12 13 5 33 90 100
5 5 0 0 0 0 0 0 0 0 0 0 0 0 0 0 0 0 0 0 4 5 5 72 100 85 10 11 42 100 98 97 90 26 83 49 90 76 60 70 73 9 5 18
0 0 0 0 0 0 0 0 0 0 0 0 0 0 0 0 0 0 1 5 5 5 62 2 0 5 5 55 79 78 16 63 83 96 98 68 73 99 48 5 45 98 67 9
0 0 0 0 0 0 0 0 0 0 0 0 0 0 0 0 0 0 0 1 0 0 1 5 5 5 5 43 63 90 47 100 95 32 5 5 5 7 38 84 62 22 5 2
0 0 0 0 0 0 0 0 0 0 0 1 4 0 0 0 0 0 2 5 1 3 5 5 5 5 5 15 74 12 58 51 73 75 5 19 73 79 74 43 5 5 1 1
0 0 0 0 0 0 0 0 0 0 0 1 4 1 0 0 0 0 0 0 2 3 5 5 5 40 90 91 100 100 100 100 84 27 87 76 63 22 5 5 0 1 0 4
0 0 0 0 0 0 0 0 0 0 0 0 1 0 0 0 0 0 0 0 1 5 5 7 91 83 62 97 100 100 97 31 31 30 5 5 5 5 3 0 0 0 3 5
0 0 0 0 5 5 4 0 0 0 0 0 2 5 5 0 0 0 3 4 3 5 5 74 81 82 100 100 100 89 81 100 83 5 5 5 0 0 5 5 5 5 0 0
0 3 5 5 5 2 4 0 5 2 5 5 5 5 5 5 5 0 4 0 1 5 5 22 95 100 100 100 95 93 31 20 10 5 5 5 5 5 5 5 5 4 0 4
5 5 5 4 5 5 5 5 5 5 5 5 5 5 5 5 4 5 5 5 5 5 10 96 98 100 84 14 5 5 5 5 5 5 5 5 5 5 48 18 5 0 3 33
6 6 5 5 5 19 99 5 5 5 5 5 5 5 5 5 62 100 36 28 88 6 65 97 100 52 5 5 5 5 5 5 5 18 21 14 95 96 24 4 0 14 61 66
6 5 5 24 7 85 94 100 5 5 5 5 5 5 5 6 46 50 9 40 18 56 100 100 99 15 5 5 5 5 6 12 42 60 95 100 100 49 5 5 4 5 48 95
5 5 29 62 45 78 100 100 5 7 84 16 5 5 10 94 98 100 23 21 56 100 100 99 86 84 46 37 9 56 60 86 100 100 100 100 80 5 5 5 5 42 49 99
5 5 5 76 12 77 100 72 9 5 95 52 100 99 56 68 61 80 75 100 100 96 73 100 93 48 90 94 13 74 100 100 100 100 100 51 5 43 36 5 27 62 7 93
5 39 24 82 5 83 95 19 63 100 97 43 89 75 58 69 6 21 97 100 100 100 100 99 100 100 100 99 100 100 100 100 100 62 71 5 5 100 100 59 74 97 91 97
31 89 100 63 10 32 6 35 99 83 40 88 64 64 99 97 98 100 100 100 100 100 100 100 100 100 100 88 100 100 100 78 18 5 5 17 48 93 94 7 84 100 100 97
11 33 7 35 5 5 43 99 100 100 87 87 100 100 100 100 100 100 100 100 100 100 100 100 100 100 100 100 100 100 98 18 5 71 70 96 97 87 56 96 84 98 98 100
68 99 73 5 58 84 100 100 100 100 94 100 100 100 100 100 100 100 100 100 100 100 100 100 100 100 100 100 95 11 5 5 33 100 28 60 97 81 83 100 85 96 76 76
96 68 8 100 100 100 100 100 100 100 100 100 100 100 100 100 100 100 100 100 100 100 100 100 100 100 100 85 22 5 5 83 100 48 68 54 64 70 50 100 87 56 100 99
100 100 100 100 98 84 100 100 100 100 100 100 100 100 100 100 100 100 100 100 100 100 100 100 100 100 74 14 6 17 73 100 100 100 100 98 66 70 26 30 38 79 92 94

GFSCGP_prec_cloud_045.txt.gz
Cloud_Cover
100 99 99 100 100 100 100 100 100 100 100 100 100 100 100 100 100 88 62 60 6 8 100 100 95 64 53 53 30 96 100 100 100 100 100 100 70 100 100 90 58 2 0 0
100 100 100 100 99 88 96 100 100 100 100 100 100 100 100 100 100 95 100 100 100 100 98 99 83 29 14 22 13 39 48 36 86 100 95 12 37 29 11 5 39 4 2 3
89 81 83 92 65 58 84 75 67 89 99 100 100 97 94 82 14 39 100 84 63 72 70 22 4 0 0 2 7 14 12 42 5 77 63 30 5 5 5 5 5 5 7 91
100 60 60 61 26 73 89 60 39 30 46 76 98 100 64 25 44 20 54 74 8 5 5 2 0 4 5 5 6 77 68 5 7 5 38 14 92 5 20 59 27 44 69 5
30 21 61 44 62 70 91 94 93 81 85 99 64 41 5 5 2 1 0 4 3 0 0 0 5 5 5 23 66 69 72 78 98 97 68 82 21 7 5 52 100 99 13 5
5 5 5 5 5 5 9 46 38 9 4 4 4 3 0 0 0 0 0 0 4 3 4 5 5 29 46 15 69 85 87 98 100 92 77 10 7 25 5 5 8 5 5 5
0 0 1 1 2 1 0 2 3 2 0 0 0 0 0 0 0 0 0 0 0 0 5 5 25 100 93 53 63 5 5 5 15 98 100 100 64 7 43 34 5 5 5 5
2 0 0 0 0 0 0 0 0 0 0 0 0 0 0 0 0 0 0 0 0 0 5 27 92 67 4 2 5 5 5 5 69 5 6 6 5 26 5 5 5 5 1 1
5 1 0 0 0 0 0 0 0 0 0 0 0 0 0 0 0 0 0 0 0 4 5 4 0 0 0 5 5 5 7 44 71 56 99 73 38 5 5 5 5 5 5 5
4 2 0 0 0 0 0 0 0 0 0 0 0 0 0 0 0 0 0 0 2 2 0 0 0 2 5 5 15 84 99 85 100 100 65 71 5 5 5 15 27 42 74 33
0 0 0 0 0 0 0 0 0 0 0 0 0 0 0 0 0 0 0 0 1 0 1 5 5 5 9 5 6 29 50 95 100 92 98 6 29 92 72 42 17 14 5 5
0 0 0 0 0 0 0 0 0 0 0 1 0 0 0 0 1 5 5 5 5 5 5 5 5 18 58 48 78 99 88 100 100 46 34 98 49 5 5 43 5 5 0 3
0 0 0 0 0 0 0 0 0 0 0 0 1 1 6 5 5 5 5 5 5 5 5 5 7 100 99 92 97 52 99 99 6 5 48 21 5 5 5 5 5 5 5 5
0 0 0 0 0 0 0 0 0 0 0 0 4 5 7 5 5 5 5 5 5 5 5 5 42 94 100 70 82 100 61 5 5 5 5 5 5 5 5 5 5 5 5 13
0 0 0 0 3 2 0 0 0 0 0 5 5 5 5 5 5 5 5 5 5 5 5 5 6 87 78 98 100 97 80 5 5 5 5 5 5 8 59 98 42 15 32 34
3 5 0 1 5 5 6 1 3 5 5 5 79 65 5 5 5 5 2 5 5 4 5 6 85 100 100 75 93 100 87 5 5 23 32 86 41 93 99 100 100 73 5 21
5 0 5 5 5 25 100 2 5 5 5 19 76 5 16 22 75 97 36 5 5 10 5 76 100 98 100 100 100 88 37 40 96 93 100 100 100 100 100 79 34 5 11 7
5 5 5 28 5 82 100 64 3 5 5 73 8 5 33 100 100 91 5 5 45 31 54 99 98 59 29 29 64 6 48 58 64 100 100 100 100 100 57 5 5 5 52 99
5 5 10 82 19 53 100 99 5 0 22 5 5 27 100 100 90 60 24 20 94 100 100 100 100 55 5 59 18 88 94 100 100 100 100 100 100 70 18 5 5 11 57 97
5 5 5 65 36 83 100 98 5 5 41 76 100 100 100 90 100 100 96 100 100 100 100 100 100 95 90 100 100 100 100 100 100 100 100 99 59 25 28 22 5 7 5 5
14 41 22 45 81 89 22 9 5 26 63 100 100 100 100 100 100 100 100 100 100 100 100 100 99 100 100 100 100 100 100 100 100 100 78 23 56 98 98 43 5 22 65 88
5 27 60 98 75 15 15 25 89 71 83 100 100 100 100 100 100 100 100 100 100 100 100 100 100 100 100 94 90 96 100 99 92 77 49 5 5 7 100 57 5 17 97 100
17 6 81 28 27 5 21 61 54 20 97 100 100 100 100 100 98 100 100 100 100 100 100 100 100 96 68 68 99 100 84 99 60 37 88 8 5 31 70 67 88 79 73 91
17 43 24 5 5 5 5 5 51 100 100 100 100 73 52 55 96 100 100 100 100 100 100 100 98 99 100 100 100 96 100 100 83 100 86 69 59 36 83 98 79 79 65 46
86 33 5 42 84 98 100 100 100 100 100 100 94 62 96 99 98 98 100 100 100 100 100 100 97 100 100 100 100 99 71 100 84 100 100 100 91 89 68 54 22 23 14 9
100 100 100 100 100 100 100 100 100 100 83 37 44 58 97 100 100 100 100 100 100 100 100 100 100 99 100 100 100 89 100 68 99 100 100 100 100 95 73 61 66 5 6 5

GFSCGP_prec_cloud_048.txt.gz
Cloud_Cover
100 100 100 100 100 100 100 100 100 100 100 100 100 100 100 100 100 100 100 100 100 100 96 46 74 76 79 95 100 100 61 65 80 96 100 100 100 100 100 100 100 100 100 8
100 100 100 100 100 99 100 100 100 100 100 100 100 100 100 100 100 100 86 84 93 96 100 99 97 72 58 93 99 72 28 7 16 5 5 67 52 79 100 93 52 64 85 100
100 100 100 100 100 100 100 100 100 100 100 100 100 98 71 14 10 66 94 92 97 77 57 73 81 74 40 48 40 28 15 5 5 11 26 89 100 98 98 100 100 100 100 100
100 94 97 100 100 100 100 67 78 74 90 100 91 84 100 100 99 99 99 100 91 96 83 28 8 5 5 5 5 5 5 5 35 12 8 38 66 85 100 54 5 5 6 1
100 100 98 99 99 100 100 100 86 62 44 15 14 12 25 94 72 68 40 57 85 35 5 4 5 5 5 5 5 32 59 5 5 7 55 91 82 98 88 64 58 5 2 3
99 82 81 86 92 82 90 91 96 72 32 30 42 6 84 38 33 10 3 1 0 0 0 5 5 5 5 5 8 11 5 5 12 71 82 75 64 78 78 70 5 5 1 5
22 34 70 68 84 73 76 45 14 5 6 8 2 0 0 0 0 0 0 0 0 0 0 1 5 5 5 34 9 4 5 7 30 56 63 59 9 5 5 5 18 5 5 5
5 5 10 5 5 4 5 5 5 5 3 0 0 0 0 0 0 0 0 0 0 0 0 5 5 14 62 4 0 5 5 5 5 5 21 54 5 33 75 85 36 5 5 17
0 5 3 3 8 28 29 6 5 5 0 0 0 0 0 0 0 0 0 0 0 0 0 5 5 5 0 1 5 5 9 35 14 85 80 88 100 74 26 5 20 53 19 5
3 5 5 5 5 5 5 4 0 0 0 0 0 0 0 0 0 0 0 0 0 0 1 5 0 0 0 4 5 5 15 69 79 99 88 96 99 14 5 5 6 5 5 5
5 4 5 0 0 0 0 0 0 0 0 0 0 0 0 0 0 0 1 4 5 5 5 5 5 5 4 5 5 16 54 49 67 96 100 94 94 13 57 54 6 5 5 5
5 2 0 0 0 0 0 0 0 0 0 0 0 0 0 0 0 3 5 5 5 5 5 5 5 5 5 5 5 18 100 64 89 100 68 7 68 79 53 5 5 5 5 5
0 0 0 0 0 0 0 0 0 0 0 0 25 0 0 4 5 5 5 5 5 5 5 5 5 5 5 27 64 93 100 100 100 99 76 5 5 5 5 5 26 80 81 96
3 0 0 0 3 1 0 0 0 0 0 0 0 3 5 5 5 5 5 5 5 5 5 5 5 5 19 75 87 60 37 100 62 11 89 35 5 49 82 98 50 60 96 53
0 0 0 5 5 2 5 0 0 0 0 2 2 5 5 7 16 17 5 5 5 5 5 5 5 5 62 76 56 92 93 9 95 94 59 11 62 98 95 39 74 100 36 6
0 0 5 5 5 5 5 5 0 0 0 0 4 4 0 5 5 5 5 12 70 5 5 5 5 24 83 82 99 10 72 50 29 91 56 60 89 84 59 99 100 91 21 81
0 2 5 5 5 5 55 1 0 0 0 0 3 5 5 11 16 5 5 77 47 16 60 5 26 68 86 86 94 52 11 77 83 79 81 98 100 100 100 100 77 70 64 96
3 5 5 5 5 41 22 4 0 4 5 0 5 5 5 5 5 5 6 90 98 100 69 91 72 90 96 95 98 100 79 98 99 100 100 100 100 100 100 91 64 55 76 100
5 5 7 62 5 85 76 10 5 5 5 5 5 5 5 5 5 10 99 100 100 98 30 7 42 89 96 99 100 97 98 100 100 100 100 100 100 100 100 65 26 64 97 100
5 5 6 7 67 23 46 5 5 5 6 56 8 5 5 5 5 6 100 100 100 63 6 6 80 100 100 97 100 100 100 100 100 100 96 100 100 100 97 98 69 86 99 100
34 44 41 46 81 5 5 5 7 23 64 48 32 74 90 60 100 100 100 100 61 5 5 61 100 100 100 100 100 100 100 100 100 100 100 100 100 100 91 46 76 89 90 97
21 17 72 38 96 35 5 5 52 46 38 10 16 29 100 100 100 100 62 18 5 32 95 98 99 99 100 100 100 100 100 100 100 100 100 100 98 89 16 82 85 96 98 100
5 14 7 5 5 5 8 82 57 47 53 62 91 99 100 100 74 33 17 74 100 100 100 94 98 100 100 100 100 100 100 100 100 92 83 99 100 69 85 82 82 98 100 100
33 19 6 5 16 5 5 5 5 5 5 100 100 100 46 5 8 49 70 80 100 100 97 100 100 100 100 100 100 100 99 100 86 91 100 100 100 70 72 94 100 100 100 100
9 10 5 78 22 5 5 5 7 31 96 100 62 5 14 20 6 41 71 100 100 100 100 100 100 100 100 100 100 97 100 100 100 100 95 97 100 100 100 98 97 100 98 78
94 100 96 99 100 98 100 100 100 100 55 6 13 26 32 50 82 97 100 100 100 100 100 100 100 100 100 100 100 100 100 100 100 76 80 100 99 100 100 100 100 100 72 10

GFSCGP_prec_cloud_051.txt.gz
Cloud_Cover
100 100 100 100 100 100 100 100 100 100 100 100 100 100 100 100 100 100 100 100 100 100 100 100 100 100 100 100 89 100 100 100 81 22 29 5 5 5 43 100 100 100 80 82
100 100 100 100 100 100 100 100 100 100 100 100 100 100 100 100 100 100 100 100 100 100 100 100 100 100 99 87 100 99 91 88 72 74 90 30 5 54 11 67 61 45 70 99
100 100 100 100 100 100 100 100 100 100 100 100 100 100 100 100 100 100 100 100 100 100 94 71 78 80 100 94 92 89 44 33 5 5 5 5 63 76 67 92 98 100 100 100
100 100 100 100 100 98 100 100 100 100 100 100 100 100 100 100 100 100 100 64 57 77 91 60 92 98 98 65 7 5 5 5 5 5 5 18 57 93 98 100 70 55 41 42
100 100 75 100 98 100 100 100 100 100 100 100 100 100 100 100 100 100 100 100 99 86 72 54 38 5 5 3 4 5 5 5 5 5 5 9 61 93 95 90 19 5 6 6
100 100 100 100 100 100 100 100 100 99 99 98 98 100 100 100 88 66 65 44 56 50 17 5 4 1 0 0 1 5 5 4 1 5 5 6 33 84 93 63 5 5 5 5
100 100 100 100 100 100 100 99 100 99 100 84 99 96 100 43 22 7 5 8 5 2 0 0 0 0 0 0 5 5 1 2 5 5 5 5 31 84 95 50 55 9 5 2
100 100 94 83 80 92 68 97 100 51 99 100 15 5 5 5 4 5 0 0 0 0 0 0 0 0 0 5 5 0 22 33 15 5 5 5 89 75 29 86 100 63 13 4
99 100 48 59 34 5 10 5 5 5 5 5 16 17 5 1 0 0 0 0 2 0 0 0 0 0 5 4 17 6 50 79 11 13 15 18 97 89 97 97 100 88 5 5
56 97 5 4 2 2 1 4 5 5 5 1 35 1 29 0 0 0 0 0 0 0 0 8 11 17 27 71 78 72 60 25 26 46 77 100 100 94 94 76 36 5 5 5
2 2 32 4 5 5 5 5 5 3 2 0 0 2 0 0 0 0 0 0 3 3 6 11 36 51 53 88 70 8 5 6 32 99 100 73 95 96 17 17 14 5 5 5
1 5 5 5 5 5 5 1 0 0 0 0 0 0 0 0 0 0 0 0 5 5 3 25 40 32 15 0 1 5 5 17 81 96 100 99 98 49 6 66 8 5 5 5
5 4 5 5 1 0 0 0 0 0 0 0 19 0 0 0 0 0 0 5 5 5 5 5 5 5 5 5 5 5 6 57 77 91 22 86 28 19 54 5 5 19 44 8
5 5 5 5 60 39 2 1 0 0 0 0 0 0 0 0 1 4 4 5 5 5 5 5 41 64 5 19 5 5 27 77 59 94 99 16 39 16 62 23 86 90 69 62
5 5 5 1 1 1 1 2 0 0 0 5 0 0 0 5 5 5 5 5 5 5 5 5 29 12 96 48 5 47 80 20 98 53 12 24 60 89 57 79 83 91 99 60
18 5 5 0 0 5 0 5 0 0 0 5 0 0 0 5 5 5 5 5 5 5 5 5 6 99 96 8 39 74 64 98 6 99 98 100 68 73 82 88 100 100 41 6
5 5 5 0 0 5 5 0 0 1 5 5 5 5 5 4 2 5 5 5 5 5 5 5 85 61 5 5 71 70 89 87 98 100 100 82 99 100 100 100 99 63 53 28
5 5 3 1 1 47 7 1 1 5 5 5 5 5 20 5 5 5 5 5 5 5 5 46 94 59 6 41 94 100 91 100 100 100 100 100 100 100 100 100 98 50 22 50
5 5 4 69 5 33 6 5 5 14 6 10 5 5 5 5 5 5 16 5 5 5 66 100 93 5 10 61 97 100 100 92 91 100 100 100 100 100 100 100 73 42 36 99
5 5 5 6 67 76 6 5 5 5 5 16 5 5 5 5 5 1 5 4 6 100 100 86 39 42 11 38 82 100 100 89 100 100 100 100 100 100 100 97 100 100 100 100
25 43 39 6 78 5 6 7 5 5 5 5 5 5 5 2 5 5 5 61 100 100 92 22 16 80 87 87 97 100 100 100 100 100 100 100 100 100 100 98 100 100 100 62
12 8 72 37 96 63 17 27 76 37 5 5 5 5 5 5 5 37 100 100 100 84 71 70 78 89 78 100 100 100 100 100 100 100 100 100 100 100 100 100 100 98 95 97
5 7 5 11 5 7 51 33 40 14 5 12 9 21 12 35 96 100 100 80 45 95 82 71 77 100 100 100 100 100 100 100 100 100 100 100 100 100 100 100 80 93 96 100
5 5 5 5 5 15 71 64 61 77 94 86 100 98 100 100 96 87 54 40 41 86 74 69 100 100 100 100 100 100 100 100 100 100 100 100 100 100 98 74 79 100 100 100
10 5 5 47 17 13 38 87 42 85 100 100 100 100 64 24 49 7 10 66 67 71 100 100 100 100 100 100 100 100 100 100 100 100 100 100 100 80 100 100 100 93 95 100
26 25 27 92 100 97 100 100 100 100 93 27 54 87 100 72 24 55 74 80 100 100 100 100 100 100 100 100 100 100 100 100 100 100 97 34 82 100 100 100 100 100 100 77

GFSCGP_prec_cloud_054.txt.gz
Cloud_Cover
100 100 100 100 100 98 100 100 100 80 97 100 100 100 100 100 100 100 100 100 100 100 72 100 100 88 77 40 100 100 100 100 100 100 100 68 81 4 4 4 5 5 5 5
100 100 100 100 100 100 100 100 100 94 97 100 100 100 100 100 100 100 100 100 100 98 97 87 96 100 100 100 100 100 100 100 100 51 17 5 5 18 5 5 5 5 5 6
91 100 88 100 100 100 100 100 100 100 100 100 100 100 100 100 92 98 99 100 100 100 100 100 100 100 100 100 100 100 69 17 6 100 30 5 4 5 5 5 5 13 17 5
100 83 100 100 100 100 100 100 98 100 100 100 100 100 100 100 100 100 100 100 100 100 100 100 100 100 87 81 86 51 83 38 73 30 5 3 5 5 5 12 99 34 9 6
74 100 97 100 100 90 100 96 100 100 100 100 100 100 100 100 80 44 92 61 78 97 66 90 93 74 64 42 48 50 2 82 5 7 6 5 73 100 98 54 89 84 72 8
88 91 100 100 89 89 100 99 100 100 100 100 100 100 100 100 100 100 99 100 100 97 86 82 56 76 64 7 5 0 11 0 1 0 0 5 5 5 5 13 5 9 31 80
99 100 97 55 97 100 100 100 100 100 100 100 100 100 100 100 100 100 34 35 24 66 67 29 5 1 0 0 0 0 0 0 0 0 1 5 5 5 13 96 97 28 96 100
99 82 96 100 100 100 100 100 100 100 100 100 100 100 17 94 81 81 78 31 7 2 0 0 0 0 0 0 0 0 0 0 0 0 3 5 11 28 77 100 62 88 100 46
100 100 100 99 100 100 100 95 98 73 32 72 56 66 47 23 13 5 5 1 0 12 2 0 0 0 0 0 0 5 23 78 57 0 5 5 40 100 100 86 100 95 100 95
100 100 100 99 62 58 64 84 45 90 64 76 52 29 76 78 2 0 0 0 0 0 0 0 0 0 64 32 16 0 73 100 32 1 6 61 100 98 100 100 86 84 48 5
100 100 100 8 6 5 5 5 3 1 32 86 4 96 5 0 0 0 0 0 0 0 0 0 23 89 43 96 87 3 64 78 6 50 63 78 100 100 95 74 38 60 6 5
8 10 4 2 4 0 0 31 30 7 0 3 0 0 2 0 0 0 0 0 0 0 0 1 42 100 100 77 68 19 5 5 21 86 100 100 100 98 7 86 45 5 5 5
8 5 3 3 49 5 5 5 2 1 47 0 17 0 0 0 0 0 0 0 1 3 4 73 100 93 51 13 29 7 5 46 78 100 100 100 86 7 97 38 7 5 5 5
86 5 53 50 10 75 90 6 1 5 2 0 0 0 0 0 0 0 0 0 1 5 14 76 36 5 5 7 38 7 35 22 68 96 100 94 40 72 53 79 75 62 50 55
5 31 23 27 6 81 2 62 79 5 5 3 0 0 0 4 5 0 0 0 0 5 1 5 5 5 5 15 5 5 18 57 77 100 98 94 43 66 82 78 87 90 90 96
16 54 5 5 5 4 5 1 0 0 0 3 0 0 0 1 0 4 4 5 15 6 5 5 5 24 50 22 14 37 32 100 65 100 96 84 86 100 88 100 100 100 82 88
80 16 30 11 5 5 5 0 0 0 0 0 0 2 0 0 5 0 5 5 29 5 5 5 11 74 40 40 95 7 80 90 100 100 100 94 100 100 100 100 100 100 100 100
64 34 62 8 6 38 5 0 0 0 0 1 5 5 5 5 5 4 5 5 5 5 5 5 5 10 18 98 48 50 82 76 88 99 100 100 100 100 100 100 100 100 100 100
10 70 14 76 52 22 5 4 1 5 4 5 5 5 5 5 5 5 5 5 5 5 5 5 5 19 100 90 13 35 84 100 79 69 100 100 100 100 100 100 100 100 100 100
5 73 92 9 67 35 5 5 4 5 5 5 5 5 5 5 5 5 9 29 7 5 5 5 73 100 59 6 38 52 84 100 100 100 100 100 100 100 100 100 100 100 100 100
8 79 83 5 68 53 5 5 3 1 5 5 5 5 7 5 5 5 5 5 5 6 79 100 98 8 35 52 34 86 100 100 100 100 100 100 100 100 100 100 100 100 94 100
40 72 74 33 98 86 5 5 5 5 5 5 5 6 6 8 18 28 64 69 99 100 100 89 53 85 61 92 99 100 100 100 100 100 99 96 100 100 100 100 100 100 100 83
51 55 29 53 9 33 21 5 5 5 5 16 65 10 79 30 97 100 100 100 100 100 100 96 95 89 96 100 100 100 100 100 100 100 100 100 100 100 100 100 100 17 65 59
56 78 49 24 5 33 21 26 11 12 56 67 91 100 100 100 100 100 100 83 78 80 87 73 100 100 100 100 100 100 100 100 100 100 100 100 100 100 100 43 24 12 59 100
54 70 5 65 5 5 35 19 5 28 69 100 100 100 100 100 89 100 76 82 50 97 100 100 100 100 100 100 100 100 100 100 100 100 100 100 75 6 5 56 92 100 97 90
58 43 5 18 98 5 26 40 85 94 100 100 100 100 99 76 90 71 62 100 100 98 98 100 100 95 94 99 100 97 100 100 100 100 49 6 5 5 6 83 99 92 91 93

GFSCGP_prec_cloud_057.txt.gz
Cloud_Cover
100 100 100 100 100 100 100 94 100 100 100 97 100 100 100 96 100 100 100 99 100 100 100 100 100 100 100 100 71 92 100 100 100 100 100 100 100 100 100 100 100 26 3 5
100 56 100 100 75 100 97 100 59 100 94 100 100 100 100 100 100 100 100 100 100 100 100 100 100 99 100 100 100 100 100 100 100 100 100 100 100 86 75 6 7 5 4 5
97 79 100 100 100 66 70 100 100 100 100 100 100 100 88 100 100 100 100 100 100 100 100 100 98 100 100 100 100 100 100 100 100 100 100 100 59 74 34 22 2 4 5 5
100 99 100 89 93 74 70 98 100 100 100 100 100 100 100 100 100 100 100 100 98 97 100 100 100 100 100 100 100 100 100 99 18 9 8 13 14 8 0 0 0 4 1 4
100 7 49 11 20 100 100 98 100 100 100 86 92 100 100 100 100 100 100 100 100 100 100 100 100 100 53 67 65 86 12 5 8 6 24 2 0 0 2 27 45 45 95 90
5 100 100 97 100 100 100 100 100 100 100 100 98 94 100 45 97 100 47 92 48 69 70 52 5 7 7 39 47 10 5 5 25 17 0 0 0 4 5 14 100 94 84 97
7 100 98 100 100 82 98 78 76 100 94 94 71 100 100 77 92 97 100 28 8 9 19 12 5 5 5 5 4 4 0 0 0 0 0 0 2 5 5 55 100 100 74 75
5 33 96 98 48 100 100 55 100 100 100 94 100 78 96 99 34 100 88 9 4 5 5 5 6 0 0 0 1 4 0 0 0 0 0 1 5 17 98 100 100 91 100 81
100 100 100 88 88 100 68 92 55 94 100 100 94 59 9 61 10 69 26 60 8 5 5 0 0 0 0 0 0 0 0 0 0 0 0 10 92 90 100 96 100 100 100 99
100 100 100 100 99 100 100 88 90 100 100 100 58 5 47 5 18 6 7 10 5 0 0 0 0 0 0 0 0 0 3 32 33 0 4 74 90 100 100 100 100 100 38 6
99 100 100 81 100 100 27 51 65 11 40 46 5 26 17 6 78 32 0 0 0 0 0 0 0 0 6 17 72 74 21 92 100 100 74 100 100 100 100 96 100 92 5 25
18 80 62 100 81 27 5 3 67 5 3 5 5 2 44 5 9 0 0 0 0 0 0 0 0 6 87 97 100 100 100 100 96 98 100 100 100 100 98 99 99 6 5 5
41 100 100 80 87 4 6 2 0 5 7 5 5 0 5 1 0 0 0 0 0 0 0 0 4 37 100 100 100 100 100 100 100 100 100 100 100 95 90 100 38 70 84 62
53 100 100 32 10 0 89 8 5 5 5 0 3 0 0 0 1 3 0 0 0 0 0 3 5 98 100 100 100 100 100 100 94 100 100 100 88 100 100 91 89 88 76 100
50 100 92 5 5 6 19 37 31 36 88 48 4 0 0 0 5 8 4 0 0 0 0 5 31 59 26 12 11 13 7 3 32 93 100 100 100 89 66 46 99 100 100 100
100 86 5 55 5 41 37 5 0 5 5 5 0 2 3 1 5 5 5 0 2 5 2 3 5 18 5 5 5 5 5 48 88 72 85 90 100 99 100 100 100 100 100 100
100 99 5 47 5 5 21 0 5 5 5 1 0 0 0 0 0 0 0 4 5 5 5 5 5 5 5 6 13 16 31 62 63 33 99 100 97 100 100 100 100 100 100 97
100 100 42 8 5 87 3 5 5 5 5 5 4 4 0 0 0 0 1 2 1 4 5 5 5 5 5 18 62 61 52 38 44 93 100 84 100 100 100 100 100 100 100 100
89 100 7 46 5 54 5 7 5 5 5 5 5 4 5 5 2 0 5 5 5 8 37 12 5 5 5 5 20 13 27 38 55 59 84 100 100 100 100 100 100 100 100 100
38 100 20 61 40 69 7 29 5 5 83 5 5 5 5 5 5 5 5 5 7 41 5 13 38 73 39 24 100 56 57 75 72 88 100 100 100 100 100 100 100 100 100 100
14 99 47 15 81 62 25 22 5 5 5 5 5 5 5 5 5 5 5 71 12 5 11 88 72 53 100 100 100 100 100 90 100 100 100 100 100 100 100 100 100 100 100 100
36 73 76 78 67 95 5 89 6 5 5 5 5 5 5 5 5 12 8 10 28 100 100 100 100 100 100 97 100 100 100 100 100 100 100 100 100 100 100 100 100 100 54 6
83 100 59 74 31 45 70 79 61 5 5 25 5 5 5 5 8 42 49 96 100 100 100 100 100 100 100 100 100 99 100 96 95 100 100 100 100 100 100 96 100 49 5 5
100 100 99 16 5 28 88 97 5 5 5 5 5 6 18 18 21 99 100 100 100 100 100 100 100 100 98 89 98 85 76 80 98 100 100 100 100 94 37 6 5 5 5 5
100 100 36 36 5 5 29 50 29 8 5 23 54 40 69 100 100 100 100 100 100 100 100 100 92 97 92 96 91 97 100 100 100 100 100 100 55 5 5 2 5 5 5 5
83 100 86 6 33 5 5 27 84 68 40 43 33 90 100 100 100 100 100 100 100 100 100 98 98 98 86 81 92 100 100 100 100 98 78 35 5 0 0 2 5 4 2 4

GFSCGP_prec_cloud_060.txt.gz
Cloud_Cover
100 97 51 47 100 99 99 42 8 16 41 77 98 96 100 100 100 100 100 100 100 100 100 100 100 100 68 100 100 100 100 100 100 100 100 100 100 63 100 100 100 100 100 14
100 100 48 90 50 71 7 77 38 45 12 96 52 100 100 100 100 100 100 100 100 100 100 100 100 19 24 94 100 98 100 100 97 100 100 98 97 98 100 100 100 100 98 87
71 69 25 99 92 88 59 69 95 87 79 91 100 100 100 100 100 100 100 100 69 46 74 78 80 97 96 100 78 95 58 99 100 100 100 100 100 100 98 76 6 7 15 15
85 91 90 96 35 97 98 92 100 98 100 100 100 100 100 100 100 100 100 91 62 46 53 88 100 100 96 96 94 99 100 100 100 100 100 100 100 99 74 24 34 6 1 4
10 73 63 96 88 54 56 96 100 100 100 100 28 54 100 100 100 100 100 100 77 98 100 100 100 100 100 100 100 100 100 70 34 7 10 14 39 32 41 3 0 1 5 5
5 5 27 90 84 10 34 93 94 87 71 91 63 40 96 95 78 100 100 100 100 100 100 100 100 100 100 98 28 18 10 19 36 13 58 67 8 0 0 1 5 40 65 90
5 7 100 100 76 97 81 5 30 56 33 90 8 51 84 56 68 100 100 100 99 100 98 5 5 81 48 32 5 29 70 58 14 2 0 0 0 0 5 5 24 96 87 83
5 5 84 100 96 92 5 24 5 7 5 5 76 52 98 100 94 70 47 87 100 100 86 29 4 6 5 5 3 4 1 0 0 0 0 0 0 5 41 18 100 100 98 100
32 70 8 68 92 41 40 16 24 37 16 6 85 6 93 64 76 100 8 4 31 5 48 71 8 5 5 4 0 0 0 0 2 1 5 5 9 95 92 93 93 100 100 100
7 67 6 81 95 81 90 83 25 26 57 12 75 22 89 28 5 6 5 4 5 4 5 5 2 0 0 0 0 0 10 39 1 1 23 35 100 95 99 83 21 77 95 98
4 27 77 96 100 100 100 97 99 81 87 21 5 66 5 1 5 42 82 5 5 5 2 0 0 0 0 0 0 0 0 4 33 12 4 64 76 21 100 95 100 33 77 88
100 98 5 28 95 38 87 30 5 5 100 96 0 0 0 0 1 5 5 5 2 0 0 0 0 0 0 0 0 0 2 21 32 100 100 100 100 100 100 100 78 100 80 86
22 78 86 91 71 90 21 4 89 91 6 5 2 0 2 27 0 1 0 0 0 0 0 0 0 0 0 2 5 5 26 98 98 100 99 100 100 100 100 86 89 94 9 49
33 86 49 100 100 6 17 7 14 80 5 5 2 4 2 4 0 0 0 0 0 0 0 0 0 0 5 5 12 96 100 92 100 100 100 100 99 100 62 100 82 24 24 13
62 18 88 100 76 90 97 5 5 4 5 5 1 0 0 0 0 3 2 2 0 0 0 0 0 16 35 95 67 31 100 100 100 85 17 14 84 70 89 92 97 35 98 80
3 2 5 82 100 78 82 91 2 0 5 5 6 4 0 0 0 0 0 0 0 0 0 1 74 4 4 44 5 30 67 10 5 5 9 100 100 12 5 5 95 75 99 94
3 2 4 54 100 29 98 1 5 0 0 1 5 22 5 4 0 0 1 0 0 1 5 5 5 5 5 5 5 5 5 5 5 12 98 100 56 5 30 100 90 99 100 96
0 1 5 12 31 68 42 5 2 0 0 5 5 2 0 0 2 0 3 5 5 5 5 5 5 5 5 5 5 5 5 33 100 100 100 95 67 81 98 96 99 100 100 100
30 99 95 17 26 60 8 5 5 4 1 5 5 5 5 4 0 5 5 5 5 0 0 1 4 5 5 5 5 26 81 100 100 99 64 63 99 98 98 93 97 100 100 100
72 100 100 100 55 84 82 5 6 5 44 5 5 5 5 5 5 5 5 5 5 5 5 5 5 7 32 55 94 90 100 99 92 78 100 100 100 100 100 95 94 95 100 84
28 92 71 100 98 100 98 6 66 64 6 5 5 10 5 5 5 5 5 5 5 22 41 8 50 47 100 100 100 100 98 91 96 100 88 80 83 90 100 100 99 76 62 38
5 4 73 100 100 100 100 100 6 7 6 32 81 9 5 34 35 21 6 21 36 61 61 75 73 100 100 100 100 88 71 100 93 93 90 92 78 99 100 100 100 88 34 5
4 1 12 100 100 99 100 99 5 13 51 9 5 5 32 52 14 39 7 5 7 32 53 95 100 100 100 99 100 100 100 99 100 100 100 100 100 100 92 82 40 6 5 5
5 10 10 100 100 100 100 70 12 100 97 21 18 53 30 14 18 16 24 35 26 39 100 100 100 100 99 100 99 91 95 82 63 90 100 99 99 99 92 18 5 5 5 5
21 36 62 100 100 100 100 100 79 22 42 28 62 36 5 5 5 44 95 99 88 100 100 100 100 100 99 92 90 78 66 80 91 90 100 100 100 84 62 10 1 2 5 4
5 79 100 100 100 100 100 100 100 92 82 90 58 30 13 6 6 39 91 100 100 100 100 100 99 88 89 77 84 34 44 84 92 100 100 100 100 80 54 90 46 5 5 3

GFSCGP_prec_cloud_063.txt.gz
Cloud_Cover
22 4 5 81 18 88 100 65 100 100 81 97 56 35 95 100 100 100 100 100 100 100 100 100 100 100 100 100 100 100 100 100 100 100 81 100 100 72 100 90 100 100 97 100
2 5 99 29 90 86 97 49 100 100 60 65 100 100 100 100 100 100 100 100 100 100 100 100 100 100 100 100 100 100 100 100 100 100 100 100 100 100 100 100 100 100 100 100
1 5 5 83 5 36 70 59 92 81 100 100 100 43 100 100 100 100 100 100 100 100 100 100 100 100 100 100 99 100 100 80 100 95 95 100 100 100 100 100 100 100 100 44
4 5 17 13 44 68 71 96 93 100 100 100 100 100 100 100 100 100 94 100 100 100 100 100 100 20 77 69 10 85 99 21 66 56 100 100 100 99 82 76 14 25 80 46
4 4 5 91 19 81 77 65 65 100 100 98 100 100 100 100 100 100 100 100 100 100 100 100 100 100 96 62 88 100 100 100 100 98 100 100 97 91 22 6 24 38 5 2
5 5 5 5 29 66 59 40 47 80 91 51 82 100 100 86 100 100 99 94 97 100 100 100 100 100 100 100 100 100 100 100 84 66 70 6 12 32 36 6 3 5 5 14
3 4 5 31 92 45 81 99 75 90 52 50 82 91 100 72 95 37 62 8 59 77 66 79 100 100 98 100 100 100 100 100 96 51 21 56 18 2 2 5 5 12 5 89
0 0 21 5 55 8 5 5 32 44 86 49 81 11 99 100 96 73 7 5 5 3 6 9 28 55 95 100 99 97 100 60 19 47 8 3 5 4 5 5 8 81 44 100
0 0 0 31 43 32 23 10 66 83 99 62 91 95 100 12 79 100 99 10 9 6 94 26 10 24 64 94 29 69 34 8 6 1 3 4 6 84 100 100 100 59 100 100
3 1 0 0 58 100 83 66 50 26 16 25 77 78 64 19 6 48 28 30 74 60 20 5 22 5 12 5 5 4 0 0 0 0 4 65 100 97 96 100 100 100 79 100
3 0 0 0 21 99 79 20 5 17 10 5 8 42 5 5 42 69 82 98 75 86 72 15 5 5 5 0 0 0 0 0 0 0 49 90 100 35 46 21 98 100 100 100
5 3 0 0 4 35 53 67 66 24 9 15 5 70 6 74 35 5 5 24 36 5 0 0 0 0 0 0 0 0 0 0 0 3 5 95 94 100 55 95 100 100 100 46
5 4 0 0 1 11 100 30 86 10 0 1 4 0 5 5 5 5 5 31 4 3 0 0 0 0 0 0 0 0 0 1 23 80 93 85 76 81 100 100 100 51 22 46
5 4 4 0 2 87 42 99 17 6 5 5 0 0 0 6 82 3 0 0 0 0 0 0 0 5 0 10 82 21 80 43 76 96 79 100 100 100 100 84 84 75 46 100
5 5 5 5 8 22 5 5 14 5 5 2 0 2 2 5 5 5 3 4 2 0 0 0 0 4 10 38 5 28 79 43 90 46 89 97 98 100 100 33 100 100 96 94
19 5 5 5 2 5 5 20 20 5 5 0 4 2 0 4 5 2 0 0 2 2 0 0 0 0 3 5 42 34 34 80 95 92 71 98 13 100 100 100 100 100 100 73
100 54 5 5 0 54 37 100 4 0 0 0 4 0 0 5 5 5 5 4 0 0 0 0 1 4 5 8 5 5 56 32 82 100 74 30 60 100 100 100 100 99 82 99
100 88 4 5 1 1 84 97 32 11 5 0 3 1 0 0 5 5 5 5 4 2 4 5 5 10 5 18 83 78 61 83 59 7 31 96 100 100 100 100 98 97 99 100
100 93 5 5 3 1 75 100 100 66 14 12 1 2 2 0 3 5 5 5 5 5 5 6 19 41 30 14 8 5 60 12 6 71 98 100 100 100 100 100 100 100 100 100
67 17 3 39 1 5 100 98 89 5 64 5 5 5 5 5 5 5 5 5 5 5 5 5 5 5 5 5 5 5 5 40 100 100 100 100 100 100 100 100 100 100 80 83
47 75 6 25 6 25 100 100 37 99 86 5 5 21 5 5 9 48 5 5 5 5 5 5 6 5 5 5 5 17 79 100 100 100 100 100 100 100 100 100 100 100 88 46
100 71 24 12 5 37 100 100 100 82 35 20 67 8 5 6 38 15 18 17 5 5 22 41 15 5 5 6 60 90 100 100 99 100 100 100 100 99 77 70 92 90 49 38
55 28 5 3 5 4 21 88 100 100 71 23 67 38 5 16 5 6 10 44 59 37 25 11 35 60 100 98 100 100 82 96 100 100 100 94 64 48 86 86 84 37 81 26
95 83 5 49 100 72 5 59 100 100 100 84 87 100 98 91 49 25 53 57 58 28 26 72 100 95 98 100 100 100 100 100 100 100 69 83 97 91 79 60 11 7 10 31
100 60 44 100 100 55 11 27 100 100 100 100 100 100 100 50 44 46 58 46 18 67 99 86 91 100 100 100 100 100 100 100 87 34 63 52 71 90 82 96 63 37 79 63
100 95 100 100 100 100 40 12 100 100 100 100 100 100 100 79 84 96 95 98 100 100 100 100 100 100 100 100 100 100 79 11 5 63 61 92 95 77 97 70 41 99 57 5

GFSCGP_prec_cloud_066.txt.gz
Cloud_Cover
0 0 0 13 3 21 30 93 96 42 88 93 100 100 100 100 100 100 100 100 100 100 100 100 97 100 87 100 97 67 100 100 100 100 100 100 100 97 100 100 100 97 100 100
0 0 1 10 5 16 66 97 100 90 100 100 100 100 100 100 100 100 100 100 100 100 100 100 100 72 6 100 100 100 100 100 100 100 100 100 100 100 100 100 100 100 100 100
0 2 4 2 10 5 5 64 94 38 96 87 100 100 100 100 100 100 100 100 100 100 100 100 100 100 100 100 100 100 100 100 100 100 100 100 100 100 100 100 100 100 100 100
0 0 0 0 5 5 11 81 98 7 5 34 58 100 100 100 100 98 100 100 100 100 100 98 100 100 100 100 100 100 100 100 100 100 100 100 100 100 100 100 98 37 62 88
0 0 0 4 5 5 54 46 58 89 98 50 92 97 100 100 100 100 100 100 98 100 100 84 83 100 100 100 100 100 100 100 100 100 100 100 100 100 100 100 81 45 15 83
0 0 5 1 5 5 23 29 94 85 100 100 78 80 100 97 100 100 100 99 94 31 88 100 100 100 100 100 100 92 100 100 86 42 100 100 100 100 95 77 69 46 16 34
0 0 5 4 0 12 16 53 69 70 52 98 70 47 84 100 100 100 100 90 68 91 100 100 100 99 96 99 98 100 98 98 100 100 100 100 100 64 85 38 6 4 14 94
0 0 0 0 0 3 5 47 71 79 94 83 100 72 94 97 64 98 100 100 100 100 99 100 100 99 100 100 100 100 100 82 98 99 100 100 100 46 15 5 5 2 5 9
5 4 0 0 0 0 5 5 66 100 88 80 97 84 23 100 98 99 96 100 100 100 49 28 33 89 98 100 100 100 100 100 100 100 100 87 39 5 0 5 37 98 5 76
0 2 4 0 2 2 5 5 5 41 93 85 43 52 64 50 72 49 91 88 91 100 96 91 14 5 5 48 66 88 100 100 100 100 50 7 1 0 3 40 5 17 92 100
0 2 5 5 0 2 35 6 5 5 27 80 55 33 16 5 5 14 14 19 20 37 42 7 5 5 14 48 88 100 87 54 56 7 0 0 0 59 100 95 95 73 64 100
3 5 0 5 5 0 0 0 5 5 5 100 60 74 19 82 75 68 60 42 7 11 6 5 5 4 29 49 78 29 8 0 0 0 1 5 70 45 39 98 100 100 100 100
5 5 4 5 5 4 0 0 3 5 5 32 100 15 80 5 4 1 2 5 59 5 0 3 4 5 5 0 4 2 3 5 24 41 6 95 88 98 99 66 100 100 91 11
5 5 3 3 2 5 1 0 5 16 66 44 18 5 0 1 0 3 5 2 0 0 0 0 0 0 0 1 7 5 100 100 100 82 46 84 72 82 72 89 100 89 76 94
4 6 7 0 0 4 4 2 5 5 92 80 66 27 5 0 0 0 4 3 0 0 0 0 0 2 0 3 10 81 84 81 100 94 55 100 100 99 95 100 94 97 100 100
5 22 5 5 4 1 5 0 3 61 100 100 52 100 0 0 0 0 0 5 0 0 0 0 0 5 4 38 5 5 5 5 65 100 100 100 100 100 100 100 77 100 100 98
9 16 99 7 5 4 5 0 6 85 25 52 72 46 5 0 0 1 2 5 4 5 5 0 0 0 2 5 5 8 64 61 98 100 100 100 100 100 99 92 86 98 99 68
45 91 100 98 72 81 5 0 0 0 8 2 51 9 0 0 2 5 5 0 5 5 5 5 5 5 5 5 6 79 76 45 100 100 100 100 100 98 100 100 100 85 79 100
100 100 100 94 100 79 100 1 0 0 0 4 17 5 5 57 8 5 5 2 0 5 5 5 13 62 95 100 100 96 98 100 100 100 100 100 86 100 93 99 87 99 99 97
100 100 67 100 84 63 100 14 0 0 3 3 5 5 15 54 66 5 5 5 5 5 5 5 5 5 5 29 81 96 100 100 100 100 100 100 100 94 98 100 100 99 64 87
100 100 100 97 10 69 100 57 0 0 0 5 29 58 82 62 49 15 5 5 5 5 5 5 5 5 6 34 100 100 95 100 100 100 89 100 100 99 100 100 83 6 43 51
100 100 100 97 10 100 47 91 4 0 0 3 5 50 97 98 90 62 19 11 6 5 5 5 5 5 13 45 64 100 100 100 90 98 100 95 98 98 45 54 47 30 6 24
100 100 100 30 17 100 100 91 5 5 1 0 0 5 99 100 100 63 21 28 60 51 38 58 89 59 34 87 68 12 39 76 100 100 90 98 55 41 74 71 40 31 73 60
100 100 100 100 63 97 96 100 7 14 6 5 0 5 99 100 100 100 100 91 80 58 91 100 63 54 70 66 54 71 100 100 100 98 34 42 85 81 70 29 18 45 38 9
100 100 100 56 99 100 100 100 23 94 38 5 5 37 100 100 100 100 100 100 98 88 97 85 75 60 63 76 98 100 100 100 97 36 60 79 72 85 34 73 82 99 100 100
100 100 100 100 100 100 100 100 100 99 47 17 5 49 100 86 84 88 100 100 100 100 100 100 100 100 100 100 100 100 100 82 32 56 57 57 64 59 81 84 100 100 100 100

GFSCGP_prec_cloud_069.txt.gz
Cloud_Cover
0 0 0 0 0 4 5 6 100 60 35 89 98 98 100 100 100 100 100 100 100 100 99 100 100 100 100 100 100 100 100 100 100 100 100 100 100 100 100 100 100 100 100 100
0 0 0 0 5 5 5 11 100 98 55 87 54 100 92 100 100 100 100 100 100 39 100 88 90 100 100 23 78 100 94 100 100 97 100 100 100 100 100 100 100 100 100 100
0 0 0 5 5 5 5 5 54 59 99 100 76 99 100 100 100 100 100 97 100 100 100 99 89 93 100 95 33 43 99 62 76 82 96 81 100 100 100 100 100 100 100 52
0 0 0 0 2 5 5 5 5 32 64 26 100 100 100 98 100 100 100 100 100 100 100 100 100 88 88 95 68 81 36 51 75 90 88 100 100 100 100 100 100 100 100 73
3 0 0 0 3 5 5 5 71 62 82 87 57 93 76 100 100 100 99 100 98 98 100 100 100 100 100 100 100 100 100 100 100 98 81 98 99 100 100 100 100 100 95 21
5 1 2 0 0 0 5 5 5 5 55 100 69 51 98 100 100 100 98 95 73 100 92 98 100 100 100 100 100 100 100 100 100 100 100 100 100 100 100 100 100 100 100 61
5 0 0 0 0 0 0 5 5 5 100 88 98 75 61 77 100 100 98 96 72 93 100 100 100 100 100 100 100 100 100 100 100 100 100 100 100 100 100 100 100 100 94 6
5 0 0 0 0 0 1 3 5 5 30 56 100 100 79 100 100 99 78 95 100 100 98 65 100 100 100 100 100 100 100 100 100 100 100 100 100 100 100 100 100 100 26 5
0 0 5 5 4 3 2 1 1 5 31 38 81 100 100 99 44 39 27 8 31 10 6 53 93 98 100 100 100 100 100 99 100 100 100 100 100 100 100 100 100 8 41 81
4 0 0 3 5 1 0 4 5 5 71 93 77 99 92 46 98 14 6 52 97 71 49 41 35 60 62 63 100 14 90 100 100 100 100 100 100 100 97 91 12 44 97 91
5 5 5 0 1 0 4 0 0 0 8 98 66 96 47 13 26 96 72 92 68 69 100 75 5 5 5 5 5 44 88 100 100 100 100 100 100 75 84 100 61 95 91 100
5 5 5 0 2 2 1 4 1 0 3 70 99 100 42 12 71 74 76 55 28 20 40 9 79 26 11 5 9 74 94 100 98 100 95 99 90 100 100 94 100 100 100 100
5 8 5 4 0 12 7 5 5 0 0 4 54 100 6 5 19 5 10 5 4 0 0 0 0 0 20 84 96 71 52 60 100 100 100 100 100 100 100 99 100 100 100 97
5 32 62 5 4 6 42 2 4 5 0 0 8 95 59 44 14 6 26 5 2 0 2 4 1 5 6 31 43 25 22 100 100 100 100 100 100 100 99 100 100 100 100 100
5 72 6 5 1 0 28 7 5 5 1 0 5 56 40 12 5 5 5 7 10 7 25 18 5 3 5 7 14 21 68 100 100 100 100 100 100 97 100 100 100 100 100 62
13 27 6 5 3 2 21 6 5 5 5 0 2 92 15 9 97 50 0 3 5 5 0 4 2 5 5 5 16 61 99 100 100 100 100 100 100 100 100 100 100 100 68 58
99 84 5 34 5 3 98 5 5 5 5 5 0 51 100 100 73 6 5 5 0 0 0 0 0 4 11 11 23 60 76 47 58 96 100 100 100 100 97 100 100 9 94 93
93 5 5 6 6 56 100 55 4 3 5 3 5 5 11 16 22 100 36 5 2 5 4 2 0 3 21 28 32 19 29 78 100 99 100 100 100 100 100 96 50 100 98 72
20 7 44 38 24 69 100 92 4 5 82 2 4 5 4 0 11 79 100 89 29 5 7 5 17 21 5 5 5 18 56 96 100 95 100 100 99 100 100 100 100 26 5 19
100 100 75 98 50 100 100 100 79 5 95 12 0 0 3 0 0 5 81 100 100 74 78 80 74 14 5 39 74 71 62 100 100 100 100 100 100 92 66 71 30 27 72 59
100 100 81 100 7 100 100 100 74 33 34 100 14 0 5 1 0 1 5 31 59 100 100 97 90 74 42 64 35 100 100 100 85 100 98 54 63 94 100 56 62 48 6 35
100 100 100 61 57 82 100 100 100 99 100 100 87 27 1 4 5 0 3 5 33 48 86 100 100 98 100 99 100 100 99 89 70 81 99 100 100 97 16 5 5 5 14 13
100 100 100 92 12 8 98 100 100 81 100 100 100 100 1 5 5 5 0 3 81 99 93 98 100 100 100 100 100 99 98 98 100 100 100 100 100 62 6 5 5 13 20 25
100 100 100 67 21 29 100 100 100 16 43 100 100 100 47 5 5 5 5 5 10 90 97 92 62 94 100 100 100 100 100 100 100 100 100 100 53 30 5 5 26 50 20 26
100 100 100 56 97 100 100 100 100 84 86 88 100 100 98 44 89 16 5 7 89 35 5 5 7 32 73 92 98 100 100 100 100 100 100 80 22 5 14 61 77 35 6 5
100 100 100 95 100 100 100 100 100 100 81 68 100 98 100 81 100 100 86 99 6 55 64 5 6 39 97 100 100 100 100 100 100 93 69 37 29 76 90 84 46 60 54 32

GFSCGP_prec_cloud_072.txt.gz
Cloud_Cover
2 0 3 4 0 5 1 22 44 96 15 9 57 99 87 100 98 100 100 100 100 87 100 100 100 100 100 100 100 100 100 100 100 100 100 100 100 100 83 100 100 100 100 100
5 0 3 0 0 3 22 99 89 63 48 92 98 78 64 30 52 100 100 100 100 100 100 83 100 100 100 94 100 100 100 100 100 100 100 100 100 100 100 100 100 100 100 100
5 4 0 0 3 4 20 42 13 38 50 100 71 8 45 22 5 98 100 100 100 64 100 100 100 100 100 100 91 100 77 85 100 100 100 100 100 100 100 100 100 100 100 100
5 5 0 5 5 3 97 12 2 26 100 99 19 100 6 5 5 61 99 53 100 78 36 100 100 100 100 99 100 100 54 43 56 75 26 57 99 100 100 100 100 100 100 91
5 5 3 0 0 1 65 5 5 5 38 68 7 76 100 5 56 47 99 100 65 96 95 5 91 100 6 39 43 82 41 58 91 84 97 74 90 100 100 100 100 100 100 99
42 5 5 0 0 4 5 5 5 5 5 100 94 6 100 100 86 72 63 90 85 100 86 100 100 91 100 100 97 98 100 100 100 100 100 100 100 98 100 100 100 100 96 100
57 5 5 5 0 0 5 8 88 78 67 79 77 10 93 38 78 98 97 90 90 91 100 97 100 100 100 100 100 100 100 100 46 76 93 100 100 100 100 100 100 100 95 100
73 5 5 5 5 4 0 24 100 97 71 95 27 11 14 20 100 100 68 83 73 58 32 29 50 79 100 100 100 100 100 100 100 100 100 100 100 100 100 100 100 100 100 100
16 43 43 5 5 1 3 1 3 2 3 70 19 5 5 10 5 6 5 5 34 54 86 98 100 100 100 31 95 100 98 99 100 100 100 100 100 100 100 100 100 100 100 100
94 9 19 5 5 5 5 17 6 3 20 15 42 73 19 5 5 5 25 71 14 53 54 27 27 17 13 5 5 5 6 21 69 74 100 100 100 100 100 100 100 100 100 90
100 26 46 5 5 5 5 5 4 24 18 5 12 67 100 24 65 12 10 10 12 17 31 60 43 96 100 95 6 5 5 5 5 27 95 100 100 100 100 100 100 100 94 98
55 44 90 5 5 56 82 93 70 33 87 1 35 100 8 27 94 28 5 7 70 100 100 70 5 5 6 5 7 50 7 6 5 34 100 100 100 100 100 100 100 100 100 100
99 40 10 5 5 17 93 30 5 64 6 5 1 35 12 4 74 41 59 65 4 7 99 100 65 0 0 3 5 14 66 61 70 100 100 100 100 100 100 100 100 100 100 100
100 100 86 22 5 5 10 20 5 29 34 16 5 2 81 5 5 8 28 34 30 5 36 66 3 2 0 3 11 36 48 46 32 100 100 100 100 100 100 100 100 100 100 100
100 100 100 38 5 5 83 5 5 5 33 52 5 4 11 0 4 74 12 5 6 14 18 3 0 2 2 13 66 75 65 52 91 100 100 100 100 100 100 100 100 100 100 100
100 100 100 100 88 5 96 25 5 5 14 45 6 5 5 0 3 5 5 6 14 87 100 10 5 4 5 26 80 100 98 100 100 100 100 100 100 100 100 100 100 100 100 100
100 100 100 100 91 28 100 31 11 4 5 5 9 5 5 3 4 5 80 73 96 68 88 89 68 6 1 38 70 100 100 100 100 100 99 100 100 100 100 100 98 100 100 98
100 100 100 100 36 97 100 74 70 56 100 5 5 5 5 5 5 5 4 0 9 70 100 98 99 97 44 61 96 100 100 100 98 93 82 83 66 98 100 100 52 100 100 100
100 97 88 100 100 100 100 100 22 25 100 7 5 5 5 5 5 5 5 5 3 2 0 23 93 100 100 93 82 73 72 78 56 42 36 79 100 100 79 64 100 99 100 100
100 100 47 73 99 100 100 100 55 9 100 5 81 8 5 59 61 5 5 5 5 5 1 3 6 46 100 100 100 100 100 100 100 100 100 94 66 70 100 90 100 100 100 100
99 96 71 88 100 100 100 100 70 20 100 47 85 80 98 98 45 100 28 18 28 26 5 5 6 5 32 40 91 100 95 81 93 100 100 100 100 95 100 91 94 100 100 96
100 100 93 79 96 100 100 99 26 63 62 98 100 100 100 100 36 98 100 100 67 49 24 26 17 8 5 26 59 90 98 94 100 100 100 100 100 100 100 100 100 95 94 99
100 96 100 100 100 100 100 100 96 95 13 7 90 100 100 100 100 100 100 100 95 56 85 6 42 26 90 87 98 100 91 47 24 91 100 100 100 100 100 100 96 61 35 64
100 100 100 86 98 100 100 100 92 28 80 75 63 100 100 100 100 71 100 100 100 88 98 5 96 24 5 22 32 85 8 5 9 70 91 98 97 92 98 56 46 47 99 83
100 100 100 100 99 100 100 100 71 93 84 43 84 87 100 100 52 8 94 100 100 100 98 100 100 100 23 6 27 19 5 6 62 89 100 100 100 100 100 94 94 85 81 34
100 100 100 100 100 100 96 96 92 100 100 100 100 100 97 86 15 19 92 94 100 100 100 100 100 100 38 8 65 64 56 93 89 100 97 100 100 100 90 53 96 91 11 5

GFSCGP_prec_cloud_075.txt.gz
Cloud_Cover
5 73 7 94 84 21 99 59 100 89 100 5 41 99 54 95 40 66 71 100 100 100 100 100 100 100 100 100 100 100 100 100 100 100 92 100 100 100 100 100 100 100 100 100
60 100 10 74 12 18 9 96 99 92 70 5 26 98 100 84 19 96 100 100 100 79 98 100 100 100 100 100 100 100 100 100 100 100 99 100 100 100 100 100 100 100 100 100
100 100 5 2 6 10 86 100 98 83 96 59 62 56 100 85 6 88 100 99 100 98 92 92 100 100 100 100 100 100 100 100 100 100 100 100 100 100 100 100 100 96 92 93
100 100 10 4 5 97 100 90 6 66 22 100 83 100 100 100 11 15 99 100 100 100 100 100 100 89 100 100 100 100 100 100 100 100 100 100 100 100 100 95 100 100 100 100
100 100 58 4 13 69 95 21 0 36 88 99 87 11 50 74 12 68 97 100 96 100 100 100 100 100 8 48 88 61 77 99 100 100 85 74 49 100 100 100 64 100 99 100
100 100 15 10 5 10 45 1 2 21 76 81 98 33 100 98 98 100 99 100 78 23 97 10 100 100 82 87 5 4 5 42 53 74 71 88 86 100 100 100 100 98 100 100
100 100 41 50 5 4 5 44 91 100 100 55 90 17 38 98 72 82 25 50 96 100 85 72 62 39 42 91 57 24 76 38 51 79 100 94 86 100 98 100 100 100 100 100
100 56 59 89 5 22 14 92 96 100 99 100 92 33 50 13 5 6 5 5 5 10 27 38 83 100 100 100 100 100 14 55 94 71 59 100 100 100 100 100 100 100 100 100
98 68 100 52 8 11 99 90 77 99 26 1 61 84 8 92 22 14 29 5 15 19 16 19 13 21 22 50 21 64 94 49 79 96 100 100 100 100 100 100 100 100 100 100
100 100 100 5 31 9 70 71 88 82 94 77 96 100 100 73 4 5 49 6 5 5 5 9 34 74 88 100 100 100 100 73 67 88 90 100 100 100 100 100 100 100 100 100
100 100 88 14 65 5 6 18 75 100 97 93 80 97 94 64 78 52 12 5 5 5 5 5 5 5 5 5 5 15 21 32 67 92 99 100 100 100 100 100 100 100 100 100
100 100 41 100 93 12 95 80 83 100 100 97 70 9 100 14 16 16 63 5 5 5 5 5 5 5 5 5 5 12 19 5 7 27 96 100 100 88 100 100 100 100 100 100
84 50 100 100 96 25 44 11 98 100 98 79 83 10 70 35 0 0 34 91 90 63 27 10 5 5 40 12 0 5 28 26 62 100 98 98 98 100 100 100 100 100 100 100
98 100 100 100 100 35 100 11 8 87 98 49 11 54 75 76 95 100 98 15 44 29 16 5 5 22 10 5 0 4 44 67 81 54 87 100 100 100 100 100 100 100 100 100
100 93 99 100 100 100 100 75 16 77 98 88 18 37 5 100 98 15 33 70 13 5 5 5 10 30 21 6 5 3 50 100 100 100 100 100 100 100 100 100 100 100 100 100
100 97 100 100 100 100 100 100 81 24 47 5 5 21 97 89 7 5 4 2 3 7 95 18 5 8 100 100 66 93 100 100 100 100 100 100 100 100 100 100 100 100 100 100
100 100 100 100 100 100 100 100 100 42 47 5 6 13 96 95 11 5 5 0 1 5 1 0 0 0 4 59 100 100 100 100 100 100 100 100 100 100 100 100 100 100 100 100
100 100 100 100 100 76 100 100 100 100 100 20 100 99 54 20 5 5 5 5 2 2 0 0 0 0 15 99 100 94 100 100 100 100 100 100 100 100 95 75 93 84 90 100
100 100 86 100 100 100 100 100 100 100 100 98 53 100 100 81 100 70 5 100 5 5 5 5 5 12 76 100 100 100 100 100 100 100 100 100 100 100 100 100 100 100 99 100
100 100 100 100 100 100 100 100 100 100 100 5 12 91 99 94 100 97 100 100 54 91 100 55 15 22 58 98 100 99 100 100 100 62 97 100 100 100 98 95 96 67 100 100
100 100 97 99 92 100 100 100 100 87 100 76 16 7 43 7 96 99 62 100 86 79 100 98 53 27 6 23 45 99 98 78 5 5 62 68 78 57 76 87 60 86 97 99
100 100 84 100 100 100 100 100 100 100 100 18 5 5 5 5 45 98 100 100 100 100 100 99 11 27 93 6 6 12 33 17 9 49 58 62 55 82 82 90 98 83 81 100
98 100 100 100 100 100 100 100 100 100 53 5 5 10 17 39 60 63 85 99 89 100 92 15 22 100 95 98 100 100 100 52 22 15 65 100 57 10 16 64 78 99 100 100
100 100 100 100 99 100 100 100 100 100 35 10 56 77 54 100 74 55 100 100 98 100 36 23 15 100 100 100 100 100 98 86 100 47 12 13 24 85 95 90 100 99 100 100
96 100 100 100 100 100 90 100 100 100 84 100 97 22 64 41 100 100 100 100 100 100 100 69 99 100 100 95 78 98 84 100 96 18 5 52 89 70 83 99 100 100 100 71
100 100 83 100 100 100 100 100 94 100 100 100 79 47 5 44 78 94 91 100 97 89 93 89 91 71 70 100 66 6 76 85 75 67 41 75 100 100 100 96 100 82 20 11

GFSCGP_prec_cloud_081.txt.gz
Cloud_Cover
13 94 83 5 18 26 100 100 96 2 67 71 83 4 0 39 7 3 0 49 76 73 100 100 100 100 100 100 100 100 100 100 100 100 100 100 100 100 100 100 100 100 100 100
2 94 100 5 41 17 100 100 99 0 66 94 20 1 1 11 5 27 39 69 72 95 100 76 93 66 47 70 71 77 79 100 100 100 100 100 100 100 100 100 100 100 100 100
5 73 79 5 66 16 92 100 100 2 5 48 4 0 66 31 2 76 99 84 76 21 99 46 64 95 8 18 27 98 64 96 100 93 97 76 98 99 100 100 100 100 100 100
5 86 85 32 87 31 100 100 100 6 84 2 4 4 2 4 5 4 11 5 13 21 72 100 55 16 5 5 0 1 54 47 16 90 57 11 42 100 100 96 100 100 100 95
6 54 100 14 100 65 100 100 100 6 5 0 2 22 5 70 5 0 0 33 19 5 5 88 100 98 5 5 5 38 41 45 97 100 100 100 100 100 100 100 100 100 100 100
5 66 99 99 100 100 100 100 100 6 5 4 14 91 6 26 4 2 2 5 32 99 83 12 61 43 57 22 54 100 100 100 97 90 82 99 100 100 100 100 100 100 100 100
5 5 100 99 100 100 100 100 100 25 5 5 63 55 0 79 24 6 2 6 6 33 99 94 5 60 99 49 58 93 100 80 11 31 55 41 72 100 100 100 97 100 100 100
100 59 100 100 98 100 100 100 100 12 5 5 84 95 81 32 65 22 5 4 2 0 37 98 90 5 5 24 100 100 100 100 64 20 6 5 10 57 62 86 100 100 100 100
1 5 100 100 19 100 100 100 100 96 57 97 100 48 100 90 94 100 39 24 0 0 1 3 5 5 45 5 4 92 100 100 100 100 23 12 74 82 15 8 37 100 100 100
10 61 67 100 100 97 100 100 100 100 100 38 91 88 87 33 77 82 85 0 0 1 16 4 2 6 4 5 6 86 100 100 98 100 83 5 32 5 11 62 79 99 100 87
79 60 18 100 14 100 100 100 100 100 32 100 9 49 23 73 100 14 84 5 1 4 4 13 72 8 5 71 95 91 59 95 100 93 70 8 2 5 96 44 9 12 85 100
84 100 96 100 93 100 100 100 76 100 72 95 77 18 98 8 23 95 86 5 5 0 0 0 0 10 46 8 80 100 92 100 100 89 38 99 24 4 79 100 100 100 100 100
100 56 100 100 20 97 100 57 100 100 15 100 30 35 98 100 69 100 14 61 5 2 0 0 0 0 0 2 31 96 75 67 6 5 11 8 31 41 95 100 100 100 100 100
89 6 6 82 51 99 100 100 100 100 100 99 5 14 99 100 99 73 96 5 25 6 5 5 0 0 0 0 0 2 2 18 10 33 100 41 58 77 100 100 100 100 100 100
10 5 89 100 100 100 100 100 100 29 100 99 92 87 31 45 47 42 4 5 3 5 5 5 5 2 0 0 0 0 0 4 4 40 76 96 99 100 100 100 100 98 100 93
6 5 92 100 100 100 100 79 97 86 100 100 100 100 100 97 5 13 100 67 27 8 5 5 5 8 36 0 0 3 37 55 73 100 100 100 100 100 100 100 100 100 100 100
40 18 95 91 100 100 100 82 97 100 100 100 100 100 100 100 96 36 90 7 4 37 5 4 5 44 5 5 11 83 99 98 100 100 100 100 100 100 100 100 100 100 100 100
100 100 100 99 100 82 100 100 100 100 100 100 100 100 100 100 100 100 100 99 79 28 4 0 5 4 1 4 40 54 73 98 96 100 100 100 100 100 100 100 100 100 100 100
100 100 100 100 100 25 95 100 100 100 100 100 100 100 100 100 78 36 99 100 70 53 8 5 5 7 17 41 18 43 80 98 100 100 100 100 100 100 100 100 100 100 100 100
100 100 100 100 100 24 100 100 100 100 100 100 100 100 100 100 100 100 100 100 90 94 21 5 5 5 6 5 5 18 100 100 100 100 100 100 100 100 100 100 100 100 100 100
54 100 100 100 100 94 100 100 100 100 100 100 100 100 100 100 100 100 100 100 83 6 5 7 7 78 85 13 5 6 68 100 100 100 100 100 100 100 100 100 100 100 100 100
100 100 100 100 100 99 100 100 100 100 100 100 100 100 100 100 100 100 100 100 100 30 5 24 97 100 83 78 5 5 25 56 51 54 95 100 100 100 100 100 100 100 100 100
79 99 100 100 100 100 100 100 100 100 100 98 26 5 45 11 21 76 100 99 97 80 5 62 100 100 69 34 5 5 55 37 5 73 92 100 100 100 100 100 100 100 100 100
100 100 100 100 100 100 100 100 100 100 100 100 27 91 100 99 100 100 76 16 74 77 16 99 96 17 72 54 5 10 5 18 66 99 100 100 100 100 100 100 100 100 100 100
100 100 100 100 100 100 100 100 100 100 100 98 98 96 64 90 88 75 78 66 57 99 100 80 56 76 51 60 43 50 91 37 96 100 100 100 100 100 100 100 100 100 100 100
100 100 100 99 100 100 100 100 100 100 100 100 100 100 68 99 94 79 72 84 100 93 79 95 94 100 97 60 96 68 96 100 100 100 100 100 100 100 100 100 100 100 100 100

GFSCGP_prec_cloud_087.txt.gz
Cloud_Cover
21 3 100 92 5 4 27 5 13 6 3 5 6 24 0 1 0 10 69 39 14 46 100 100 100 100 100 100 100 100 100 100 100 100 100 100 100 100 100 100 100 100 100 96
100 97 59 1 5 9 16 8 45 5 5 5 5 68 14 0 0 1 17 48 0 0 36 100 100 100 100 100 100 100 100 100 100 100 100 100 100 100 100 100 100 100 100 100
100 97 8 5 84 100 95 80 76 5 38 83 42 27 96 0 0 1 2 0 0 0 8 80 100 100 100 100 100 100 100 100 100 100 100 100 100 100 100 100 100 100 100 100
87 100 94 81 8 100 84 44 54 8 21 50 40 77 88 0 0 0 0 4 0 0 0 80 100 100 100 100 100 100 100 100 100 100 100 100 100 100 100 100 100 100 100 100
100 100 100 6 90 92 94 91 18 5 5 88 32 78 52 2 0 0 0 0 0 1 4 16 90 92 100 100 100 100 100 100 100 100 100 100 100 100 100 100 100 100 100 100
88 100 38 99 100 55 81 58 5 3 5 67 2 84 86 26 0 0 0 0 0 0 0 1 1 11 86 93 100 100 100 100 100 100 100 100 100 100 100 100 100 100 100 100
100 100 100 61 25 85 100 18 3 4 5 5 3 91 54 15 0 0 0 1 0 0 0 3 5 4 20 64 73 70 100 98 79 100 100 100 100 100 100 100 100 100 100 100
100 100 100 100 100 100 20 29 5 48 21 0 1 98 10 90 2 2 0 5 56 0 0 0 0 0 5 5 90 54 9 99 92 88 70 30 12 100 100 89 18 19 41 72
100 100 100 100 100 100 84 4 39 22 10 0 5 70 100 91 8 3 2 1 4 0 0 0 0 0 2 100 65 7 33 5 6 26 11 25 8 17 5 7 5 5 28 85
95 61 97 97 84 45 8 93 98 13 5 6 28 14 100 100 25 2 2 0 0 0 5 5 0 3 3 94 100 100 100 100 98 64 25 22 5 5 13 3 5 5 5 5
79 29 100 100 100 92 80 54 84 61 5 66 8 31 96 100 24 5 5 3 0 0 0 1 0 0 0 17 90 100 100 100 100 100 32 19 5 5 5 5 4 8 8 5
90 99 100 100 100 100 100 80 99 27 5 95 25 5 84 100 100 8 5 4 5 0 0 0 0 0 0 0 0 1 12 86 100 100 100 96 5 2 5 16 20 34 22 52
100 77 6 94 80 5 5 98 100 100 97 21 40 69 55 95 100 25 5 5 6 64 48 4 0 0 0 0 0 0 0 0 80 96 100 100 93 62 22 6 26 27 82 100
98 100 65 16 82 49 99 100 100 100 26 31 8 50 5 100 100 100 92 52 100 100 63 5 3 0 5 0 0 0 0 0 0 0 0 2 60 9 7 70 76 94 100 100
82 100 13 5 1 5 91 100 100 32 5 5 12 61 100 58 93 100 100 90 99 88 48 37 5 0 0 0 1 0 0 0 0 0 0 2 1 5 28 84 93 100 100 100
100 100 65 5 5 25 100 99 95 78 27 5 5 12 100 94 72 100 100 100 100 100 66 8 5 1 0 4 3 0 3 1 5 5 5 31 55 63 78 91 100 100 100 100
100 100 100 34 11 100 98 0 21 74 89 51 12 82 100 100 26 66 100 100 100 100 100 72 8 5 5 2 5 6 28 19 7 67 100 100 100 100 100 100 100 100 100 100
100 100 100 100 93 73 1 54 99 87 91 100 98 100 98 100 54 100 100 100 100 100 100 86 21 2 100 99 94 88 89 100 100 100 100 100 100 100 100 100 100 100 100 100
100 100 100 100 100 2 0 86 100 99 100 100 100 99 66 98 93 100 100 100 100 100 97 5 3 77 100 100 100 100 100 100 100 100 100 100 100 100 100 100 100 100 100 100
100 100 100 100 100 16 72 94 100 100 100 100 100 100 100 100 100 100 100 100 100 100 95 57 98 100 100 100 100 100 100 100 100 100 100 100 100 100 100 100 100 100 100 100
100 100 100 100 100 83 58 55 67 58 48 100 100 100 100 100 100 100 100 100 100 100 100 84 38 100 100 100 100 100 100 100 100 100 100 100 100 100 100 100 100 100 100 100
100 100 100 100 100 95 100 42 7 27 100 100 100 100 100 100 98 100 100 100 100 100 100 100 99 100 100 100 94 100 98 100 100 100 100 100 100 100 100 100 100 100 100 100
100 100 100 100 100 59 83 49 98 96 92 100 100 100 100 100 98 100 100 100 100 100 100 100 100 100 100 100 33 32 96 100 100 100 100 100 100 100 100 100 100 100 100 100
100 100 100 100 100 100 86 98 94 100 100 100 100 100 100 100 100 99 100 100 100 100 100 100 100 100 88 60 92 94 100 100 100 100 100 100 100 100 100 100 100 100 100 100
100 100 100 96 100 100 100 100 90 100 100 100 100 100 100 100 100 97 100 100 100 100 100 100 100 79 92 49 40 87 78 68 78 88 93 100 100 100 100 100 100 100 100 100
100 100 100 100 100 91 100 100 100 100 100 100 100 100 100 100 100 100 100 100 100 100 100 100 97 100 85 58 87 100 82 52 81 99 100 100 100 100 100 100 100 100 100 100

GFSCGP_prec_cloud_090.txt.gz
Cloud_Cover
100 100 34 100 87 92 8 18 5 5 5 5 0 5 5 5 5 5 29 86 100 39 20 99 100 100 100 100 100 100 100 100 100 100 100 100 100 100 100 100 100 100 100 100
96 100 100 100 5 5 50 4 89 15 3 4 5 1 2 5 7 8 0 48 70 54 94 95 100 100 100 100 100 100 100 100 100 100 100 100 100 100 100 100 100 100 100 100
100 100 100 80 36 62 100 48 9 36 3 6 5 2 4 5 5 63 5 1 0 24 59 89 99 97 100 100 100 100 100 100 100 100 100 100 100 100 100 100 100 100 100 100
100 100 94 100 100 100 100 31 3 6 36 86 8 74 2 5 4 36 0 0 1 0 3 8 100 100 100 100 100 100 100 100 100 100 100 100 100 100 100 100 100 100 100 100
100 100 100 66 97 44 100 31 5 12 41 6 36 65 1 0 0 48 0 0 0 0 0 0 32 100 100 100 100 100 100 100 100 100 100 100 100 100 100 100 100 100 100 100
100 100 100 99 100 100 100 42 92 8 5 74 15 64 61 0 9 57 3 0 0 0 0 0 9 100 100 100 100 100 100 100 100 100 100 100 100 100 100 100 100 100 100 100
100 100 100 100 100 100 100 100 82 5 70 100 29 99 100 3 71 96 4 0 0 0 0 14 52 100 100 100 100 100 100 100 100 100 100 100 100 100 100 100 100 100 100 100
100 100 100 100 100 100 100 98 3 5 100 21 95 100 100 5 98 100 5 0 0 4 2 1 8 29 80 100 100 100 100 100 100 100 100 100 100 100 100 100 100 100 100 100
100 99 89 100 100 100 46 99 89 31 6 59 100 100 100 8 54 100 18 0 0 5 4 5 0 3 9 47 84 100 96 83 100 100 81 99 100 100 100 100 100 100 100 100
98 100 100 100 100 100 100 100 100 54 37 99 100 100 100 10 93 98 99 4 0 0 0 1 0 0 0 4 18 48 18 32 68 94 28 40 11 50 91 100 100 93 100 67
100 100 100 100 100 100 100 100 100 97 95 63 97 100 100 4 100 100 100 7 1 0 4 2 0 0 0 0 0 94 91 22 30 94 93 17 5 5 5 5 12 9 5 5
100 100 100 100 100 100 100 100 99 93 5 29 54 100 100 1 100 100 100 80 36 5 3 0 0 0 0 0 0 0 4 88 62 5 78 100 31 5 17 88 95 5 68 35
95 100 80 100 100 100 100 100 100 89 52 44 77 100 100 4 85 100 100 100 43 5 0 0 0 6 4 0 2 0 0 0 2 78 98 100 100 100 100 58 46 98 5 100
8 12 99 100 100 100 100 100 100 100 98 100 52 100 100 5 94 100 100 100 100 80 5 2 72 14 0 1 92 0 0 0 0 0 1 2 29 5 54 98 100 80 100 100
64 5 56 99 100 100 100 100 100 87 69 4 82 77 100 20 49 100 100 100 100 100 10 75 56 5 0 2 9 5 2 0 0 0 0 0 0 0 0 0 2 66 100 96
91 82 29 94 86 100 6 5 8 5 5 0 2 7 100 75 58 99 74 100 100 100 94 89 49 100 5 0 0 3 1 0 0 0 0 0 0 0 0 0 5 34 91 100
92 100 66 51 70 100 97 5 5 3 5 5 5 33 77 92 100 98 100 100 100 100 100 100 100 100 100 38 1 0 0 2 2 1 5 20 16 14 59 66 84 95 100 100
5 99 100 97 100 91 9 1 0 0 0 5 5 43 49 100 100 75 80 100 100 100 100 100 100 100 100 98 87 99 98 82 44 88 98 100 100 100 100 100 100 100 100 100
0 41 100 95 100 72 100 53 0 0 0 4 4 36 39 100 44 100 100 100 100 100 100 100 100 100 100 100 100 100 100 100 100 100 100 100 100 100 100 100 100 100 100 100
0 49 100 100 100 96 100 100 95 5 0 100 98 78 100 100 86 100 100 100 100 100 100 100 100 100 100 100 100 100 100 100 100 100 100 100 100 100 100 100 100 100 100 100
96 99 100 100 100 86 100 96 96 12 6 100 90 100 100 100 100 100 100 99 100 100 100 100 100 100 100 100 100 100 100 100 100 100 100 100 100 100 100 100 100 100 100 100
29 100 100 100 100 100 100 100 100 90 78 77 27 100 100 100 100 100 100 100 100 100 100 100 100 100 100 100 100 100 100 100 100 100 100 100 100 100 100 100 100 100 100 100
19 100 100 100 100 100 100 100 100 100 100 88 42 100 100 100 100 100 100 100 100 100 100 100 100 100 100 100 100 100 100 100 100 100 100 100 100 100 100 100 100 100 100 100
2 100 100 100 100 100 100 100 88 77 16 52 99 99 100 100 100 100 100 100 100 100 100 100 100 100 100 100 100 88 100 100 100 100 99 100 100 100 100 100 100 100 100 100
8 96 100 100 100 100 100 48 8 32 34 98 92 100 100 100 100 100 100 100 100 100 100 100 100 100 100 100 100 100 100 100 88 24 94 100 100 100 100 100 100 100 100 100
0 2 99 100 100 100 100 99 100 23 74 100 87 75 100 100 100 100 100 100 100 100 100 100 100 88 100 95 91 100 100 76 61 76 100 97 100 100 100 100 100 100 100 100

GFSCGP_prec_cloud_093.txt.gz
Cloud_Cover
100 14 8 100 100 100 100 5 67 6 16 46 11 13 0 38 5 0 0 0 2 9 18 83 100 100 100 100 100 100 100 100 100 100 100 100 100 100 100 100 100 100 100 100
100 100 96 100 100 100 99 12 94 6 32 82 36 98 5 20 10 2 0 0 0 2 28 82 100 100 100 100 100 100 100 100 100 100 100 100 100 100 100 100 100 100 100 100
100 100 100 100 100 100 100 92 100 5 18 13 100 100 5 34 16 2 0 4 0 0 1 21 90 100 100 100 100 100 100 100 100 100 100 100 100 100 100 100 100 100 100 100
95 100 100 100 100 100 100 100 73 2 5 5 95 100 6 63 20 5 3 5 1 0 0 0 19 100 100 100 100 100 100 100 100 100 100 100 100 100 100 100 100 100 100 100
100 100 100 100 100 100 100 100 56 0 52 36 100 96 87 70 99 33 0 5 1 0 0 0 0 41 100 100 100 100 100 100 100 100 100 100 100 100 100 100 100 100 100 100
100 100 100 100 100 100 100 100 43 35 76 74 100 98 100 100 100 49 3 5 2 0 0 0 0 38 100 100 100 100 100 100 100 100 100 100 100 100 100 100 100 100 100 100
100 100 100 100 100 100 100 100 80 100 51 100 96 100 100 100 100 70 3 1 4 0 0 0 0 4 95 100 100 100 100 100 100 100 100 100 100 100 100 100 100 100 100 100
100 100 100 100 100 100 100 100 75 8 82 100 90 100 100 100 27 98 13 5 5 5 1 0 0 0 6 100 100 100 100 100 100 100 100 100 100 100 100 100 100 100 100 100
98 99 100 100 100 100 92 100 98 61 58 5 83 98 100 100 70 99 90 5 5 5 5 0 0 0 0 94 100 100 100 100 100 100 100 100 100 100 100 100 100 100 100 100
100 100 100 100 100 100 100 96 99 14 12 81 96 100 100 100 96 12 100 5 46 5 5 4 0 5 5 8 96 100 100 100 100 100 100 100 99 100 100 100 100 100 100 100
100 100 100 100 100 100 100 100 100 88 84 86 97 100 100 100 46 94 100 10 31 26 46 5 2 5 5 5 3 82 100 82 47 37 40 40 66 67 89 99 100 100 78 98
100 100 100 100 100 100 100 100 84 2 2 6 82 100 100 100 100 100 100 81 42 100 97 35 86 5 2 1 0 0 22 60 84 25 23 12 6 100 100 87 7 19 98 98
100 100 100 100 100 100 100 100 51 61 17 65 58 97 100 100 100 100 100 100 98 100 100 100 92 71 0 2 0 0 0 0 2 58 99 72 45 82 100 95 100 100 100 19
14 5 89 100 100 100 100 100 100 76 30 100 100 100 100 100 100 90 27 99 50 100 100 99 15 47 13 100 9 0 0 0 0 0 0 24 41 20 77 69 41 100 71 5
6 23 17 100 100 100 100 100 100 100 66 5 99 100 100 100 100 100 7 52 86 43 100 100 39 5 100 82 4 4 0 0 0 2 0 0 0 0 0 0 0 0 0 37
100 95 99 47 99 100 100 100 100 100 100 100 100 100 100 100 100 100 6 6 100 96 100 100 100 72 98 99 85 5 2 1 0 0 0 0 0 0 0 0 1 25 34 84
8 73 99 96 19 32 49 86 6 20 88 88 7 98 100 100 100 100 99 5 100 70 99 100 100 87 24 100 55 28 11 15 3 0 0 0 5 5 5 5 99 100 59 71
5 76 68 78 94 75 4 20 27 5 5 12 5 10 41 98 100 100 96 7 96 100 100 100 100 100 72 98 100 100 100 100 9 6 33 25 20 56 84 92 80 94 100 100
3 22 28 21 81 2 1 93 24 22 15 5 5 7 27 5 58 100 100 100 100 100 90 100 100 100 90 98 100 100 100 100 100 100 100 100 98 100 100 100 100 100 100 100
62 18 26 29 97 4 0 10 59 68 7 5 5 3 0 10 9 98 100 100 83 95 100 100 100 100 100 100 100 100 100 100 100 100 100 100 100 100 100 100 100 100 100 100
96 99 95 49 100 18 98 100 100 100 74 9 22 5 5 5 3 60 100 100 100 100 100 100 100 100 100 100 100 100 100 100 100 100 100 100 100 100 100 100 100 100 100 100
25 95 100 89 100 99 100 98 100 100 100 100 92 32 5 5 8 97 100 100 100 100 100 100 100 100 100 100 100 100 100 100 100 100 100 100 100 100 100 100 100 100 100 100
0 5 100 100 100 100 100 100 100 100 100 100 99 63 54 70 100 100 100 100 100 100 100 100 100 100 100 100 100 100 100 100 100 100 100 100 100 100 100 100 100 100 100 100
2 2 100 100 100 100 100 100 99 100 100 100 100 88 61 100 100 100 100 100 100 100 100 100 100 100 100 100 100 100 100 100 100 100 100 100 100 100 100 100 100 100 100 100
3 4 100 100 100 100 100 100 100 100 100 100 98 90 100 100 100 100 100 100 100 100 100 100 100 100 100 100 100 100 100 96 85 92 100 100 100 100 100 100 100 100 100 99
18 1 97 100 100 100 100 100 100 99 100 99 83 16 76 82 100 100 100 100 100 100 100 100 100 100 100 100 100 100 100 95 90 99 100 100 92 100 100 100 100 100 100 100

GFSCGP_prec_cloud_096.txt.gz
Cloud_Cover
100 91 98 100 100 100 100 100 100 100 96 15 5 81 6 4 6 80 5 4 0 0 0 0 6 33 92 100 100 100 100 100 100 100 100 100 100 100 100 100 100 100 100 100
100 13 93 100 100 100 100 100 100 100 9 13 56 100 99 4 5 95 5 5 0 0 0 0 0 23 78 100 100 100 100 100 100 100 100 100 100 100 100 100 100 100 100 100
98 100 100 100 100 100 100 100 100 100 24 5 60 90 100 4 8 34 5 48 0 0 0 0 4 46 76 84 100 100 100 100 100 100 100 100 100 100 100 100 100 100 100 100
73 100 100 100 100 100 100 100 100 100 71 5 55 100 100 2 8 48 5 5 4 0 5 0 0 6 83 73 100 100 100 100 100 100 100 100 100 100 100 100 100 100 100 100
86 100 100 100 100 100 100 100 100 100 100 13 12 57 100 33 16 88 3 37 5 0 4 0 0 0 56 99 96 93 100 100 100 100 100 100 100 100 100 100 100 100 100 100
100 100 100 100 100 100 100 100 100 100 100 4 46 74 100 87 48 99 5 88 10 1 1 4 0 0 1 99 100 100 100 100 100 100 100 100 100 100 100 100 100 100 100 100
100 100 100 100 100 100 100 100 100 100 7 11 98 76 100 99 43 97 5 99 17 5 5 5 0 0 0 28 96 100 100 100 100 100 100 100 100 100 100 100 100 100 100 100
100 100 100 100 100 100 100 100 98 100 100 100 100 22 96 100 97 6 14 98 9 5 42 11 1 0 0 0 74 87 83 100 100 100 100 100 100 100 100 100 100 100 100 100
100 100 100 100 100 100 100 52 100 100 92 5 96 67 54 100 100 7 50 99 83 15 2 93 7 0 0 0 1 77 62 100 100 100 100 100 100 100 100 100 100 100 100 100
100 100 100 100 100 100 100 100 100 100 100 47 47 60 100 100 100 9 40 73 83 28 5 56 65 1 0 0 0 14 3 8 84 100 100 100 100 100 100 100 100 100 100 100
90 100 100 100 100 100 100 100 100 100 92 61 66 100 100 100 100 91 10 35 83 94 5 19 100 6 0 0 0 6 24 1 1 86 100 100 100 100 100 100 100 100 100 100
94 92 100 100 100 100 100 100 60 27 6 9 43 83 98 100 100 100 5 5 91 100 5 5 66 96 5 0 0 0 69 16 0 5 9 7 31 61 27 92 100 100 99 100
73 21 100 100 100 100 100 100 74 20 64 8 40 91 43 79 100 100 95 100 100 100 33 45 9 100 5 5 25 0 0 0 0 1 23 16 17 5 36 89 54 75 13 15
32 6 10 100 100 100 100 100 62 7 5 17 9 96 100 100 100 100 100 100 67 83 100 100 100 100 91 5 5 0 1 0 0 0 2 24 22 5 5 48 30 12 10 50
100 29 53 21 100 100 100 100 100 98 71 9 90 99 100 100 100 100 100 100 100 100 100 100 75 76 100 48 5 5 5 5 0 0 0 0 0 0 0 4 5 5 49 85
89 87 63 40 90 100 100 94 98 100 100 100 100 99 100 100 100 100 100 100 100 80 93 85 80 9 100 100 100 86 53 5 0 0 1 0 0 0 0 0 2 0 0 0
100 96 99 22 57 76 32 100 83 94 100 16 4 88 100 100 100 100 100 100 100 100 98 100 92 36 100 100 100 100 88 4 5 5 0 2 1 5 5 13 39 75 73 86
99 100 100 72 72 82 51 100 100 100 100 100 50 100 100 100 100 100 100 100 100 100 62 70 100 100 63 95 100 100 99 100 30 37 12 4 6 25 52 89 100 100 100 100
86 97 100 96 4 1 21 54 95 100 65 13 5 18 100 100 100 100 100 100 100 98 49 100 57 99 88 100 100 96 90 94 100 100 100 98 95 99 98 100 100 100 100 100
91 100 100 100 95 16 14 82 92 83 89 52 6 78 100 5 5 94 100 100 100 100 100 100 55 63 90 33 100 100 100 100 100 100 100 100 100 100 100 100 100 100 100 100
100 100 97 97 100 97 28 24 8 28 93 24 5 82 99 69 2 7 6 99 100 100 100 100 100 100 100 100 100 100 100 100 100 100 100 100 100 100 100 100 100 100 100 100
50 80 96 99 100 90 15 16 90 89 19 57 17 76 100 63 0 16 100 100 100 100 100 100 100 100 100 100 100 100 100 100 100 100 100 100 100 100 100 100 100 100 100 100
79 32 94 60 62 73 30 100 100 98 100 100 12 100 100 100 56 100 100 100 100 100 100 100 100 100 100 100 100 100 100 100 100 100 100 100 100 100 100 100 100 100 100 100
100 79 53 100 100 100 100 100 100 100 100 100 100 100 100 100 97 100 100 100 100 100 100 100 100 100 100 100 100 100 100 100 100 100 100 100 100 100 100 100 100 100 100 100
100 100 99 100 100 100 100 100 100 100 100 100 100 100 98 80 100 100 100 100 100 100 100 100 100 100 100 100 100 100 100 100 100 100 100 100 100 100 100 99 100 100 100 100
47 41 95 100 100 100 100 100 100 100 100 100 100 100 100 100 100 100 100 100 100 100 100 100 100 100 100 100 100 100 100 100 100 100 100 100 100 100 100 100 100 100 100 100

GFSCGP_prec_cloud_099.txt.gz
Cloud_Cover
2 5 1 23 100 100 100 100 100 100 100 99 100 100 100 100 51 31 5 5 4 4 0 0 0 1 65 100 90 100 100 100 100 100 91 100 100 100 100 100 100 100 100 100
0 0 77 100 100 100 100 100 100 100 94 68 100 100 100 100 45 5 5 5 5 5 0 0 0 0 83 100 100 84 100 100 100 100 100 100 100 100 100 100 100 100 100 100
0 1 58 100 100 99 100 100 100 100 100 58 98 62 100 100 95 5 5 13 5 5 1 0 0 0 37 100 100 100 100 100 100 100 100 100 100 100 100 100 100 100 100 100
0 0 87 93 100 100 100 100 100 100 100 16 97 97 99 100 95 5 5 5 4 57 1 0 0 0 2 100 100 100 100 100 100 100 100 100 100 100 100 100 100 100 100 100
0 0 100 12 100 100 100 100 100 100 100 68 5 61 100 100 48 5 5 8 5 86 5 0 0 0 0 36 100 98 100 100 100 100 100 100 100 100 100 100 100 100 100 100
0 0 83 66 100 100 100 100 100 100 100 60 98 100 100 100 100 9 5 11 5 5 66 0 0 0 0 31 100 100 100 100 100 100 100 100 100 100 100 100 100 100 100 100
0 0 17 100 100 100 100 100 100 100 100 62 98 100 100 100 100 9 24 79 84 5 48 5 0 3 0 10 97 95 100 100 100 100 100 100 100 100 100 100 100 100 100 100
0 2 37 100 100 100 100 100 100 100 100 100 100 100 100 100 100 46 41 100 91 17 4 33 0 2 5 0 12 35 100 100 100 100 100 100 100 100 100 100 100 100 100 100
15 5 47 100 100 100 100 88 93 100 100 100 100 90 96 74 100 100 15 94 99 21 7 82 0 2 5 0 0 0 10 27 98 100 100 100 100 100 100 100 100 100 100 100
99 4 29 100 100 100 100 100 100 100 100 100 100 100 100 100 100 100 68 38 76 62 5 96 7 0 73 4 0 0 0 0 12 96 100 100 100 100 100 100 100 100 100 100
26 51 34 100 100 100 100 100 100 100 100 100 100 100 100 100 100 100 96 51 100 5 42 60 97 0 1 8 2 0 0 0 0 2 96 100 100 100 100 100 100 100 100 100
43 78 61 90 100 100 100 100 100 100 100 100 100 100 100 100 93 100 100 68 12 5 31 32 100 2 3 23 17 0 0 0 0 0 1 32 100 100 100 100 100 100 100 100
97 35 9 11 100 100 100 100 100 100 100 100 100 100 100 100 100 100 100 100 100 5 13 10 100 29 0 1 98 6 0 0 0 0 0 2 22 90 100 100 100 100 100 100
5 0 20 72 100 100 100 100 100 100 100 100 100 100 100 100 100 100 100 100 100 85 35 13 97 81 5 1 13 75 2 0 0 0 0 0 0 5 14 35 41 23 62 60
83 11 4 32 100 100 100 100 100 100 100 100 100 100 100 100 96 100 100 100 95 98 71 78 41 5 33 5 1 17 11 0 0 0 0 0 0 7 18 37 43 46 48 28
84 86 96 78 98 43 100 100 100 100 100 100 100 84 65 100 85 97 84 100 100 99 100 100 93 51 45 8 16 5 52 23 5 4 0 0 0 1 15 10 15 44 60 85
46 46 94 79 75 98 6 100 100 100 100 100 100 100 100 86 100 100 100 100 100 100 86 99 100 92 88 81 100 24 100 96 100 25 5 5 3 13 40 70 100 100 100 100
84 57 57 5 96 54 96 39 79 100 100 100 100 7 97 99 54 97 100 90 100 100 100 99 58 74 85 98 100 100 84 90 100 100 100 22 27 41 82 100 100 100 100 100
96 98 96 62 8 21 90 89 98 98 99 100 100 74 100 100 97 98 100 100 92 65 100 100 100 99 85 98 94 80 80 96 17 96 100 100 100 100 100 100 100 100 100 100
100 100 100 95 100 92 44 72 35 99 100 70 100 98 100 100 100 100 100 86 5 30 62 24 9 13 100 100 100 72 54 75 98 100 100 100 100 100 100 100 100 100 100 100
99 98 85 98 100 87 5 47 43 100 56 85 87 98 9 95 70 100 100 100 100 100 100 99 100 100 100 100 100 100 100 100 100 100 100 100 100 100 100 100 100 100 100 100
96 99 96 100 100 99 88 69 19 50 43 60 95 98 89 46 100 100 92 100 100 100 100 100 100 100 99 100 100 100 100 100 100 100 100 100 100 100 100 100 100 100 100 100
100 100 100 82 71 71 88 57 96 5 5 52 69 89 98 88 100 40 100 100 100 100 100 100 100 100 100 100 100 100 100 100 100 100 100 100 100 100 100 100 100 100 100 100
100 100 98 75 70 100 100 74 24 100 100 96 100 22 84 100 100 100 100 100 100 100 100 100 100 100 100 100 100 100 100 100 100 100 100 100 100 100 100 100 100 100 100 100
100 78 67 100 100 100 95 100 100 100 100 100 97 100 53 100 100 100 100 100 100 100 100 100 100 100 100 100 100 100 100 100 100 100 100 100 100 100 100 100 100 100 100 100
96 97 100 100 100 100 100 100 100 100 100 100 100 100 100 100 100 100 100 100 100 100 100 100 100 100 100 100 100 100 100 100 100 100 100 100 100 100 100 100 100 100 100 100

GFSCGP_prec_cloud_102.txt.gz
Cloud_Cover
5 0 0 0 0 0 4 20 5 33 100 100 100 96 98 95 9 100 100 100 100 51 5 0 0 0 0 0 39 100 100 100 100 100 100 100 100 100 100 100 100 100 100 100
0 0 0 0 0 0 0 5 2 6 100 100 100 100 100 100 51 100 100 100 86 100 28 0 0 0 0 0 100 100 96 100 55 100 100 100 82 100 98 100 100 100 100 100
3 0 0 0 1 0 0 5 40 22 100 98 99 68 100 100 9 100 100 100 29 5 12 0 0 0 0 2 100 100 100 100 99 100 100 100 100 100 100 100 100 100 100 100
0 0 0 0 5 12 0 0 76 100 100 87 100 73 98 100 97 100 86 73 73 5 0 3 0 0 0 20 100 100 99 100 100 100 100 100 100 100 100 100 100 100 100 100
0 0 0 0 0 4 5 46 100 100 100 100 100 98 100 100 100 100 100 100 44 5 2 0 3 0 0 10 99 100 100 100 100 100 100 100 100 100 100 100 100 100 100 100
0 0 0 0 3 4 26 80 100 100 100 65 100 47 95 100 100 100 100 100 41 6 1 4 5 0 0 0 79 100 100 100 100 100 100 100 100 100 100 100 100 100 100 100
0 0 0 0 0 0 0 32 92 92 71 83 100 77 96 100 100 100 100 100 86 5 5 5 5 2 0 0 35 99 100 100 100 100 100 100 100 100 100 100 100 100 100 100
0 0 70 2 0 0 0 26 42 100 95 100 100 76 52 100 100 100 100 100 100 45 5 18 5 3 0 0 38 100 100 100 100 100 100 100 100 100 100 100 100 100 100 100
68 7 90 79 1 0 0 80 100 93 100 100 100 100 100 100 100 100 100 100 100 100 20 39 5 5 0 0 1 53 100 100 100 100 100 100 100 100 100 100 100 100 100 100
64 12 11 87 32 0 0 14 100 100 100 100 100 100 100 100 100 100 100 100 100 99 32 45 26 5 2 2 0 0 3 15 97 100 100 100 100 100 100 100 100 100 100 100
78 2 0 3 84 0 0 11 100 100 99 100 100 100 100 100 100 100 100 100 90 100 100 89 22 5 5 4 0 0 0 0 12 100 100 100 100 100 100 100 100 100 100 100
0 0 5 0 22 100 24 81 100 100 80 100 100 100 100 100 100 100 100 100 100 58 100 96 5 31 18 59 1 0 3 0 0 1 100 100 100 100 100 100 100 100 100 100
23 2 12 0 0 59 58 100 100 100 100 83 100 97 100 100 100 100 100 100 100 100 100 98 6 98 12 74 64 0 0 0 0 0 0 69 40 97 100 100 100 100 100 100
1 4 61 88 22 18 12 100 100 100 100 100 49 100 100 100 100 100 100 100 100 100 91 43 19 46 5 29 100 8 1 1 4 0 0 0 20 4 1 81 100 100 100 100
1 86 48 3 3 89 100 90 100 100 100 100 100 100 100 100 100 100 10 100 100 98 100 100 100 47 5 5 5 5 4 14 0 4 0 0 0 0 11 20 32 100 100 100
100 60 6 30 0 2 100 100 100 100 100 100 100 54 100 100 100 96 100 100 100 100 100 100 100 68 100 13 58 93 14 5 21 0 0 0 0 0 1 30 0 0 19 96
5 80 100 13 11 1 2 8 100 100 100 100 100 100 100 100 100 100 100 100 100 100 100 100 100 100 22 96 100 67 5 58 79 4 1 5 6 0 8 20 37 96 100 100
10 100 100 72 10 87 0 0 77 100 100 100 100 100 100 100 100 100 100 100 100 100 100 99 65 100 98 57 28 5 9 7 100 98 4 6 19 62 96 92 100 100 100 100
7 86 100 100 91 12 57 86 98 64 100 98 100 100 100 99 100 100 100 100 80 39 100 63 95 96 97 94 100 88 100 100 100 19 79 40 83 84 100 100 100 100 100 100
89 19 91 100 47 4 3 74 70 5 100 100 100 82 97 100 100 100 100 70 5 21 85 100 100 91 83 68 85 100 100 100 63 97 100 82 51 100 100 100 100 100 100 100
59 45 29 37 100 22 70 100 58 5 39 100 100 100 100 64 91 100 100 100 98 100 40 6 15 83 100 100 100 100 100 100 100 100 100 98 100 100 100 100 100 100 100 100
100 94 98 96 100 70 2 0 13 13 26 100 100 100 100 100 73 100 100 100 100 100 100 92 98 100 99 79 83 95 100 100 100 100 100 100 100 100 100 100 100 100 100 100
100 82 99 53 26 92 69 89 57 32 7 66 59 6 12 99 100 100 100 100 100 100 100 100 100 100 100 100 100 100 100 100 100 100 100 100 100 100 100 100 100 100 100 100
100 100 100 100 100 100 100 77 9 4 5 40 20 75 11 62 100 100 100 100 100 100 100 100 100 100 100 100 100 100 100 100 100 100 100 100 100 100 100 100 100 100 100 100
100 100 100 100 55 98 82 61 87 54 87 94 97 82 100 100 100 100 100 100 100 100 100 100 100 100 100 100 100 100 100 100 100 100 100 100 100 100 100 100 100 100 100 100
100 100 100 100 100 100 80 100 100 100 100 100 100 100 100 100 100 98 100 100 100 100 100 100 100 100 100 100 100 100 100 100 100 100 100 100 100 100 100 100 100 100 100 100

GFSCGP_prec_cloud_105.txt.gz
Cloud_Cover
87 13 56 15 5 5 0 0 0 0 0 0 0 0 5 99 100 96 89 99 82 100 100 100 100 0 0 0 0 0 40 94 71 100 100 100 100 100 100 100 100 100 100 100
100 98 100 63 11 2 0 0 0 0 0 0 0 0 5 44 60 76 100 92 99 49 100 100 37 0 0 0 0 15 100 100 92 95 100 100 100 100 100 100 100 100 100 100
100 72 10 5 3 2 0 0 0 0 0 0 0 0 1 93 92 71 100 100 36 94 100 100 3 0 0 0 0 83 100 100 56 100 97 100 100 100 100 100 100 100 100 100
34 99 22 4 1 0 0 0 0 0 0 0 0 0 5 99 72 89 100 66 67 100 100 99 4 3 0 0 0 80 100 99 80 100 100 100 100 100 100 100 100 100 100 100
30 6 5 0 0 0 0 0 36 58 1 0 0 3 5 100 99 100 100 100 100 100 100 100 4 3 0 0 0 27 100 100 99 100 100 100 100 100 100 100 100 100 100 100
77 91 4 0 0 0 0 0 0 37 26 4 3 76 0 100 95 100 100 100 100 100 100 100 3 4 0 0 0 28 100 100 100 100 100 99 100 100 100 100 100 100 100 100
5 1 0 0 0 0 0 0 3 32 5 0 13 98 0 94 100 100 100 100 100 100 100 100 6 9 0 0 0 0 100 100 100 100 100 100 100 100 100 100 100 100 100 100
0 0 0 1 2 0 0 0 3 19 5 0 2 100 7 100 100 100 100 100 100 100 100 99 6 25 5 2 0 0 94 100 100 100 100 100 100 100 100 100 100 100 100 100
0 5 0 0 5 40 2 0 0 92 5 0 22 96 100 69 100 100 100 100 100 92 100 99 5 5 5 4 0 0 9 100 100 100 100 100 100 100 100 100 100 100 100 100
0 5 0 1 2 12 41 20 0 60 100 57 100 100 100 100 100 100 100 100 100 100 99 100 100 98 20 5 0 7 0 100 96 100 100 100 100 100 100 100 100 100 100 100
70 10 0 1 90 100 61 5 0 39 68 76 100 100 100 100 100 100 100 100 100 98 79 100 100 100 49 5 5 5 2 45 99 84 81 92 100 100 100 100 100 100 100 100
3 4 0 10 100 96 89 100 60 97 1 0 98 100 100 100 100 100 100 100 100 100 98 100 100 100 98 5 5 5 5 0 1 62 55 3 100 100 100 100 100 100 100 100
13 0 2 0 11 100 6 86 100 32 17 0 28 100 100 100 100 100 100 100 100 100 100 100 100 98 100 5 5 5 61 5 0 75 98 26 34 99 100 100 100 100 100 100
0 0 0 16 0 8 3 74 100 100 100 76 87 100 100 100 100 100 100 100 100 100 100 100 100 91 100 72 5 7 80 22 34 0 26 100 100 0 73 100 100 100 100 100
0 1 0 0 0 0 5 100 100 100 100 100 100 100 100 100 100 100 100 100 100 100 100 98 100 100 56 79 28 52 6 5 5 0 0 6 79 0 0 14 89 100 100 100
91 5 3 0 0 0 4 98 100 91 72 100 100 100 100 100 100 100 100 100 100 100 78 100 100 99 100 97 48 47 26 18 5 0 0 0 0 0 1 0 0 10 88 100
5 35 41 4 1 0 0 43 11 18 97 100 100 100 100 100 100 100 100 92 54 90 100 100 100 71 100 100 38 88 73 65 5 5 1 1 36 4 2 2 7 22 99 100
0 4 6 3 92 60 0 0 0 5 98 100 100 94 100 100 100 77 100 99 100 100 99 100 100 55 100 100 89 17 43 44 19 5 5 5 15 5 11 88 100 100 100 100
0 47 27 100 98 16 0 100 16 43 53 100 100 100 100 100 100 100 100 100 100 99 87 99 59 93 100 100 79 100 100 100 84 48 45 6 5 23 50 100 100 100 100 100
5 3 72 99 98 5 99 100 100 92 98 100 97 100 100 100 100 75 100 100 100 100 100 100 100 100 100 100 100 97 100 100 99 42 100 100 100 100 100 100 100 100 100 100
100 22 24 94 100 6 100 59 100 100 30 100 100 100 100 100 100 100 75 88 65 93 100 100 100 100 100 93 68 100 98 100 100 100 100 100 100 100 100 100 100 100 100 100
100 76 72 88 100 99 32 4 43 49 10 21 100 100 100 100 100 100 100 100 99 100 100 100 100 100 100 97 99 100 100 100 100 100 100 100 100 100 100 100 100 100 100 100
100 72 43 6 99 69 100 92 98 62 5 0 71 100 100 100 100 100 100 100 100 100 100 100 100 100 100 100 100 100 100 100 100 100 100 100 100 100 100 100 100 100 100 100
100 100 100 97 74 49 100 88 98 21 5 4 99 100 100 100 100 100 100 100 100 100 100 100 100 100 100 100 100 100 100 100 100 100 100 100 100 100 100 100 100 100 100 100
100 100 100 100 100 100 100 100 98 51 16 24 99 21 99 100 100 100 100 100 100 100 100 100 100 100 100 100 100 100 100 100 100 100 100 100 100 100 100 100 100 100 100 100
100 100 100 100 100 100 100 79 87 99 90 100 78 100 100 98 100 100 100 100 100 100 100 100 100 100 100 100 100 100 100 100 100 100 100 100 100 100 100 100 100 100 100 100

GFSCGP_prec_cloud_108.txt.gz
Cloud_Cover
99 84 76 100 100 91 100 82 100 100 100 5 3 0 0 0 0 0 3 88 14 5 73 100 100 8 100 67 1 0 1 32 22 100 100 100 100 100 100 100 100 100 100 100
97 80 100 100 99 100 100 100 100 98 58 0 0 0 0 0 0 0 1 40 33 95 34 100 100 3 100 78 4 2 6 45 12 16 100 100 100 100 100 100 100 100 100 100
97 84 100 100 100 100 90 55 6 2 3 0 0 0 0 0 0 0 0 96 52 100 94 68 100 23 100 42 5 0 11 21 12 14 77 100 100 100 100 100 100 100 100 100
100 100 100 100 100 100 81 70 5 0 0 0 0 0 0 0 0 0 1 96 100 98 100 98 100 52 100 12 0 0 6 47 100 34 15 94 100 100 100 100 100 100 100 100
100 100 100 100 100 100 62 21 5 0 0 0 0 5 0 0 0 0 5 100 100 100 99 100 100 64 100 12 0 0 18 97 100 96 48 33 100 100 100 100 100 100 100 100
97 100 100 100 77 28 36 5 2 0 0 0 0 2 3 0 0 0 73 100 100 100 87 100 100 97 100 47 0 0 30 40 99 100 100 100 100 100 100 100 100 100 100 100
100 100 100 55 12 6 5 5 0 0 0 0 0 0 0 0 0 0 83 99 87 21 8 100 100 100 100 92 12 7 69 61 100 100 100 100 82 100 100 100 100 100 100 100
100 100 100 100 97 88 41 6 4 4 0 0 0 1 0 0 0 0 28 97 17 82 100 100 100 55 100 95 8 11 22 58 95 100 96 91 93 98 100 100 100 100 100 100
54 3 64 92 8 5 5 5 3 8 3 0 1 0 0 0 0 5 100 100 97 100 79 100 100 100 100 88 2 11 0 15 37 100 100 100 23 75 100 100 100 100 100 100
74 66 28 50 96 100 72 5 4 15 44 2 0 0 0 3 28 100 100 100 45 70 100 100 100 100 100 24 1 4 2 0 27 100 100 100 93 69 100 100 100 100 100 100
24 45 6 5 29 46 42 45 84 14 81 15 3 4 1 20 100 100 100 100 39 97 63 100 100 100 6 5 82 6 0 5 11 100 100 100 79 60 100 98 100 100 100 100
93 30 0 3 5 2 5 100 100 100 16 2 5 1 26 94 67 100 100 100 86 100 100 65 100 100 100 86 100 100 0 5 4 71 100 100 81 53 100 100 100 100 100 100
12 3 0 0 0 15 100 100 100 100 93 89 80 13 88 100 100 100 100 100 100 100 95 96 100 100 96 89 100 100 4 5 5 6 87 100 100 57 86 100 100 100 100 100
78 1 0 0 0 0 40 100 98 52 63 14 51 45 97 100 100 100 100 100 100 75 90 100 100 95 98 26 11 38 5 5 5 21 53 99 87 55 29 33 100 100 100 100
33 25 0 0 0 0 0 13 100 100 100 5 89 100 100 100 100 100 100 100 100 100 100 87 100 100 100 78 86 65 36 26 5 18 78 59 9 2 0 16 22 100 100 100
0 0 0 0 0 0 0 0 23 42 100 97 100 100 100 100 100 100 100 100 100 100 100 100 100 100 100 100 100 100 100 89 75 5 5 41 51 67 0 0 2 2 7 99
0 1 4 1 0 1 0 0 0 0 83 100 100 100 100 100 100 100 100 100 100 100 100 100 96 99 100 100 100 100 100 100 72 5 11 5 2 58 15 4 42 73 21 51
2 2 24 5 14 20 0 2 5 9 100 67 94 100 100 100 100 100 100 100 100 100 100 100 100 96 100 100 100 94 100 100 100 97 100 96 24 11 18 75 100 100 92 80
0 0 15 5 7 0 0 68 38 97 100 1 90 100 100 100 100 100 100 100 100 100 100 100 100 96 100 90 95 100 100 100 100 100 100 100 100 98 98 99 100 100 100 100
100 18 2 56 16 81 86 75 100 100 96 79 100 100 100 100 100 100 100 100 100 100 100 100 100 98 100 100 100 100 100 100 100 100 100 100 100 100 100 100 100 100 100 100
100 100 81 24 24 23 100 100 96 100 100 92 100 100 100 100 100 100 100 100 100 100 67 90 93 22 100 100 100 100 100 100 100 100 100 100 100 100 100 100 100 100 100 100
100 100 100 98 94 100 75 100 68 92 100 100 100 100 100 100 100 100 100 100 100 100 47 9 51 51 100 100 100 100 100 100 100 100 100 100 100 100 100 100 100 100 100 100
100 100 91 48 100 82 34 100 100 100 22 11 17 100 100 100 100 100 100 100 100 100 100 96 93 91 100 100 100 100 100 100 100 100 100 100 100 100 100 100 100 100 100 100
100 100 100 50 26 60 90 100 100 100 6 7 39 84 100 100 100 100 100 100 100 100 100 100 100 100 100 100 100 100 100 100 100 100 100 100 100 100 100 100 100 100 100 100
100 100 100 100 100 100 100 100 98 84 84 5 34 6 100 100 100 100 100 100 100 100 100 100 100 100 100 100 100 100 100 100 100 100 100 100 100 100 100 100 100 100 100 100
100 100 100 100 100 100 100 98 100 97 36 7 61 66 73 100 100 100 100 100 100 100 100 100 100 100 100 100 100 100 100 100 100 100 100 100 100 100 100 100 100 100 100 100

GFSCGP_prec_cloud_111.txt.gz
Cloud_Cover
100 100 88 100 100 100 83 96 100 100 100 69 36 4 5 84 95 62 5 17 1 0 0 5 59 99 94 6 100 100 29 34 61 100 100 100 100 100 100 100 100 100 100 100
74 78 100 100 100 100 98 100 100 100 100 12 43 5 100 99 100 11 2 3 0 0 5 6 68 92 100 5 100 100 15 60 41 53 100 100 100 100 100 100 100 100 100 100
99 69 100 100 100 100 100 100 99 100 100 66 82 15 100 77 82 0 0 0 0 0 11 76 100 92 100 4 96 100 38 79 22 14 79 91 100 100 100 100 100 100 100 100
100 100 100 100 100 100 100 100 100 100 87 100 96 4 78 100 20 0 2 0 0 0 8 85 100 100 100 4 91 100 41 56 22 18 19 62 100 100 100 100 100 100 100 100
100 100 100 100 100 100 100 100 100 96 34 13 99 19 94 92 5 2 4 0 0 0 10 50 100 100 92 18 90 93 53 43 12 37 36 10 37 100 100 100 100 100 100 100
100 100 100 100 100 100 100 100 100 100 100 8 100 12 5 3 20 1 2 0 0 5 5 77 100 84 12 77 100 57 56 26 45 100 52 0 0 50 100 100 100 100 100 100
100 100 100 100 100 100 100 100 100 99 100 76 86 0 3 31 1 0 0 0 0 91 97 100 100 100 82 79 98 68 77 20 96 100 95 1 0 7 68 100 100 100 100 100
100 100 100 100 100 100 100 100 100 92 84 34 4 0 4 0 0 0 0 0 0 70 90 100 100 100 92 80 100 100 84 83 100 100 100 99 99 100 98 92 100 100 100 100
100 100 100 100 100 100 100 100 100 100 25 10 4 1 5 0 0 0 0 1 6 10 94 100 100 100 100 100 100 100 60 94 88 100 100 100 100 100 100 100 100 100 100 100
100 100 100 100 100 100 100 100 100 100 79 10 4 1 0 0 0 30 34 81 40 62 88 100 100 100 98 88 100 100 37 97 70 100 99 90 100 100 100 100 100 100 100 100
98 47 91 100 100 100 100 100 98 95 96 5 2 0 0 5 5 5 2 27 30 100 100 100 98 100 93 100 94 85 57 70 48 96 100 58 100 100 100 100 100 100 100 100
100 90 69 100 100 100 99 100 60 98 100 48 94 12 0 0 0 5 5 4 39 100 100 100 100 100 100 50 100 100 56 52 28 2 71 71 56 100 100 100 100 100 100 100
100 100 100 100 100 100 84 58 13 5 32 74 100 18 4 37 96 13 10 100 100 100 100 98 100 100 100 98 97 100 94 47 5 4 88 100 100 96 100 100 98 100 100 100
100 100 17 5 46 100 99 1 8 56 6 60 100 1 0 78 3 1 100 100 100 100 100 100 100 100 100 100 100 88 99 100 74 5 93 100 100 100 100 100 100 98 100 100
100 54 65 5 4 6 6 5 1 26 5 95 90 19 1 1 100 98 100 100 100 100 100 100 100 100 100 100 100 100 90 100 100 65 33 100 100 100 93 100 75 100 98 100
100 92 7 100 15 3 0 0 0 0 0 67 35 2 6 16 100 100 100 100 100 100 100 100 100 100 100 100 100 100 78 82 100 56 100 100 100 100 100 88 79 77 100 87
61 49 62 22 0 5 2 0 0 0 0 2 43 2 51 15 100 100 100 100 100 100 100 100 100 100 100 100 100 100 100 100 46 51 93 100 98 98 45 47 68 100 99 100
1 3 3 4 0 2 0 0 0 0 0 0 3 0 48 100 100 100 100 100 100 100 100 100 100 100 100 100 100 100 100 100 100 96 93 100 100 81 85 76 87 100 100 100
2 2 8 5 3 0 0 3 4 25 18 5 4 15 100 100 100 100 100 100 100 100 100 100 100 100 100 100 100 100 100 100 100 100 100 76 96 100 100 100 100 100 100 100
100 100 70 78 14 3 0 4 86 82 82 38 3 62 100 100 100 100 100 100 100 100 100 100 100 99 100 100 100 100 100 100 100 100 100 100 100 100 100 100 100 100 100 100
97 100 98 100 32 2 46 93 42 70 100 100 98 100 100 100 100 100 100 100 100 100 100 100 100 83 100 100 100 100 100 100 100 100 100 100 100 100 100 100 100 100 100 100
100 100 100 100 90 45 12 8 82 99 100 100 100 100 100 100 100 100 100 100 88 100 100 100 100 100 100 100 100 100 100 100 100 100 100 100 100 100 100 100 100 100 100 100
100 100 100 100 100 100 99 98 100 100 65 100 100 100 100 100 100 100 100 100 100 95 100 100 100 100 100 100 100 100 100 100 100 100 100 100 100 100 100 100 100 100 100 100
100 100 100 83 87 100 98 100 100 100 100 100 100 100 100 100 100 100 100 100 100 100 100 100 100 100 100 100 100 100 100 100 100 100 100 100 100 100 100 100 100 100 100 100
100 100 100 100 100 100 98 100 100 97 100 90 76 72 100 100 100 100 100 100 100 100 100 100 100 100 100 100 100 100 100 100 100 100 100 100 100 100 100 100 100 100 100 100
100 100 100 100 100 100 100 100 100 100 100 98 91 96 100 100 100 100 100 100 100 100 100 100 100 100 100 100 100 100 100 100 100 100 100 100 100 100 100 100 100 100 100 100

GFSCGP_prec_cloud_117.txt.gz
Cloud_Cover
100 90 21 100 100 100 100 44 5 5 55 73 66 32 5 58 100 100 100 100 100 58 1 5 13 5 35 72 62 0 7 54 73 100 100 100 100 100 100 100 100 100 100 100
100 100 86 100 100 99 100 100 97 39 98 70 52 73 5 89 90 100 100 100 100 13 4 21 15 24 95 84 12 10 31 100 63 81 100 81 100 100 100 100 100 84 100 100
99 100 100 100 100 100 100 100 100 100 100 94 12 12 5 96 100 100 100 100 100 11 8 5 34 7 78 15 5 32 51 100 96 79 92 62 36 90 100 100 100 94 100 100
69 96 100 100 100 100 100 100 100 100 100 68 4 5 42 100 100 100 100 100 98 13 5 5 22 56 40 80 4 26 95 100 100 70 45 43 37 91 100 100 100 100 100 100
38 85 100 100 99 100 100 100 100 96 25 94 18 3 95 100 100 100 100 100 100 100 38 5 4 16 100 57 1 45 100 100 100 57 100 39 21 100 100 93 100 100 100 100
63 100 100 100 100 100 100 100 100 100 100 5 78 12 10 68 100 100 100 100 69 4 1 4 4 53 40 41 75 92 100 100 100 100 100 70 38 100 97 98 100 100 100 100
100 100 100 100 100 100 100 100 100 100 62 19 79 60 87 100 100 100 100 100 22 78 5 4 4 14 18 20 99 100 100 100 100 100 100 100 100 94 67 99 100 100 100 100
100 100 100 100 100 100 100 100 100 100 100 100 100 95 41 97 100 100 100 100 100 100 35 5 5 95 8 2 12 100 100 100 100 100 100 100 77 52 65 59 93 100 100 100
40 100 100 100 100 100 100 99 98 100 100 66 92 94 100 100 100 100 100 100 98 100 30 5 5 46 5 1 0 9 100 100 100 100 100 90 96 85 100 86 100 100 100 100
54 33 100 100 100 100 100 100 100 100 100 44 62 79 100 100 100 100 100 100 100 100 100 18 5 5 5 0 0 11 100 100 100 100 100 75 84 74 100 100 100 100 100 100
87 79 94 100 100 100 100 100 100 100 100 94 23 97 99 100 76 81 100 41 5 5 5 7 5 7 5 39 55 100 100 100 100 100 100 86 54 95 100 100 100 98 58 100
42 93 100 100 100 100 100 100 100 100 100 99 10 36 100 84 67 61 56 9 5 6 60 81 76 92 5 97 100 100 100 100 100 100 100 80 99 100 100 100 100 100 100 100
5 59 46 100 100 100 100 100 100 100 100 100 99 100 100 90 6 15 30 9 29 100 98 36 5 8 7 62 100 100 100 100 100 100 100 49 67 29 100 100 100 100 100 100
4 15 100 100 100 100 100 100 98 100 91 75 10 32 8 11 5 72 100 100 100 100 41 5 5 55 100 100 100 100 100 100 100 100 100 64 52 34 100 100 100 98 95 100
1 2 38 100 100 100 100 92 48 24 14 29 5 1 5 5 5 36 88 14 6 47 79 87 4 86 100 100 100 100 100 100 100 100 100 87 54 42 100 100 100 100 100 100
57 2 0 18 100 100 100 100 100 88 100 3 0 0 3 0 1 5 5 0 5 31 5 13 16 100 100 100 100 100 100 100 100 100 100 100 66 99 100 100 100 100 100 100
6 6 4 1 79 100 52 100 91 45 25 59 2 0 0 0 0 0 5 8 99 19 42 30 100 100 100 100 100 100 100 100 100 100 100 100 97 100 100 100 100 100 100 100
5 6 5 5 7 42 0 10 92 88 33 81 0 0 0 0 0 0 0 12 64 44 41 69 96 100 100 100 100 100 100 100 100 100 100 100 100 100 100 100 100 100 100 100
5 39 79 71 14 2 0 0 0 0 0 0 0 3 3 0 0 3 44 14 73 46 39 100 100 100 100 100 100 100 100 100 100 100 100 100 100 100 100 100 100 100 100 100
100 100 100 100 95 96 100 51 0 0 2 3 98 96 100 28 1 4 65 98 100 64 98 100 100 100 100 100 100 100 100 100 100 100 100 100 100 100 100 100 100 100 100 100
100 100 100 100 100 97 100 53 11 17 99 100 100 100 100 98 89 87 100 100 100 100 100 100 100 100 100 100 100 100 100 100 100 100 100 100 100 100 100 100 100 100 100 100
100 100 100 100 100 97 24 78 62 100 100 100 100 100 100 100 100 100 84 100 100 100 100 100 100 100 100 100 100 100 100 100 100 100 100 100 100 100 100 100 100 100 100 100
100 100 100 100 100 14 16 15 100 100 100 100 100 100 100 100 100 100 100 100 100 100 100 100 100 100 100 100 100 100 100 100 100 100 100 100 100 100 100 100 100 100 100 100
100 100 100 100 100 100 100 100 100 100 100 100 100 99 96 100 100 100 100 100 100 100 100 100 100 100 100 100 100 100 100 100 100 100 100 100 100 100 100 100 100 100 100 100
100 100 100 100 100 100 100 100 100 100 100 100 100 98 100 100 100 100 100 100 100 100 100 100 100 100 100 100 100 100 100 100 100 100 100 100 100 100 100 100 100 100 100 100
100 100 100 100 100 100 100 100 100 100 100 100 98 95 100 100 100 100 100 100 100 100 100 100 100 100 100 100 100 100 100 100 100 100 100 100 100 100 100 100 100 100 100 100

GFSCGP_prec_cloud_120.txt.gz
Cloud_Cover
8 48 36 98 100 100 100 100 100 100 100 100 100 92 76 5 5 48 100 100 89 20 71 98 74 96 97 50 5 51 100 10 0 3 99 100 100 100 100 100 78 45 69 100
6 100 100 100 100 100 100 100 100 100 100 100 100 100 21 25 82 89 90 100 100 98 20 6 85 53 17 56 5 5 76 5 0 74 100 100 100 100 100 95 89 87 100 95
64 49 66 100 100 86 98 100 100 100 100 100 99 100 100 43 78 49 89 100 100 100 70 99 100 100 100 82 45 5 5 3 14 16 100 100 100 100 100 100 75 65 50 99
5 54 17 100 98 100 100 100 100 100 100 100 95 92 100 100 100 100 99 100 96 90 61 99 100 98 100 39 5 51 20 0 99 82 100 100 47 53 30 57 91 100 100 84
2 5 100 100 32 100 100 100 100 100 100 100 51 29 100 100 100 100 100 100 91 22 41 100 100 61 100 100 18 56 51 40 100 100 100 100 70 32 36 51 92 100 100 72
1 5 31 90 100 100 100 100 100 100 100 100 100 90 100 100 100 100 100 100 95 49 82 78 72 99 100 100 77 36 78 100 100 100 100 100 98 59 59 99 92 98 100 100
80 8 8 85 100 100 100 100 100 100 100 100 100 100 100 99 100 100 100 100 100 57 96 99 95 36 51 97 100 100 47 100 100 100 100 100 100 94 78 89 93 91 100 100
11 96 93 36 68 100 100 100 100 100 100 100 100 100 100 100 100 100 100 100 79 13 50 86 53 96 80 100 100 100 8 99 100 100 100 100 73 100 68 92 100 89 100 100
1 52 100 60 100 100 100 100 100 100 100 100 100 91 100 100 100 100 100 100 100 100 100 100 32 5 5 5 98 100 8 93 100 100 100 100 100 100 100 81 100 100 90 100
69 7 31 83 99 93 100 100 100 100 100 100 100 100 100 58 100 100 100 100 100 100 100 98 8 47 23 84 100 100 97 100 100 77 100 100 100 97 87 79 77 83 75 100
38 100 5 69 67 100 100 100 100 100 100 100 100 100 100 100 100 100 100 100 100 100 100 100 91 62 100 100 100 24 58 100 100 100 100 100 100 100 96 60 84 93 72 98
42 60 32 77 100 100 100 100 100 100 100 100 100 100 100 100 88 48 74 55 100 100 100 100 100 100 100 45 21 13 25 100 100 100 100 100 100 100 100 80 100 100 100 67
68 66 38 92 36 94 100 100 100 100 100 100 100 100 100 99 61 6 5 16 41 98 100 84 6 5 5 5 11 11 5 100 100 100 100 100 100 100 92 100 83 100 85 88
6 85 100 100 100 100 100 100 100 97 100 100 100 100 100 8 5 1 1 5 5 10 5 5 5 32 14 4 6 61 12 100 100 100 100 100 100 100 100 100 67 100 100 100
69 83 100 100 14 100 99 100 100 100 100 57 60 44 100 100 71 5 5 5 12 25 5 6 5 21 35 24 31 93 6 100 100 100 100 100 100 100 100 100 47 85 68 93
69 7 100 84 5 55 100 98 100 100 100 99 91 11 15 5 12 42 5 5 5 5 5 18 100 100 96 25 15 100 17 100 100 100 100 100 100 100 100 90 58 100 100 100
52 58 100 100 100 96 33 3 100 100 54 47 8 1 0 0 1 5 5 5 5 14 93 46 100 100 96 38 37 100 100 100 100 100 100 100 100 100 100 92 92 100 100 100
61 53 100 98 98 92 5 5 47 100 100 96 3 0 0 0 0 3 5 5 13 100 55 27 28 37 58 60 76 80 100 100 100 100 100 100 100 100 100 100 100 100 100 100
100 100 100 100 100 99 79 17 1 7 37 15 0 4 0 5 5 5 65 94 98 64 36 47 59 58 64 93 93 100 100 100 100 100 100 100 100 100 100 100 100 100 100 100
100 100 100 100 100 100 100 96 98 12 2 9 17 66 100 100 62 97 100 100 96 81 68 61 67 83 100 100 100 100 100 100 100 100 100 100 100 100 100 100 100 100 100 100
100 100 100 100 100 100 100 84 34 98 57 44 83 100 100 100 100 100 100 100 100 100 100 89 98 100 100 100 100 100 100 100 100 100 100 100 100 100 100 100 100 100 100 100
100 100 100 100 100 100 68 76 100 100 100 100 100 100 100 100 100 100 100 100 100 100 100 90 100 100 100 100 100 100 100 100 100 100 100 100 100 100 100 100 100 100 100 100
100 100 100 100 100 100 100 100 100 100 100 100 100 100 100 100 100 100 100 100 100 100 99 100 100 100 100 100 100 100 100 100 100 100 100 100 100 100 100 100 100 100 100 100
100 100 100 100 94 100 100 100 100 100 100 100 100 100 100 100 100 100 100 100 100 100 100 100 100 100 100 100 100 100 100 100 100 100 100 100 100 100 100 100 100 100 100 100
100 100 100 100 100 100 100 100 100 100 100 100 100 99 100 100 100 99 100 100 100 100 100 100 100 100 100 100 100 100 100 100 100 100 100 100 100 100 100 100 100 100 100 100
100 100 100 100 100 100 100 100 100 100 100 100 99 93 80 100 100 100 100 100 100 100 100 100 100 100 100 100 100 100 100 100 100 100 100 100 100 100 100 100 100 100 100 100

GFSCGP_prec_cloud_123.txt.gz
Cloud_Cover
0 0 0 5 39 99 100 100 99 100 100 100 99 100 100 100 100 57 9 5 10 5 5 5 5 5 68 100 100 100 100 100 100 100 68 0 40 93 98 100 44 90 95 58
0 0 3 5 6 66 100 100 100 100 100 100 100 80 100 100 100 100 100 96 44 7 5 5 5 57 78 94 54 100 83 100 100 100 72 2 63 92 100 100 97 82 100 100
0 0 5 16 5 15 85 70 100 100 100 100 100 100 100 100 100 100 100 100 100 100 87 5 22 28 20 5 97 100 100 100 100 96 93 66 100 95 100 100 100 97 100 95
0 0 0 4 3 49 56 94 100 100 100 100 100 100 100 100 100 100 100 100 100 99 73 100 44 28 18 74 5 26 100 100 100 60 89 24 100 100 100 100 100 100 90 86
2 0 5 0 14 100 3 100 100 100 100 100 100 100 100 100 100 100 100 100 100 100 100 100 100 96 100 100 8 37 100 100 100 97 67 75 100 100 97 100 46 96 40 99
4 4 2 5 3 75 73 100 100 98 100 97 100 100 100 100 100 100 100 100 100 100 100 100 100 100 100 100 100 100 100 10 97 100 37 98 100 71 100 100 100 83 41 91
0 2 99 90 67 69 54 100 100 100 100 19 100 100 100 100 100 100 100 100 100 100 100 100 100 100 100 100 81 100 86 100 97 100 100 100 100 100 100 100 59 40 100 100
4 0 34 28 57 100 100 100 100 100 100 100 100 100 100 100 100 100 100 100 100 100 99 100 100 100 100 84 86 92 81 59 93 100 98 100 100 100 100 100 100 100 69 96
100 59 100 97 93 98 47 84 47 100 100 100 100 100 100 100 100 100 100 100 100 100 100 100 100 100 100 100 19 38 89 100 100 100 73 66 100 100 100 88 100 100 100 76
100 100 89 93 82 97 90 69 100 100 100 77 100 100 100 100 87 100 100 100 100 100 100 100 100 100 96 96 91 100 100 98 70 98 100 94 100 100 100 72 55 95 96 100
92 84 60 84 90 88 70 99 98 100 98 100 100 100 100 100 100 100 100 100 100 100 100 100 100 100 100 100 99 99 34 97 99 100 97 94 100 100 100 100 100 83 100 88
100 97 100 100 100 51 100 100 100 100 67 100 100 100 100 100 100 100 100 100 91 100 100 100 100 100 89 100 100 100 100 100 100 100 80 100 100 100 100 100 100 99 100 84
90 71 100 100 98 100 83 99 100 100 100 100 100 100 100 100 100 100 100 100 100 100 100 100 100 100 47 71 81 89 100 100 100 68 99 100 100 100 100 100 100 95 99 99
72 24 87 100 98 100 100 100 100 100 100 100 100 100 100 100 100 100 92 100 100 100 100 85 63 100 100 100 100 100 100 100 45 30 100 100 100 100 100 100 100 100 100 99
66 97 97 97 10 96 100 100 100 100 100 100 100 100 100 100 100 100 99 11 100 100 90 25 9 86 100 100 100 100 66 75 98 24 100 100 100 100 100 100 100 100 100 100
100 100 92 100 100 100 100 100 100 100 100 100 100 100 100 100 100 30 7 2 25 65 30 7 67 63 100 91 88 70 42 11 80 93 100 100 100 100 100 100 100 100 100 98
100 100 100 100 100 96 88 0 56 100 100 100 100 100 100 100 59 13 10 61 54 10 2 9 56 100 94 81 22 9 43 47 93 100 100 100 100 100 100 100 100 100 100 100
100 100 100 100 100 100 100 100 100 97 100 100 100 100 100 100 10 2 5 11 15 15 67 95 100 100 70 58 37 40 61 100 100 99 100 100 100 100 100 100 100 100 100 100
100 100 100 100 100 94 82 100 79 96 73 86 63 20 3 5 5 5 39 72 32 2 90 96 96 60 58 56 93 66 100 100 97 100 100 100 100 100 100 100 100 100 100 100
100 100 100 100 100 100 100 95 100 100 26 50 57 9 10 31 91 35 100 69 39 51 39 49 71 92 99 88 92 61 98 100 80 73 100 100 100 100 100 100 100 100 100 100
100 100 100 100 100 100 100 100 56 99 100 99 57 84 100 100 100 100 100 100 82 100 88 100 94 100 100 100 100 74 99 100 93 96 100 100 100 100 100 100 100 100 100 100
100 100 100 100 100 100 100 14 98 100 100 100 100 100 100 100 100 100 100 97 85 100 97 100 86 100 77 97 100 100 100 100 89 100 99 100 100 100 100 100 100 100 100 100
100 100 100 100 100 100 100 100 100 100 100 100 100 100 100 100 100 100 100 100 100 99 69 65 64 82 100 99 99 100 100 100 100 100 100 100 100 100 100 100 100 100 100 100
100 100 100 100 100 100 100 100 100 100 100 100 100 100 100 100 100 100 100 87 98 94 99 81 54 67 95 100 97 100 100 100 100 100 100 100 100 100 100 100 100 100 100 100
100 100 100 100 100 100 100 100 100 100 100 100 100 100 100 100 100 100 100 100 83 100 100 100 89 96 100 100 100 95 100 100 100 100 100 100 100 100 100 100 100 100 100 100
100 100 100 100 100 100 100 100 100 100 100 100 100 100 100 87 90 100 100 100 98 99 100 100 100 100 100 100 100 100 100 100 100 100 100 100 100 100 100 100 100 100 100 100

GFSCGP_prec_cloud_126.txt.gz
Cloud_Cover
5 4 4 0 0 0 0 8 5 0 17 100 100 92 6 74 100 100 100 100 100 100 92 5 5 0 5 84 28 5 5 39 16 29 74 20 92 100 100 7 87 100 47 1
1 0 0 0 0 0 0 8 0 0 5 100 100 7 100 100 100 100 100 100 100 100 100 100 100 69 62 5 6 7 100 99 58 11 51 100 100 100 83 23 60 100 100 46
0 0 0 0 4 10 4 1 0 40 66 100 74 6 100 100 100 100 100 100 100 100 100 100 45 100 100 97 11 22 42 45 5 30 77 89 100 100 100 100 100 68 100 100
0 0 2 0 0 16 1 3 75 93 59 77 90 16 99 100 100 100 100 100 100 100 100 100 100 100 100 100 100 99 84 19 94 100 14 87 94 100 93 99 100 100 100 100
0 0 0 0 0 6 0 50 75 100 100 100 33 50 67 100 100 100 100 100 100 100 100 100 91 100 100 100 100 100 65 42 25 100 100 83 100 41 100 95 100 100 100 100
0 0 0 0 0 1 4 21 82 96 95 84 1 94 1 83 100 100 100 100 100 100 100 100 100 100 89 100 100 100 100 100 100 100 100 100 100 96 84 100 100 100 100 100
0 0 0 0 47 95 100 93 53 100 87 17 90 79 0 53 100 100 100 100 100 100 100 100 100 100 100 100 100 100 99 100 100 100 100 82 99 100 91 30 100 100 100 100
0 0 4 75 51 15 30 37 100 98 48 20 99 76 2 49 100 100 100 100 100 100 100 100 100 100 100 100 100 100 100 100 100 100 100 100 96 100 100 100 100 95 90 73
0 5 0 33 76 89 98 73 90 88 71 20 78 64 5 5 100 100 100 100 100 100 100 100 100 100 100 100 100 100 73 100 100 100 100 100 100 100 100 100 100 100 84 58
23 72 3 0 91 66 100 83 98 100 75 80 5 7 81 35 100 100 100 100 100 100 100 100 100 100 100 100 100 100 83 96 100 100 100 100 92 100 100 100 100 99 100 100
80 83 2 7 8 65 100 100 72 62 97 83 22 67 69 64 100 100 100 100 100 100 100 100 100 100 100 100 100 100 63 64 99 100 100 100 98 100 100 100 100 100 73 25
100 46 7 2 5 100 96 98 100 100 98 100 85 100 99 13 100 100 100 100 100 100 100 100 100 100 100 100 95 100 57 100 99 100 79 100 100 100 100 100 100 100 100 75
84 97 100 98 89 86 98 87 100 100 100 100 100 53 92 97 100 100 100 100 92 100 100 100 100 100 100 100 100 100 70 100 100 100 100 50 100 100 100 100 100 100 100 100
5 5 82 52 100 100 100 100 100 100 100 100 100 100 100 100 100 100 100 100 24 100 100 100 100 100 100 100 100 100 100 100 100 100 100 100 100 100 100 100 100 100 100 99
100 26 28 5 22 100 100 100 99 100 100 96 100 100 100 100 100 100 100 66 18 100 100 100 100 100 100 100 100 100 100 100 100 100 100 100 100 100 100 100 100 100 100 100
100 100 100 100 40 57 97 4 9 100 100 100 100 100 100 100 100 100 100 100 23 100 100 100 100 100 100 100 100 100 100 100 100 100 100 100 100 100 100 100 100 100 100 100
19 25 39 100 83 47 4 100 100 30 100 100 100 100 100 100 100 100 100 100 35 86 31 100 100 100 100 100 100 86 99 100 100 100 100 100 100 100 100 100 100 100 100 100
100 100 99 100 98 100 97 85 20 98 56 100 100 100 100 100 100 100 76 99 100 97 75 36 29 99 100 100 100 97 53 98 100 100 100 100 94 100 100 100 100 100 100 100
64 85 91 88 97 100 18 91 90 26 47 100 100 100 100 89 99 26 98 43 100 100 81 39 5 10 41 8 54 93 80 100 99 100 100 100 100 100 100 100 100 100 100 100
100 100 100 90 100 100 100 100 94 95 68 100 100 100 100 100 100 65 100 100 100 97 100 49 22 32 36 66 77 100 100 100 100 100 93 95 100 100 100 100 100 100 100 100
100 100 100 100 100 100 100 74 28 87 100 100 100 100 100 100 100 100 100 100 98 90 61 50 6 20 42 18 11 82 100 100 100 96 81 98 98 100 100 100 100 100 100 100
100 96 100 100 100 100 100 68 100 100 100 100 100 100 100 100 100 100 100 100 100 65 23 65 23 26 88 51 43 27 92 100 100 100 91 100 100 100 100 100 100 100 100 100
100 100 100 100 100 100 100 100 100 100 100 100 100 100 100 100 100 100 100 99 97 95 74 77 64 39 61 99 79 99 84 100 100 100 100 100 100 100 100 100 100 100 100 100
100 100 100 100 100 100 100 100 100 100 100 100 100 100 100 100 100 100 100 100 100 71 71 68 72 72 92 80 95 66 98 100 100 100 100 100 100 100 100 100 100 100 100 100
100 100 100 100 100 100 100 100 100 100 100 100 100 100 100 100 100 100 91 100 100 95 84 88 98 100 100 99 75 100 99 100 100 100 100 100 100 100 100 100 100 100 100 100
100 100 100 100 100 100 100 100 100 100 100 100 100 95 92 100 98 98 100 98 97 100 100 100 100 100 100 100 100 100 100 100 100 100 100 100 100 100 100 100 100 100 100 100

GFSCGP_prec_cloud_129.txt.gz
Cloud_Cover
97 54 5 7 0 0 0 0 0 0 0 3 61 29 0 0 5 5 6 100 100 100 100 56 25 99 100 40 94 100 98 42 5 5 39 100 72 8 97 55 83 92 96 2
57 5 0 0 0 0 0 0 0 0 0 0 34 45 0 0 70 100 77 75 99 100 100 100 100 14 100 100 100 100 100 28 4 4 28 99 100 97 100 96 22 100 63 94
6 5 0 0 0 0 0 0 2 0 0 0 1 3 0 1 35 100 100 100 100 100 100 100 100 100 91 100 100 100 100 100 100 34 4 3 68 63 50 100 100 69 100 23
2 0 0 0 0 0 0 0 1 0 0 0 2 1 0 0 5 99 100 100 100 100 100 100 100 100 98 100 100 100 100 100 100 100 100 60 21 38 55 99 100 100 100 26
0 0 0 0 0 0 0 0 0 0 0 6 0 93 0 0 0 49 100 100 100 100 100 100 100 100 100 99 100 100 100 100 100 100 100 100 100 36 23 98 100 100 100 100
0 0 0 0 0 0 0 0 2 13 0 88 0 28 0 0 0 0 4 98 100 100 100 100 100 100 100 100 100 100 100 100 100 100 100 100 100 55 90 100 100 100 100 100
0 0 0 0 0 0 0 5 0 4 5 1 0 1 0 0 61 1 1 7 95 100 100 100 100 100 100 100 100 100 100 100 100 100 100 100 100 100 100 100 100 100 100 100
0 0 0 0 25 19 0 84 100 98 53 30 4 0 0 0 3 5 60 100 63 75 100 100 100 100 100 100 100 100 100 100 100 100 100 100 100 100 100 100 100 100 100 100
1 0 0 0 0 5 0 5 23 99 6 96 14 0 0 64 0 9 100 100 58 92 100 100 100 100 100 100 100 100 100 100 100 100 62 100 100 100 100 100 100 100 100 100
3 7 0 0 0 0 62 15 36 96 100 100 63 2 18 17 99 8 100 100 77 100 100 100 100 100 100 100 100 100 100 100 100 100 100 100 100 100 100 100 100 100 100 100
4 47 1 0 0 1 64 98 70 63 94 91 100 100 100 90 92 100 100 100 98 100 100 100 99 100 100 100 100 100 100 100 100 100 100 100 100 100 98 100 100 100 100 100
2 4 0 0 0 91 100 100 100 100 100 100 100 90 100 100 100 100 100 100 96 100 100 100 100 100 100 100 100 100 100 100 100 100 100 100 100 100 100 100 100 100 100 100
0 34 39 100 85 100 98 100 100 100 100 100 96 62 100 100 100 100 100 100 100 100 100 100 100 100 100 100 100 100 100 99 100 96 46 95 100 96 100 100 98 100 100 100
2 82 69 88 100 100 100 100 100 100 100 100 100 87 100 100 100 100 100 100 100 100 100 100 100 99 19 73 100 100 100 100 100 100 98 97 100 79 72 100 99 100 100 100
55 51 98 41 100 100 100 40 97 100 45 78 100 100 100 100 100 100 100 100 100 100 84 49 75 100 100 100 97 100 100 100 100 100 100 94 59 57 68 100 100 100 100 100
86 13 16 23 16 100 98 20 8 84 73 88 100 100 100 100 100 100 100 100 100 100 95 5 6 100 100 100 100 100 100 100 100 100 100 100 100 73 100 100 100 100 100 100
100 96 67 48 2 0 18 10 91 98 96 100 100 100 100 100 100 100 100 100 44 74 100 100 100 98 100 100 100 100 100 100 100 100 100 100 100 100 100 100 100 100 100 100
100 23 25 6 61 96 100 99 72 54 89 87 100 100 100 100 100 100 100 100 100 77 97 100 59 12 54 100 100 100 100 100 100 100 100 100 100 100 100 100 100 100 100 100
92 19 63 83 63 100 100 100 100 97 100 100 99 100 90 100 100 100 100 100 100 100 100 49 30 5 5 100 100 100 100 100 100 100 100 100 100 100 100 100 100 100 100 100
94 51 100 100 100 100 100 100 100 58 98 100 100 100 100 100 100 100 100 100 91 98 100 100 92 59 5 30 100 100 100 100 100 100 100 98 100 100 100 100 100 100 100 100
37 34 100 98 100 100 100 100 99 100 100 100 100 100 100 100 100 100 100 100 100 100 75 49 88 81 14 5 5 77 100 100 100 100 100 100 100 100 100 100 100 100 100 100
88 100 82 89 18 89 100 100 87 100 100 100 100 100 100 100 100 100 100 100 100 100 86 20 16 26 85 46 16 5 7 85 100 100 100 100 100 100 100 100 100 100 100 100
100 100 98 100 100 100 100 100 100 100 100 100 100 100 100 100 100 100 100 100 100 82 74 93 99 6 5 5 5 12 54 11 42 69 80 100 100 100 100 100 100 100 100 100
100 100 100 100 100 100 100 100 100 100 100 100 100 100 100 100 100 100 100 100 100 100 100 100 99 97 98 5 8 58 56 87 72 63 66 100 100 96 100 100 100 100 100 100
100 100 100 100 100 100 100 100 100 100 100 100 100 100 100 100 100 100 100 100 100 100 100 99 89 96 53 46 24 9 79 76 81 56 78 100 100 100 100 100 100 100 100 100
100 100 100 100 100 100 100 100 100 100 100 100 100 100 100 100 100 100 100 100 100 100 87 66 69 89 76 83 90 91 100 83 88 96 92 100 100 100 90 98 100 100 100 100